GFSSGP_prec_cloud_003.txt.gz
Cloud_Cover
100 100 100 100 100 100 100 100 100 100 100 100 79 100 95 77 36 81 98 68 12 5 5 5 5 5 5 5 5 2 0 0 4 5 34 100 100 100 31 12 2 0 0 0 0 0 1 0 0
100 100 100 100 100 100 100 100 100 100 100 85 100 100 100 83 100 82 14 89 16 5 25 22 40 53 5 5 4 5 4 5 26 55 92 100 84 92 86 5 0 0 0 0 0 0 0 0 0
100 100 100 100 100 100 100 100 100 100 100 99 72 25 98 100 98 10 54 100 6 33 86 99 26 7 9 35 85 14 57 87 99 96 100 100 97 100 83 1 0 0 0 0 0 0 0 0 0
100 100 100 100 100 100 100 100 100 100 100 100 100 99 100 100 75 47 95 100 92 100 87 91 64 52 54 94 98 100 100 100 100 100 100 100 100 42 0 0 0 0 0 0 0 0 0 0 0
100 100 100 100 100 100 100 100 100 100 100 99 100 100 100 100 95 57 68 59 84 98 98 94 100 100 92 100 100 100 100 100 100 100 100 100 100 5 2 0 0 0 0 0 0 0 0 0 0
100 100 100 100 100 100 100 100 100 100 100 100 100 100 100 94 11 7 95 12 100 100 81 100 100 100 100 100 100 100 97 100 100 100 100 86 8 4 0 0 0 0 0 0 0 0 0 0 0
100 100 100 100 100 100 100 100 100 100 100 100 100 100 100 90 47 31 57 80 96 100 100 100 100 100 100 100 100 100 100 100 100 100 100 69 1 1 0 0 0 0 0 0 0 0 0 0 0
100 100 100 100 100 100 100 100 100 100 100 100 100 100 100 42 21 52 95 100 100 100 100 100 100 100 100 100 100 100 100 100 100 100 7 4 0 0 0 0 0 0 0 0 0 0 0 0 0
100 100 100 100 100 100 100 100 100 100 100 100 100 100 76 14 48 65 91 100 100 100 100 100 100 100 100 100 100 100 100 100 95 85 8 0 0 0 0 0 0 0 0 0 0 0 0 0 0
100 100 100 100 100 100 100 100 100 100 100 100 100 100 81 57 91 100 100 100 100 100 100 100 100 100 100 100 100 100 100 98 2 0 0 0 0 0 0 0 0 0 0 0 0 0 0 0 0
100 100 100 100 100 100 100 100 100 100 100 100 100 100 100 100 100 100 100 100 100 100 100 100 100 100 100 100 100 100 46 6 0 0 0 0 0 0 0 0 0 0 1 3 0 0 0 0 0
90 100 100 100 100 100 100 100 100 100 100 100 100 100 100 100 100 100 100 100 100 100 100 100 100 100 100 100 100 41 0 0 0 0 0 0 0 0 0 0 0 0 0 2 0 0 0 0 0
8 100 100 100 100 100 100 100 100 100 100 100 100 100 100 100 100 100 100 100 100 100 100 100 100 100 100 100 63 88 13 5 5 5 5 0 0 0 0 4 2 0 0 0 0 0 0 0 0
99 100 100 100 100 100 100 100 100 100 100 100 100 100 100 100 100 100 100 100 100 100 100 100 100 100 100 100 100 100 100 100 9 29 4 0 2 5 5 5 5 5 5 3 0 0 0 0 0
0 65 100 100 100 100 100 100 100 100 100 100 100 100 100 100 100 100 100 100 100 100 100 100 100 100 100 100 100 100 100 45 61 8 0 2 5 64 5 5 5 2 0 5 5 3 0 0 0
0 41 65 68 2 91 100 100 100 100 80 48 14 76 88 89 96 100 100 100 82 82 83 88 85 100 100 100 100 100 100 92 5 5 5 3 4 5 1 4 5 5 5 5 5 5 5 0 0
0 3 4 2 0 0 0 7 2 1 0 0 0 0 2 1 26 5 2 2 4 1 1 23 24 28 99 100 100 100 78 8 5 11 25 90 26 5 5 5 16 70 5 5 5 2 5 5 5
4 100 67 1 0 0 0 62 18 0 0 0 3 4 2 5 11 3 0 3 5 0 3 9 5 5 1 85 72 40 100 75 44 21 98 5 5 41 53 67 6 5 3 2 5 3 1 1 4
95 83 68 5 0 2 4 0 0 2 11 5 5 5 5 5 0 0 0 0 5 4 1 5 5 0 9 5 96 83 92 29 36 50 74 70 13 25 100 5 4 1 0 0 5 5 5 5 5
66 92 82 6 70 19 44 69 38 8 68 3 0 0 0 0 0 0 0 0 13 60 26 98 12 55 13 2 20 42 95 77 93 83 88 38 14 54 5 6 0 0 3 5 5 3 2 4 5
10 7 12 15 7 2 1 5 4 0 0 0 0 0 0 0 0 0 0 0 0 5 40 99 100 81 20 27 10 89 35 8 27 64 96 86 52 82 62 6 6 5 5 5 5 3 0 4 11
0 0 0 0 0 0 0 71 5 1 0 0 0 0 0 0 0 0 0 0 0 0 0 5 47 98 83 57 56 8 5 17 92 76 6 27 6 5 19 15 9 5 2 5 5 5 10 34 22
0 0 0 0 0 0 0 47 100 93 89 2 5 0 5 1 0 0 0 0 0 0 0 4 5 5 24 74 8 51 36 7 6 15 16 6 6 6 6 8 38 100 100 98 91 19 5 0 0
0 0 0 0 0 0 0 24 98 50 90 5 5 6 58 17 0 1 0 0 0 4 5 5 5 5 36 89 100 100 100 100 100 98 82 84 92 100 100 100 100 87 100 100 100 98 5 5 5
0 0 0 0 33 75 40 33 98 49 64 96 5 5 0 0 0 0 0 5 3 3 5 92 100 100 3 5 5 5 5 5 5 20 92 96 72 52 71 43 38 70 47 22 10 4 5 5 5
0 0 0 0 2 0 1 47 31 15 22 97 98 34 8 5 5 5 5 15 59 51 84 52 100 100 100 68 60 68 87 90 98 99 100 98 98 93 72 6 0 0 0 4 8 15 6 97 82
0 0 0 0 0 0 0 4 79 69 86 94 99 82 61 54 5 3 3 5 83 27 68 32 31 13 67 95 90 78 99 100 58 95 100 31 8 83 7 29 2 2 38 9 6 10 1 8 5
0 0 0 2 3 1 2 28 20 67 46 56 24 75 17 43 15 39 5 2 4 5 5 5 5 5 65 5 40 85 100 100 100 99 6 5 8 61 98 18 0 0 0 0 0 0 0 0 3
0 0 0 0 0 2 4 1 4 10 15 68 5 48 10 5 5 5 3 0 1 5 6 5 5 14 5 38 93 54 44 19 6 5 5 5 2 1 0 0 0 0 3 0 0 0 0 0 1
0 0 0 0 3 1 1 1 0 34 28 16 81 62 5 6 15 5 2 5 56 90 9 5 5 5 5 10 48 95 93 36 50 29 5 5 1 0 0 0 0 0 0 0 0 3 5 3 5

GFSSGP_prec_cloud_006.txt.gz
Cloud_Cover
100 100 100 100 100 100 100 100 100 100 100 100 100 100 100 80 95 38 72 79 89 68 5 5 55 62 15 5 8 5 3 4 2 5 3 0 0 5 60 95 46 100 100 10 0 0 0 0 0
100 100 100 100 100 100 100 100 100 100 100 100 100 100 100 100 100 93 50 39 85 72 5 58 76 67 32 5 82 43 19 5 6 10 5 5 5 23 58 33 100 94 0 0 0 0 0 0 0
100 100 100 100 100 100 100 100 100 100 100 100 100 100 100 100 100 81 41 51 19 96 83 82 78 47 86 96 99 10 19 30 50 11 15 26 89 5 80 100 100 37 1 0 0 0 0 0 0
100 100 100 100 100 100 100 100 100 100 100 100 100 100 100 99 99 89 92 35 100 100 97 92 99 100 38 20 77 99 100 90 62 50 9 99 98 100 100 100 48 5 1 0 0 0 0 0 0
100 100 100 100 100 100 100 100 100 100 100 100 100 100 100 100 100 100 100 59 100 100 94 40 77 42 17 99 100 100 100 83 24 28 82 100 100 100 100 97 60 0 0 0 0 0 0 0 0
100 100 100 100 100 100 100 100 100 100 100 100 100 100 100 100 100 100 100 100 100 100 100 100 100 82 94 100 100 100 100 96 98 100 100 100 100 100 100 97 37 0 0 0 0 0 0 0 0
100 100 100 100 100 100 100 100 100 100 100 100 100 100 88 100 100 100 100 100 100 100 100 99 98 100 100 100 100 100 100 100 100 100 100 100 99 89 100 24 0 0 0 0 0 0 0 0 0
100 100 100 100 100 100 100 100 100 100 100 100 100 100 100 100 100 100 100 100 100 100 97 81 78 100 100 100 100 100 96 100 100 100 100 100 99 91 100 27 2 2 0 0 0 0 0 0 0
100 100 100 100 100 100 100 100 100 100 100 100 100 100 100 100 100 100 98 99 100 99 100 100 100 100 100 100 100 100 100 100 100 100 100 100 100 73 62 0 1 0 0 0 0 0 0 0 0
100 100 100 100 100 100 100 100 100 100 100 100 100 100 100 100 100 100 100 100 100 100 100 100 100 100 100 100 100 100 100 100 100 100 83 100 86 8 0 1 2 0 0 0 0 0 0 0 0
100 100 100 100 100 100 100 100 100 100 100 100 100 100 100 100 100 100 100 100 100 100 100 100 100 100 100 100 100 100 100 100 83 100 100 73 5 26 10 5 2 2 0 0 0 0 0 0 0
64 100 100 100 100 100 100 100 100 100 100 100 100 100 100 100 100 100 100 100 100 100 100 100 100 100 100 100 100 100 100 100 100 100 100 100 100 99 25 21 9 2 0 0 0 0 0 0 0
65 75 100 100 100 100 100 100 100 100 100 100 100 100 100 100 100 100 100 100 100 100 100 100 100 100 100 100 100 100 100 100 100 100 100 100 100 24 39 29 75 0 3 0 0 1 0 0 0
6 76 99 100 100 100 100 100 100 100 100 100 100 100 100 100 100 100 100 100 100 100 100 100 100 100 100 100 100 100 100 100 100 100 100 100 98 57 100 27 2 0 5 5 4 5 0 5 3
5 4 8 100 100 100 100 100 93 99 100 100 100 100 100 100 100 100 100 100 100 100 100 100 98 29 19 72 100 100 100 100 100 100 90 11 24 67 9 0 0 3 0 0 0 0 3 5 5
5 5 0 4 1 2 3 56 100 100 93 100 100 99 100 100 89 63 14 33 76 59 4 7 8 11 3 0 4 19 100 100 100 100 97 88 100 9 5 3 2 3 5 3 0 0 0 3 5
5 5 5 0 0 0 0 30 38 5 81 3 0 20 42 28 2 0 0 0 0 4 4 5 97 25 48 5 5 5 5 94 86 88 62 53 46 28 72 66 60 30 59 23 2 2 5 5 7
3 5 2 5 0 0 0 0 0 2 0 0 0 0 0 0 0 2 29 35 3 1 5 50 18 5 86 96 19 5 8 18 8 75 8 47 5 82 94 65 91 21 5 2 0 0 3 5 5
84 13 0 5 6 8 5 0 0 0 0 0 0 5 4 5 14 19 23 5 2 5 44 42 100 100 44 5 5 4 5 5 6 98 66 78 75 36 95 26 5 5 2 0 0 2 0 3 5
100 69 0 0 1 1 3 5 5 5 5 5 5 5 5 10 5 2 2 27 96 14 11 79 58 5 5 5 3 4 5 45 80 73 75 76 90 28 16 21 4 2 2 0 0 0 0 0 1
57 35 6 9 18 9 7 32 29 3 2 0 0 0 54 95 35 68 53 32 0 0 0 0 5 5 5 6 31 42 76 89 99 56 5 93 68 8 5 5 0 1 3 5 5 5 8 5 3
44 53 59 1 2 0 0 3 5 0 0 0 1 75 97 100 100 99 80 73 0 0 0 0 1 4 5 5 39 100 100 95 8 5 5 5 5 5 5 5 5 11 15 5 24 51 63 92 60
0 0 0 0 0 0 0 3 4 5 5 0 8 40 88 75 60 100 100 97 0 0 0 0 3 5 5 14 55 52 58 5 5 5 5 7 61 16 5 80 100 100 100 5 5 5 5 29 81
0 0 0 0 0 0 0 1 18 5 10 54 100 65 83 37 2 2 1 2 1 0 0 5 0 7 30 26 88 91 44 17 11 44 73 31 35 47 68 76 90 95 39 63 41 2 2 5 21
0 0 0 0 4 0 0 22 10 61 47 35 18 5 5 5 46 88 5 5 0 5 38 86 49 14 5 4 1 5 5 26 9 57 98 100 45 100 47 100 99 61 7 0 0 5 5 66 99
0 0 0 0 2 5 5 1 0 8 15 87 44 31 9 99 98 10 0 0 0 3 21 66 96 67 40 19 29 12 49 100 100 100 85 100 100 100 37 11 5 78 12 0 3 0 0 0 1
0 0 0 0 0 0 0 0 5 16 74 43 98 95 54 5 4 5 0 5 5 5 4 5 74 92 53 23 8 98 100 100 99 96 3 2 1 5 5 7 6 1 0 0 0 0 0 0 0
0 0 0 0 0 0 0 2 57 32 52 6 5 5 5 5 5 5 5 5 3 7 82 100 90 52 75 76 5 10 4 2 1 0 3 69 56 53 96 96 97 31 20 71 12 99 0 0 0
0 0 0 0 0 2 4 3 0 1 5 4 0 5 5 5 6 73 18 8 5 29 23 7 5 4 5 5 2 1 9 22 28 6 5 6 31 100 100 100 100 100 100 60 83 9 0 0 0
0 0 0 0 3 0 2 1 0 4 49 96 98 99 74 100 59 94 100 6 5 5 5 9 5 4 3 5 5 19 6 5 5 5 10 10 17 79 100 100 100 100 100 12 0 0 5 47 65

GFSSGP_prec_cloud_009.txt.gz
Cloud_Cover
100 35 99 100 100 100 100 100 100 100 100 100 100 100 100 100 100 100 97 97 70 100 98 98 50 98 15 5 5 5 5 4 3 4 0 2 5 5 0 0 0 1 5 5 5 5 0 0 0
98 53 99 100 100 100 100 100 100 100 100 100 100 100 100 100 100 100 100 100 100 100 100 100 100 77 15 96 5 5 5 6 20 5 5 13 8 4 0 0 0 4 5 5 93 6 3 0 0
97 92 80 100 100 100 100 100 100 100 100 100 100 100 100 100 100 100 100 87 100 100 100 100 76 20 48 5 8 13 33 16 34 25 29 12 5 5 1 5 5 89 4 98 27 18 3 0 0
5 23 100 100 100 100 100 100 100 100 100 100 100 100 100 100 100 100 100 76 100 100 100 82 100 100 62 88 16 90 5 24 28 100 54 6 5 5 5 75 100 33 100 100 4 0 0 0 0
12 8 100 100 100 100 100 100 100 100 100 100 100 100 100 99 61 78 100 100 100 100 89 100 100 100 50 97 100 45 68 62 72 44 53 14 5 35 100 95 89 77 100 55 6 2 0 0 0
24 16 99 100 100 100 100 100 100 100 100 100 100 100 100 96 100 100 100 98 83 54 93 92 82 99 100 100 100 100 98 93 58 55 99 100 98 100 36 100 100 100 5 22 15 0 0 0 0
1 45 98 78 100 100 100 100 100 100 100 100 100 100 100 100 100 100 100 100 100 100 100 99 100 100 100 100 100 100 100 85 100 100 100 100 100 100 100 52 77 98 15 50 1 0 0 0 0
1 5 100 89 100 100 100 100 100 100 100 100 100 100 100 100 100 100 100 100 100 100 100 100 94 100 100 100 100 100 100 100 100 100 100 100 100 100 25 99 63 11 5 0 3 1 0 0 0
54 6 26 92 100 100 100 100 100 100 100 100 100 100 100 100 100 100 100 100 100 100 100 100 100 100 100 100 100 100 100 100 100 100 84 100 100 100 100 100 46 28 3 5 4 5 0 0 0
74 9 85 89 100 100 100 100 100 100 100 100 100 100 100 100 100 100 100 100 100 100 100 100 100 100 100 100 100 100 100 100 100 100 100 100 100 100 100 26 54 28 5 5 5 5 0 0 0
54 88 100 100 100 100 100 100 100 100 100 100 100 100 100 100 100 100 100 100 100 100 100 100 100 100 100 100 100 100 100 100 100 100 100 100 100 100 100 100 57 5 5 5 5 5 3 0 0
100 100 100 100 100 100 99 100 100 100 100 100 100 100 100 100 100 100 100 100 100 100 100 100 100 100 100 100 100 100 100 100 100 100 100 100 23 8 3 4 5 8 5 14 5 15 1 0 0
100 99 100 100 100 92 100 100 100 100 100 100 100 100 100 100 100 100 100 100 100 100 100 100 100 100 100 100 100 100 100 100 100 97 47 89 50 15 80 86 3 82 35 62 41 8 5 1 1
100 100 82 94 2 25 100 100 100 100 100 100 100 100 100 100 98 100 100 100 97 97 100 100 100 100 100 100 100 100 85 99 81 87 94 100 100 100 96 100 100 57 89 86 16 0 4 5 0
100 57 76 83 26 5 7 100 100 100 100 100 100 100 100 100 100 100 100 100 100 100 100 100 100 97 99 64 67 69 5 5 59 10 5 5 6 86 100 95 100 40 9 0 2 2 5 4 5
21 14 9 88 100 100 44 27 100 100 100 100 99 100 100 100 100 100 100 100 100 91 78 10 22 56 99 100 100 94 90 34 5 4 5 5 5 5 5 5 5 5 5 5 5 0 0 0 0
100 55 7 31 5 20 47 61 96 100 100 96 84 47 6 55 89 11 49 100 50 36 67 47 100 100 100 100 100 98 100 75 24 53 32 48 13 24 5 48 53 6 5 5 5 2 0 0 0
37 5 5 5 3 5 5 5 5 5 5 5 5 2 1 0 2 3 45 89 63 10 50 81 100 100 100 100 100 81 36 73 78 47 68 100 78 35 74 88 47 14 5 3 2 1 0 0 0
5 5 4 5 23 5 5 5 5 3 0 0 0 0 4 1 5 5 5 36 5 5 5 6 6 61 65 43 14 4 5 5 5 37 43 70 100 100 65 5 5 5 2 0 0 0 0 0 0
5 0 0 0 4 1 2 0 0 0 1 8 5 5 9 6 53 95 84 100 15 1 3 50 4 9 51 1 0 2 18 50 70 96 98 99 59 5 5 5 4 1 0 0 4 5 5 5 4
5 2 2 0 0 4 13 23 5 61 75 21 3 4 28 25 48 100 93 44 5 40 14 27 2 0 5 0 8 4 5 6 69 29 11 5 4 2 0 0 0 2 3 5 5 5 5 5 5
42 10 5 57 21 5 11 68 42 2 0 5 5 5 78 96 87 20 14 5 88 44 5 1 0 0 0 2 5 5 84 99 38 5 0 0 0 0 0 5 5 5 6 76 44 30 5 5 17
32 6 2 0 0 0 0 0 0 0 0 3 4 100 84 100 95 84 100 99 56 46 5 0 0 0 5 6 90 100 97 5 0 0 2 5 6 5 5 6 13 99 100 72 35 16 0 0 4
0 0 0 0 0 0 0 0 0 0 3 87 99 80 56 93 68 9 99 81 100 82 7 0 2 5 5 22 4 1 0 1 2 5 7 34 75 41 70 100 68 69 83 86 96 95 0 0 1
0 0 0 0 2 0 0 0 0 0 2 21 77 52 85 44 97 100 100 22 17 2 0 4 74 44 3 0 0 1 3 6 48 50 36 87 98 88 72 14 4 5 6 5 4 5 4 4 6
0 0 0 0 0 0 0 0 0 0 0 5 5 1 4 42 100 100 72 5 3 0 0 0 0 0 5 5 5 4 5 6 13 97 95 86 40 4 5 14 92 84 100 99 100 100 82 10 75
0 0 0 0 0 0 0 0 0 0 0 0 0 5 34 74 0 0 1 5 5 5 5 0 2 5 5 5 5 5 5 61 74 69 11 4 0 2 48 98 99 100 100 100 100 97 100 58 1
0 0 0 0 0 0 0 0 0 0 1 5 7 12 3 0 2 5 5 5 5 5 5 5 5 16 5 5 5 5 5 5 5 5 0 0 4 50 41 60 86 100 77 96 100 90 91 69 88
0 0 0 0 2 2 4 0 0 1 1 0 5 0 4 5 57 53 43 63 51 92 86 88 92 76 5 5 10 6 5 2 3 3 0 0 33 100 100 62 81 96 100 100 100 99 100 100 78
0 0 0 0 0 11 5 1 0 0 0 3 5 5 14 20 81 90 90 100 100 93 100 100 76 69 76 5 5 0 5 4 0 0 0 18 100 99 98 85 76 92 100 72 17 46 100 100 86

GFSSGP_prec_cloud_012.txt.gz
Cloud_Cover
0 5 5 5 4 100 100 100 100 100 100 100 100 100 100 100 100 100 100 100 95 91 88 99 100 100 100 50 15 5 5 5 4 5 8 0 0 0 5 3 0 0 0 0 0 2 1 5 5
3 5 5 2 0 93 74 99 100 100 100 100 100 100 100 100 100 100 100 100 100 96 100 100 100 69 93 50 5 5 12 98 57 13 5 4 0 5 3 0 0 0 0 0 4 5 5 23 5
3 6 5 5 0 38 100 100 100 100 100 100 100 100 100 100 100 100 100 100 100 100 100 100 100 100 100 23 77 100 81 73 14 19 67 7 43 76 5 2 0 1 4 5 5 5 20 2 0
5 3 21 2 5 5 100 100 100 100 100 100 100 100 100 100 100 100 100 100 100 100 100 100 97 88 96 100 97 27 5 22 66 25 78 100 63 9 5 5 5 5 5 5 67 100 55 4 2
5 4 4 5 31 1 95 100 100 100 100 100 100 100 100 100 100 100 100 100 100 100 100 100 58 98 66 24 78 83 15 100 51 100 100 82 65 5 5 5 5 5 5 14 100 51 4 5 0
5 5 5 62 14 5 40 100 100 100 100 100 100 100 100 100 100 100 100 100 92 95 87 51 89 56 20 5 95 99 100 28 90 66 80 21 5 5 12 7 5 7 96 50 82 5 5 0 0
5 7 10 65 33 73 61 100 100 100 100 100 100 100 100 100 100 100 100 100 91 91 70 93 100 72 100 100 100 100 100 90 49 100 93 5 20 21 56 91 100 100 100 79 5 12 0 0 0
52 5 3 35 49 100 100 100 100 100 100 100 100 100 100 100 100 100 100 100 100 100 100 100 100 100 100 100 100 100 100 100 100 100 67 100 100 87 73 100 100 99 58 78 47 7 0 0 0
9 5 24 86 100 100 91 100 100 100 100 100 100 100 100 100 100 100 100 100 100 100 100 100 100 100 78 83 100 100 100 100 100 100 100 100 100 100 100 100 100 70 8 44 8 2 1 1 4
98 50 96 100 100 100 100 100 100 100 100 100 100 100 100 100 100 100 100 100 100 100 100 100 100 100 100 100 100 99 100 100 100 100 100 100 100 100 100 100 98 49 5 5 2 0 0 0 0
66 58 66 63 100 91 100 100 100 100 100 100 100 100 100 100 100 100 100 100 100 100 100 100 100 99 100 100 100 100 100 100 100 100 100 100 100 100 76 13 41 8 0 0 0 2 0 4 3
98 70 99 100 100 100 100 100 100 100 100 100 100 100 100 100 100 100 100 100 100 98 100 100 100 100 100 100 100 100 100 100 100 100 100 100 86 50 64 4 27 12 7 4 24 8 5 0 0
100 100 100 100 100 100 100 100 100 100 100 100 100 100 100 100 100 100 100 100 93 100 100 100 100 100 100 100 100 100 100 100 100 100 97 80 22 80 61 5 5 5 0 0 0 2 0 0 0
100 88 100 100 95 99 100 100 100 100 100 100 100 100 99 100 100 100 94 100 100 100 84 100 100 100 100 100 100 100 100 100 89 74 32 5 42 5 5 5 5 5 2 5 5 5 0 0 0
100 92 100 100 25 100 100 100 100 100 100 100 100 100 100 100 100 100 100 100 80 85 60 100 100 100 100 100 100 100 100 100 98 96 20 99 31 5 14 5 5 5 5 6 5 5 4 1 0
100 83 100 100 100 100 100 99 100 100 98 75 61 99 99 100 100 100 100 88 36 84 100 100 63 94 74 100 100 100 100 100 60 5 68 82 57 6 5 5 7 88 71 38 5 5 5 1 0
90 53 58 99 100 51 5 14 50 40 6 24 5 5 5 5 4 5 42 84 100 100 100 57 95 94 100 100 100 100 100 100 100 100 100 83 5 48 6 77 9 78 75 7 5 5 1 0 0
84 66 29 32 58 47 62 31 10 5 5 5 5 37 58 29 18 7 57 78 100 98 100 77 94 100 100 100 100 100 100 100 100 100 72 5 14 91 84 97 98 9 4 5 4 0 0 0 0
99 34 42 5 5 5 31 64 41 44 34 22 5 5 5 5 5 5 5 17 88 11 95 100 100 100 95 100 100 100 97 48 10 43 5 5 99 65 5 33 4 1 0 0 0 0 0 0 0
69 4 2 4 5 5 5 6 5 5 21 34 14 5 5 5 5 60 62 31 5 7 6 83 11 20 35 68 16 10 5 4 2 5 5 5 5 42 5 4 0 0 0 1 5 5 5 5 5
0 3 4 2 0 0 0 2 5 5 8 10 5 78 86 70 14 43 85 79 7 10 9 5 2 4 0 3 0 3 5 1 5 3 1 2 1 0 0 0 1 1 5 5 5 17 5 5 26
0 0 0 1 5 4 46 23 5 11 14 11 20 10 1 5 7 100 95 95 74 95 64 29 89 92 42 5 5 5 5 5 0 0 0 0 4 3 5 5 5 5 5 6 36 6 12 35 14
0 0 4 52 70 72 17 5 4 0 0 0 0 0 4 48 28 52 98 63 89 100 100 92 57 5 5 4 2 1 0 0 0 0 0 5 5 5 5 39 86 17 5 6 59 21 3 5 2
5 5 5 5 4 2 0 0 0 0 0 0 5 5 5 5 4 6 92 100 100 100 80 8 2 5 1 0 0 0 0 1 1 2 3 5 5 5 5 5 9 60 21 5 21 87 50 5 3
0 0 0 0 2 0 0 0 0 0 0 0 5 5 5 5 0 4 76 77 41 27 3 5 4 2 1 0 5 5 5 5 5 4 5 11 4 3 16 30 7 5 5 68 73 96 100 100 86
0 0 0 0 5 0 0 0 0 0 0 0 0 0 0 3 60 85 59 2 5 5 5 5 5 5 5 5 5 4 0 3 0 0 4 5 6 5 5 2 1 4 66 44 75 100 97 86 58
0 0 0 0 0 0 0 0 0 0 0 0 0 0 5 60 20 5 0 5 1 5 5 5 39 85 60 5 5 5 5 5 5 6 26 5 5 4 1 5 5 99 73 94 98 100 100 92 18
0 0 0 0 0 0 0 0 0 0 0 0 0 2 5 1 1 5 5 5 5 5 5 14 51 89 11 78 45 56 65 5 5 5 5 5 0 0 0 10 82 85 62 91 99 84 5 79 52
0 0 0 0 2 2 1 0 0 0 0 0 0 0 3 5 5 5 5 5 11 5 43 100 61 72 100 100 93 23 5 0 5 2 4 4 0 0 19 87 29 50 97 5 5 19 29 3 0
0 0 0 0 0 16 5 1 0 0 0 0 0 0 5 5 5 5 5 80 72 100 100 92 84 100 100 95 5 5 5 5 5 5 3 0 1 5 2 18 95 100 83 80 5 35 38 5 0

GFSSGP_prec_cloud_015.txt.gz
Cloud_Cover
0 0 0 0 0 1 4 71 99 100 100 100 100 100 100 100 100 100 100 100 100 94 98 87 100 100 82 95 30 73 98 5 23 6 5 4 11 5 0 21 1 1 0 0 0 0 0 0 0
0 0 5 2 0 0 5 9 5 62 98 100 100 100 100 100 100 100 100 100 100 100 100 100 100 100 100 100 92 11 18 15 5 26 4 5 18 1 4 5 2 0 0 0 0 0 0 3 5
0 0 4 5 3 1 4 0 3 51 75 98 100 100 100 100 100 100 100 100 100 100 100 100 100 100 93 100 100 80 81 54 8 36 5 5 48 0 5 49 40 4 1 0 0 36 5 47 92
0 0 4 5 5 3 2 6 7 17 94 97 100 100 100 100 100 100 100 100 100 100 100 100 100 100 100 100 99 87 50 5 8 5 5 2 0 6 68 88 11 5 0 0 3 5 50 26 60
5 5 5 5 5 0 0 81 100 34 97 100 100 100 100 100 100 100 100 100 100 100 100 100 100 100 100 100 100 97 24 47 5 5 60 74 10 96 39 47 5 3 5 5 5 21 95 76 27
5 5 5 0 2 28 5 77 6 89 100 100 100 100 100 100 100 100 100 100 100 100 100 100 87 100 100 100 100 99 79 6 95 100 100 31 34 91 5 5 5 5 5 19 5 87 66 99 25
5 5 5 5 5 100 9 39 100 95 100 100 100 100 100 100 100 100 100 100 100 100 100 100 100 100 100 100 98 57 90 73 71 97 18 65 86 52 88 15 5 8 5 93 97 25 71 13 6
6 52 32 5 5 100 100 97 100 96 100 100 100 100 100 100 100 100 100 100 100 100 100 100 100 100 100 100 100 89 100 100 99 36 18 100 97 100 98 100 35 10 84 6 21 27 5 5 3
51 100 100 69 30 91 100 100 100 100 100 100 100 100 100 100 100 100 100 100 100 100 100 100 98 100 99 100 100 82 85 100 99 56 100 100 100 100 100 100 85 99 45 7 87 8 4 0 0
100 100 100 99 85 100 100 100 100 100 100 100 100 100 100 100 100 100 100 100 100 100 100 100 100 100 100 100 97 100 100 100 100 100 100 100 100 97 97 100 100 100 37 41 6 4 0 0 0
100 95 100 100 100 100 100 100 85 100 100 100 96 100 100 100 100 100 100 100 100 100 100 100 100 100 100 100 100 100 100 100 100 100 100 100 100 91 95 32 30 53 5 4 6 0 0 0 0
100 100 100 100 100 100 100 95 100 68 100 99 100 100 100 100 100 100 100 100 100 100 100 100 100 100 100 100 100 100 100 100 100 100 100 100 73 21 21 22 5 5 8 10 3 0 0 0 0
100 100 100 100 100 100 100 100 94 100 100 100 100 100 100 100 100 100 100 98 100 100 100 100 98 100 100 100 100 100 100 100 100 100 100 100 61 5 5 7 51 7 5 5 6 5 4 0 0
100 100 100 100 100 100 100 100 100 100 100 100 100 99 100 100 100 100 57 99 99 88 100 100 88 82 100 100 100 100 100 100 100 100 100 100 100 69 92 9 6 5 5 8 14 5 5 5 0
100 100 100 100 100 100 100 100 100 100 100 99 100 100 100 100 100 100 100 64 83 71 76 82 83 100 100 100 100 100 100 100 100 100 100 93 100 84 95 86 96 100 53 9 10 38 5 0 0
100 100 100 100 100 83 91 100 100 100 100 100 100 100 100 100 100 100 100 99 96 44 21 60 99 100 100 100 100 100 100 100 100 100 100 100 100 100 100 100 100 72 42 49 25 5 3 3 3
100 96 92 100 100 100 100 100 100 100 100 89 100 100 92 75 87 70 35 93 81 90 100 100 100 100 100 100 100 100 100 100 100 100 100 100 100 100 100 28 9 55 25 5 5 5 5 2 0
76 100 100 100 100 100 98 67 85 99 99 100 96 91 86 80 76 88 87 83 53 54 56 42 76 94 100 100 92 100 100 100 100 100 100 100 76 14 2 5 5 5 5 4 0 0 0 0 4
100 100 100 84 60 48 27 46 20 6 72 99 92 88 80 78 94 64 21 27 82 100 100 100 67 86 84 77 91 100 100 100 99 38 0 0 0 5 5 5 5 0 0 0 0 0 5 5 5
83 84 100 100 9 1 1 5 5 5 25 12 5 5 66 84 56 25 56 79 48 42 87 79 20 30 20 5 4 1 2 1 0 0 0 1 4 2 0 0 0 2 5 5 5 5 0 4 4
100 100 69 5 4 5 5 15 6 5 5 5 5 5 5 4 5 5 21 18 20 6 5 5 1 3 5 2 3 3 0 0 0 0 0 0 0 0 0 3 4 5 5 5 2 0 0 0 0
99 6 4 3 15 75 5 5 5 5 1 4 7 7 35 63 6 0 5 5 92 52 5 39 59 79 13 52 34 4 0 0 0 0 0 0 0 0 0 0 3 2 0 0 0 3 0 0 1
0 5 4 2 5 5 5 5 5 0 3 5 2 0 0 0 0 2 5 5 36 75 82 88 100 100 97 0 0 0 0 0 0 0 0 0 0 0 5 5 5 3 0 0 0 1 8 5 73
3 2 10 15 42 21 6 5 2 0 0 0 0 0 0 0 5 19 5 55 19 87 5 0 1 3 5 5 4 2 5 3 3 5 5 5 1 0 0 0 0 0 2 4 43 87 93 70 56
5 5 63 77 31 1 0 0 0 0 0 0 0 0 0 4 5 79 76 76 20 2 4 4 5 5 5 5 5 5 5 39 5 15 4 0 0 0 0 0 3 5 5 35 100 94 53 58 23
1 0 0 0 0 0 0 0 0 0 0 0 0 0 0 0 5 85 92 95 3 4 5 5 5 5 22 99 50 9 44 77 79 48 3 0 4 5 5 5 13 5 5 62 100 100 10 3 4
0 0 0 0 0 0 0 0 0 0 0 0 0 0 0 0 5 53 38 0 4 0 5 5 5 17 56 49 76 24 43 80 64 21 5 5 5 6 35 9 5 4 90 26 7 6 0 0 0
0 0 0 0 0 0 0 0 0 0 0 0 0 0 0 1 6 12 2 1 0 5 5 5 34 80 81 70 64 92 94 89 56 5 5 13 46 32 5 5 5 85 88 5 5 4 5 4 8
0 0 0 0 0 0 0 0 0 0 0 0 0 0 1 1 0 2 5 5 5 5 38 9 98 99 28 100 100 100 66 5 5 22 51 14 26 5 5 11 90 97 87 34 97 83 88 99 10
0 0 0 0 0 2 1 0 0 0 0 0 5 5 5 0 0 5 5 17 67 74 53 92 94 24 82 100 100 93 19 48 55 16 5 2 5 3 1 10 87 81 5 100 17 80 100 96 40

GFSSGP_prec_cloud_018.txt.gz
Cloud_Cover
0 0 0 0 0 0 4 4 0 13 41 97 98 100 100 100 100 100 95 91 72 98 100 92 100 99 100 99 100 98 98 100 100 96 96 51 5 5 16 3 3 1 2 1 0 0 0 0 0
62 15 8 0 0 2 18 0 2 96 4 32 100 100 100 91 100 100 100 100 100 100 100 80 97 99 100 98 90 100 100 100 99 66 6 100 81 22 62 13 6 22 2 4 0 0 0 0 1
100 100 98 2 4 10 60 95 86 5 4 10 92 100 100 89 87 100 100 100 92 100 100 89 100 87 94 13 84 93 70 100 100 68 17 20 10 5 4 1 0 23 4 65 4 0 0 0 4
6 99 92 5 5 4 49 92 16 6 22 100 83 100 100 100 100 99 100 100 100 100 100 100 96 100 100 100 100 100 100 33 8 5 54 45 2 2 5 6 9 6 3 5 5 5 5 4 5
0 2 0 5 5 4 16 19 9 42 100 10 95 100 97 100 100 100 98 100 100 100 100 100 100 100 97 100 100 94 10 98 40 94 79 100 29 12 42 66 71 5 5 5 52 46 5 13 13
4 5 8 83 27 5 4 24 8 54 100 89 100 88 39 100 100 100 100 100 100 100 100 100 100 100 100 100 98 100 100 100 100 100 100 82 25 44 5 42 6 32 78 96 69 11 11 10 43
5 8 12 32 98 5 5 6 85 89 92 100 95 100 100 91 100 100 100 100 100 100 100 100 100 100 100 100 100 100 100 100 100 100 100 30 76 60 32 89 98 22 100 100 97 98 99 100 100
91 83 63 22 100 5 17 4 92 95 100 99 100 99 100 100 100 100 100 100 100 100 100 100 100 100 100 100 100 100 100 100 100 87 63 100 100 100 91 95 44 96 99 97 98 100 100 100 100
90 100 61 90 82 19 63 73 100 100 100 100 100 100 98 100 99 100 100 100 100 100 100 100 100 100 100 100 100 100 100 100 99 100 100 100 94 100 100 84 40 65 15 5 21 84 5 88 11
71 100 82 100 95 77 100 100 85 100 100 100 100 100 100 100 100 100 100 100 100 100 100 100 100 100 98 100 100 100 100 100 100 100 100 100 100 100 77 5 41 25 29 8 18 5 5 5 0
100 100 95 100 100 100 99 100 100 100 100 100 100 100 100 100 100 100 100 100 100 100 100 100 100 100 100 99 99 100 100 100 100 100 100 100 100 100 44 6 5 50 16 6 5 5 5 0 0
100 100 100 100 100 100 100 97 81 42 69 100 100 100 100 100 87 60 100 100 100 100 100 100 100 100 100 100 100 100 100 100 100 100 100 100 100 78 66 20 6 7 5 5 5 4 0 0 0
100 100 100 100 100 100 94 65 72 100 100 95 100 100 94 88 100 100 62 100 100 100 100 100 100 100 100 99 100 97 100 100 100 100 100 96 100 100 93 96 99 22 5 66 25 6 18 18 5
100 100 100 100 100 100 100 100 100 100 100 100 95 100 98 100 96 100 100 100 100 96 89 100 100 100 100 100 100 100 100 100 100 100 100 100 100 100 100 100 66 84 71 7 72 97 25 5 5
100 100 100 100 100 100 100 100 100 100 100 100 100 100 100 100 100 100 100 100 100 85 100 100 53 67 90 100 100 96 100 100 100 100 100 100 100 100 100 100 100 100 100 100 100 95 62 4 0
100 100 99 100 100 100 100 100 100 100 100 100 100 100 100 100 100 100 100 100 100 100 100 90 90 41 94 100 100 100 100 100 100 100 100 100 100 100 100 100 100 100 100 100 55 15 0 0 0
100 100 99 100 100 100 100 100 100 100 100 100 100 100 100 81 60 69 84 92 88 72 80 85 77 76 97 100 100 100 100 100 100 100 100 100 100 100 100 100 100 57 4 0 1 2 5 2 2
100 100 100 100 94 100 100 100 100 100 100 100 100 100 98 91 69 82 68 76 91 100 71 70 97 100 99 100 100 100 100 100 100 100 100 96 90 72 100 62 6 3 2 0 0 0 0 0 3
100 100 100 100 100 100 99 100 100 100 82 75 58 64 85 100 81 74 100 100 89 48 83 99 100 98 100 93 99 100 94 58 19 4 4 0 0 0 0 0 0 0 0 0 0 5 5 1 2
100 100 100 100 100 64 65 68 72 54 47 60 90 100 98 77 60 68 41 24 6 19 53 73 57 56 72 76 63 0 1 4 5 3 0 0 0 0 0 0 0 0 0 0 0 1 2 4 6
100 100 100 91 81 100 41 5 5 2 4 42 95 93 92 91 93 53 36 38 58 83 31 7 5 5 5 77 61 27 3 36 0 0 0 0 0 0 0 0 0 0 0 1 0 0 5 5 5
100 100 100 100 89 90 5 89 0 0 3 5 5 5 5 6 5 6 22 8 13 75 5 5 5 5 5 43 35 0 0 0 3 5 5 5 3 5 5 0 0 0 0 0 1 5 1 5 5
100 100 20 27 12 5 4 0 4 1 5 7 33 32 7 3 0 4 5 85 95 5 5 47 79 14 0 0 0 1 5 5 5 5 5 5 5 5 5 3 0 4 1 5 0 0 5 6 46
85 37 5 27 4 0 3 5 20 33 34 5 2 0 0 0 0 4 5 54 5 5 5 5 0 0 5 5 5 5 5 43 23 30 5 5 18 23 5 2 0 0 0 16 5 5 5 50 100
5 5 8 2 0 5 25 46 3 0 0 0 0 0 0 0 0 5 5 31 5 5 5 1 4 5 5 5 5 74 74 75 70 21 5 71 94 12 0 1 4 13 5 14 46 100 59 29 56
2 3 8 7 9 31 1 0 0 0 0 0 0 0 2 5 3 4 5 5 5 5 4 5 3 5 5 5 62 94 96 100 100 100 98 91 5 5 11 68 32 5 31 91 100 94 99 100 90
50 92 24 0 0 0 0 0 0 0 0 0 2 5 4 5 5 4 5 5 5 1 1 5 5 5 8 32 74 100 95 70 78 98 91 8 14 67 23 5 5 24 99 89 97 98 94 97 95
0 0 0 0 0 0 0 0 0 1 2 5 5 4 5 5 5 5 5 5 5 5 5 17 31 99 100 100 100 87 8 58 100 99 5 12 8 5 5 5 6 89 35 69 70 87 31 100 100
0 0 0 0 0 0 0 3 5 5 5 5 5 5 5 5 5 5 5 4 5 5 30 95 100 100 99 100 15 16 89 97 42 5 5 5 5 5 14 5 5 51 14 29 82 62 50 98 100
0 0 0 0 2 2 1 5 5 3 5 5 5 5 7 5 5 5 5 29 85 92 100 100 100 94 100 100 94 93 74 5 5 5 5 5 14 12 5 5 5 61 99 78 81 100 84 100 100

GFSSGP_prec_cloud_021.txt.gz
Cloud_Cover
0 2 4 1 0 0 0 25 6 55 53 22 15 82 39 99 100 100 97 98 100 100 100 90 100 100 82 90 56 10 5 5 6 11 78 92 74 95 48 6 54 5 4 5 0 5 0 4 5
5 5 5 29 5 1 24 82 22 16 100 10 23 23 12 49 81 70 77 100 100 99 96 100 100 100 100 93 55 12 5 8 8 55 93 98 6 6 3 14 22 5 4 5 7 5 5 4 0
97 86 48 50 7 96 100 97 1 10 82 12 2 5 5 29 52 65 68 100 100 100 100 100 100 100 98 64 92 70 38 86 49 38 73 13 30 5 2 1 3 78 57 5 28 36 5 3 0
100 100 100 99 100 99 51 52 6 70 62 54 18 48 38 71 87 100 42 71 100 100 100 100 100 100 100 100 97 98 100 79 65 10 24 50 40 24 100 99 100 14 42 8 24 5 5 22 96
86 100 98 78 97 91 3 5 100 85 55 26 65 33 53 9 72 98 99 32 94 100 100 100 100 100 100 99 100 100 66 99 100 99 100 100 100 98 100 100 75 60 86 5 2 16 74 78 30
5 6 5 8 100 29 29 0 90 5 22 19 37 44 57 88 87 99 100 99 100 100 100 100 100 100 100 100 100 100 100 100 100 100 100 100 100 100 100 100 80 91 31 89 78 100 94 80 79
5 10 92 100 100 97 57 60 100 97 19 98 27 83 13 40 23 23 90 87 100 100 100 100 100 100 100 100 100 100 100 100 100 100 100 100 100 100 100 100 98 99 48 71 98 5 6 20 97
51 95 100 98 30 100 8 50 62 2 64 100 8 97 34 5 40 76 100 100 100 100 100 100 100 100 100 100 100 100 100 100 100 100 81 100 100 100 100 100 100 100 100 79 27 29 5 5 58
72 100 98 100 83 100 29 25 5 4 54 84 61 71 100 78 77 99 100 100 100 100 100 100 100 100 100 100 100 100 100 100 100 100 100 100 100 100 100 100 100 100 86 99 6 5 5 13 5
54 100 100 100 94 77 80 43 5 6 36 73 8 76 97 100 100 90 52 100 100 100 100 100 100 100 100 100 100 100 100 100 100 100 100 100 100 100 100 94 100 89 66 14 4 27 1 0 5
100 100 100 99 100 100 32 6 74 100 83 76 82 78 8 94 100 100 100 89 100 100 100 100 100 100 100 100 100 100 100 100 100 100 100 100 100 100 98 36 59 43 43 17 5 23 3 1 3
100 100 100 100 100 100 100 67 99 100 100 100 100 86 96 100 74 54 95 100 100 100 100 100 100 100 100 100 100 100 100 99 100 100 100 100 100 98 87 89 60 14 54 5 7 40 16 58 100
100 100 100 100 100 100 100 100 100 99 97 100 100 98 97 44 42 96 55 68 100 100 100 100 100 100 100 100 100 100 100 100 100 100 100 100 100 100 100 100 100 79 79 40 100 100 88 99 100
100 100 100 100 100 99 80 100 100 100 70 54 49 99 99 99 100 100 100 81 92 96 100 100 100 100 100 100 100 100 100 100 100 100 100 100 100 100 100 100 100 100 100 97 86 96 100 65 94
100 100 100 100 100 100 100 100 100 100 100 100 100 100 100 100 97 98 100 100 100 100 100 100 100 100 100 100 100 100 100 100 100 100 100 100 100 100 100 100 100 100 100 100 100 100 99 9 5
100 100 100 100 100 100 100 88 100 99 100 95 72 52 88 92 66 92 38 99 100 100 100 93 100 100 96 55 97 100 100 100 100 100 100 100 100 100 100 100 100 100 100 100 100 100 92 2 0
100 100 100 100 100 100 100 98 11 95 100 95 89 71 99 100 100 96 99 100 100 100 100 100 99 100 99 100 100 100 91 46 100 100 100 98 100 94 98 100 100 99 69 8 0 0 0 0 0
100 100 100 100 100 100 100 100 66 94 100 100 99 100 100 100 100 100 84 72 94 92 70 100 100 100 86 72 100 100 100 100 84 61 55 38 12 77 57 16 2 0 0 0 0 0 0 0 2
100 100 100 100 100 100 100 100 100 100 82 100 100 100 100 100 100 97 100 31 13 7 52 96 100 100 54 88 100 100 100 40 22 4 0 0 0 0 0 0 0 0 0 0 0 2 0 0 0
100 100 100 100 100 92 100 100 73 69 100 82 92 95 79 80 32 16 70 86 32 18 80 78 87 78 91 99 56 25 73 7 7 0 0 0 0 5 5 5 4 5 3 5 5 0 4 2 0
100 100 100 100 94 92 100 100 79 75 61 46 48 32 45 34 5 5 5 5 35 97 100 98 98 54 80 33 5 12 5 2 0 0 0 3 5 5 4 2 5 5 5 4 0 4 5 5 5
100 100 100 100 59 61 83 100 100 15 2 5 5 15 7 5 5 8 26 98 88 63 41 18 18 12 8 5 2 0 8 94 6 5 5 5 5 2 5 5 5 5 0 4 6 5 4 5 5
100 98 100 100 99 100 68 8 94 99 5 5 5 4 5 19 76 47 52 5 5 5 5 6 8 2 0 0 0 0 3 5 5 5 5 5 5 9 72 5 5 3 0 5 5 5 5 5 11
100 100 100 100 76 57 47 100 100 96 25 10 12 48 38 4 1 1 0 2 5 5 5 5 1 0 0 0 0 0 4 5 5 42 37 19 85 11 17 71 39 0 5 5 5 8 28 8 76
100 100 94 77 99 60 90 2 11 100 45 4 1 0 0 0 0 0 0 0 5 5 5 5 2 0 0 0 5 5 5 37 48 100 76 98 42 14 84 19 5 2 3 5 5 35 5 81 94
100 95 94 29 100 48 18 10 53 1 0 0 0 0 0 0 0 0 0 0 0 5 5 5 5 5 4 3 5 5 83 76 100 80 89 6 5 61 5 4 5 5 73 56 47 21 51 89 92
30 5 1 4 21 36 2 0 12 0 0 0 3 0 0 0 0 0 0 1 5 5 5 5 0 0 4 6 25 90 87 100 72 5 5 5 5 5 5 5 14 49 45 23 50 66 48 84 45
5 5 8 3 0 2 53 12 32 0 0 0 0 0 0 0 0 4 5 5 5 5 5 5 5 6 57 92 53 44 100 100 100 97 24 5 5 5 5 7 22 58 11 51 78 19 58 83 13
28 4 0 1 3 3 0 7 0 0 0 2 4 4 5 5 5 5 17 17 5 5 5 5 58 25 7 85 17 98 93 100 98 46 7 5 5 5 45 51 41 6 5 48 43 44 88 77 72
0 5 5 0 2 0 0 0 0 5 6 5 5 5 5 11 10 11 5 5 5 5 24 55 13 50 20 100 65 80 100 97 95 25 5 5 5 59 44 16 47 45 89 53 97 57 11 22 93

GFSSGP_prec_cloud_024.txt.gz
Cloud_Cover
0 0 0 0 0 0 0 0 1 39 15 97 8 0 1 5 33 88 53 100 100 100 100 59 86 92 98 98 95 59 87 88 36 12 38 42 6 14 99 60 28 1 0 1 5 5 5 2 4
4 0 2 2 0 0 0 93 100 8 76 2 3 1 0 12 12 10 24 100 100 95 89 90 90 60 91 100 100 89 82 100 100 100 100 81 66 24 32 32 46 56 5 24 7 3 4 1 0
34 5 22 31 1 5 43 31 100 42 2 1 0 0 0 14 51 56 18 100 100 34 78 100 100 99 100 100 100 100 100 100 100 100 100 100 100 100 86 81 76 100 96 100 48 9 20 5 5
5 67 43 6 5 27 100 54 98 6 4 2 16 6 0 0 85 34 96 100 69 100 100 100 100 100 100 100 100 100 100 100 100 100 100 100 100 100 100 100 100 100 100 100 100 100 68 10 99
100 98 65 100 100 100 98 7 6 4 75 100 57 18 0 0 68 65 58 94 80 96 100 100 100 100 100 100 100 100 100 100 100 100 100 100 100 100 100 100 100 100 100 100 100 99 100 100 100
100 100 100 100 100 100 99 34 4 91 100 100 100 63 8 0 4 13 22 100 100 87 100 100 100 100 100 100 100 100 100 100 100 100 100 100 100 100 100 100 100 100 99 78 89 100 90 37 100
100 45 70 100 100 83 68 2 0 68 100 100 100 100 24 3 79 10 76 100 100 100 100 100 100 100 100 100 100 100 100 100 100 100 100 100 100 100 100 100 96 87 100 100 85 100 100 100 78
98 47 55 33 55 60 100 99 2 18 100 100 17 91 90 13 0 46 52 100 100 100 100 100 100 100 100 100 100 100 100 100 100 100 100 100 100 100 100 100 100 100 100 62 11 100 100 100 100
98 9 100 100 76 98 100 100 23 81 100 31 100 100 72 42 31 25 81 100 100 100 100 100 100 100 100 100 100 100 100 100 100 100 100 100 100 100 100 100 98 100 100 99 60 24 100 84 11
17 61 100 100 97 100 100 100 100 75 100 62 99 100 100 20 34 10 100 100 100 100 100 100 100 100 100 100 100 100 100 100 100 100 100 100 100 100 100 100 100 100 97 78 100 100 49 41 17
17 74 100 99 98 100 100 100 100 8 8 47 100 100 100 100 14 99 100 100 100 100 100 100 100 100 100 100 100 100 100 100 100 100 100 100 100 100 100 100 100 93 100 100 42 74 99 56 58
84 100 100 100 90 100 100 100 97 45 74 28 99 100 81 10 7 100 100 100 100 100 100 100 100 100 100 100 100 100 100 100 100 100 100 100 100 100 100 100 57 16 16 92 35 60 98 5 5
98 95 97 94 100 100 100 100 100 96 100 100 100 100 73 20 25 9 100 100 100 100 100 100 100 100 100 100 100 100 100 100 100 100 100 100 100 100 100 98 45 82 100 90 100 85 100 70 90
69 88 100 100 100 100 100 99 100 84 78 100 100 100 100 73 98 16 98 100 100 100 100 100 100 100 100 100 100 100 100 100 100 100 100 100 100 100 100 100 100 100 100 100 100 100 95 52 57
97 100 100 100 100 100 100 100 100 72 15 19 100 100 100 100 67 93 40 100 100 84 100 100 100 100 100 100 100 100 100 100 100 100 100 100 100 100 100 100 99 100 100 99 100 93 100 100 100
100 100 100 100 100 100 100 100 96 55 36 25 68 91 99 93 96 100 100 100 85 37 100 100 100 100 100 100 100 100 100 100 100 100 100 90 94 100 100 100 100 72 97 100 96 42 5 4 2
100 100 100 100 100 100 99 98 99 100 100 100 35 100 64 10 20 60 42 73 100 100 100 100 100 100 100 100 100 97 85 71 87 100 100 100 100 70 10 5 4 6 5 4 0 0 0 0 0
100 100 100 100 100 100 100 100 98 61 70 98 90 84 82 88 67 93 49 82 78 100 100 100 100 100 99 80 51 100 90 95 98 100 92 36 5 5 4 1 2 1 0 0 0 0 5 5 3
100 100 100 100 95 100 100 98 100 100 96 88 100 100 99 100 95 75 100 100 100 100 97 100 58 100 98 67 88 100 23 5 5 5 5 5 1 0 0 0 1 4 0 3 0 5 0 0 0
100 100 100 66 99 97 89 96 100 100 100 95 20 56 65 76 97 70 28 32 26 64 9 75 47 100 83 26 96 51 24 8 4 0 0 0 5 4 1 3 4 1 5 5 5 4 0 0 0
100 100 95 90 100 100 100 100 100 93 18 5 7 86 27 26 35 12 8 5 39 91 84 49 26 60 5 39 99 100 99 0 0 0 0 5 5 5 5 4 5 5 5 5 4 0 0 1 2
100 91 53 100 100 93 100 100 98 94 95 83 78 14 6 4 5 5 15 76 86 77 99 48 75 30 100 71 0 0 0 0 0 7 0 4 17 79 41 23 5 1 5 5 1 0 2 0 0
100 81 72 53 100 100 100 84 87 100 100 60 1 5 5 0 4 5 5 54 100 82 19 100 64 52 5 4 0 0 0 0 0 0 5 16 83 86 5 36 5 0 0 0 0 0 5 5 6
73 94 90 100 100 100 100 100 92 63 99 96 100 97 4 31 6 5 48 100 77 49 82 11 5 5 5 2 0 0 0 0 1 5 36 66 91 65 24 4 1 4 4 5 0 5 5 44 18
42 100 100 100 100 100 100 100 100 100 92 100 100 100 48 6 1 46 16 23 0 4 0 0 0 3 0 0 2 5 5 5 5 5 68 100 100 70 12 25 24 5 5 5 5 5 5 10 3
100 53 100 100 100 57 71 99 49 8 55 22 100 9 0 0 10 0 4 1 0 0 0 0 0 2 5 5 28 22 24 5 5 71 77 100 100 99 98 5 5 48 59 27 33 51 8 5 5
97 99 100 100 98 5 15 20 63 23 5 25 3 0 0 0 0 0 0 0 0 0 0 0 5 5 5 24 40 5 5 56 72 92 80 84 90 97 5 5 12 88 50 18 44 10 10 40 33
100 94 22 4 5 12 96 52 100 23 0 0 0 0 0 0 0 0 0 0 0 0 0 4 5 3 81 90 5 32 54 53 100 100 86 98 97 43 12 27 100 100 100 100 100 100 13 33 10
54 37 6 4 32 57 18 35 38 2 0 0 0 1 0 0 0 0 0 0 0 0 3 2 4 47 100 5 5 5 64 97 100 100 98 100 44 5 83 100 100 100 100 100 64 17 5 14 17
7 42 16 44 8 0 0 0 0 0 0 0 0 0 3 0 0 0 3 3 3 5 5 5 55 100 100 57 24 14 93 100 100 99 99 19 5 71 76 90 99 100 63 55 5 52 100 100 98

GFSSGP_prec_cloud_030.txt.gz
Cloud_Cover
1 0 3 5 0 0 0 0 0 0 0 0 0 14 99 92 19 11 89 34 88 100 52 5 93 100 100 100 100 98 100 100 100 100 100 100 95 100 100 100 96 31 100 90 97 99 93 100 100
81 0 1 34 2 0 0 0 0 0 1 0 1 0 4 82 96 100 100 37 98 95 89 100 33 98 98 100 100 100 100 100 100 100 100 100 100 100 100 100 96 100 100 100 32 73 100 100 99
100 77 55 7 5 0 16 20 5 0 4 62 89 5 4 84 100 100 92 77 93 96 75 78 96 86 100 100 100 74 100 100 100 100 100 100 100 100 100 100 100 100 100 84 86 100 100 100 36
99 98 26 42 5 99 99 7 0 2 5 1 33 5 5 72 26 60 60 54 84 77 76 96 97 100 98 100 100 100 100 100 100 100 100 100 100 100 100 100 100 100 100 100 100 100 100 100 99
100 100 61 56 100 100 51 14 22 11 87 25 86 11 49 100 19 30 61 100 51 100 100 100 100 100 100 100 100 100 100 100 100 100 100 100 100 100 100 100 100 100 100 100 100 100 100 100 26
100 100 100 100 99 26 5 5 3 11 100 69 2 15 99 100 80 100 100 100 100 100 100 100 100 100 100 100 100 100 100 100 100 100 100 100 100 100 100 100 100 86 99 100 100 100 98 100 98
96 98 100 100 100 93 36 3 49 94 100 71 2 65 100 100 100 100 100 100 100 100 100 100 100 100 100 100 100 100 100 100 100 100 100 100 100 66 100 96 100 100 100 100 100 100 100 100 27
100 100 100 100 100 100 7 43 82 87 100 96 8 100 100 100 100 100 100 100 100 100 100 100 100 100 100 100 100 100 100 100 100 100 100 100 100 87 100 100 100 100 99 78 100 100 100 69 100
100 100 100 96 9 35 28 100 100 100 86 99 96 49 100 100 100 100 100 100 100 100 100 100 100 100 100 100 100 100 100 100 100 100 100 100 100 100 100 100 100 100 100 100 100 100 100 100 100
100 100 88 95 99 100 89 100 100 100 100 88 99 100 100 100 100 97 100 100 100 100 100 100 100 100 100 100 100 100 100 100 100 100 100 100 100 100 100 100 100 100 100 100 99 100 100 100 100
100 100 100 100 92 56 98 100 100 100 83 97 100 100 100 100 100 100 99 98 100 100 100 100 100 100 100 100 100 100 100 100 100 100 100 100 100 100 100 100 100 100 100 100 100 100 100 36 22
100 100 100 99 45 62 100 100 100 48 53 92 100 100 100 100 100 100 100 100 100 100 100 100 100 100 100 100 100 100 100 100 100 100 100 100 100 100 100 100 100 100 100 78 8 98 78 99 100
100 100 73 100 82 94 100 100 100 67 88 98 100 100 100 100 100 100 100 100 100 100 100 100 100 100 100 100 100 100 100 100 100 100 100 100 100 100 100 100 100 100 100 100 100 100 100 100 100
100 69 100 100 100 100 100 100 100 81 87 98 100 100 100 100 100 100 100 100 100 100 100 100 100 100 100 100 100 100 100 100 100 100 100 100 100 100 100 100 100 100 100 100 100 100 100 100 100
100 100 100 100 100 100 100 100 100 100 100 70 100 100 100 100 100 100 100 100 100 100 100 100 100 100 100 100 100 100 100 100 100 100 100 100 100 100 100 100 100 100 100 100 100 100 100 78 36
100 100 100 100 100 100 100 100 100 100 54 96 100 100 100 100 100 100 100 100 100 100 100 100 100 100 100 100 100 100 100 100 100 100 100 100 100 100 100 100 100 100 100 100 100 97 53 16 8
100 71 100 100 100 100 100 100 100 100 99 99 100 100 100 100 100 100 100 100 100 100 100 100 100 100 100 100 100 100 100 100 100 100 100 100 100 100 100 100 100 100 100 100 50 18 6 5 3
100 100 100 100 100 100 100 100 100 100 100 63 46 19 93 100 100 100 100 100 100 100 100 100 100 100 100 100 100 100 100 100 100 100 100 100 100 100 100 100 99 39 40 5 16 40 5 5 0
99 90 99 96 100 100 100 100 100 100 100 93 100 37 6 100 100 100 100 100 100 100 93 52 80 90 95 100 100 100 100 100 100 100 100 100 100 100 92 9 5 23 43 26 83 73 62 0 2
99 62 92 100 62 97 100 100 100 100 90 100 49 32 34 7 91 100 100 99 5 0 3 4 5 27 100 100 96 65 46 35 80 62 42 19 5 5 22 40 77 24 17 69 14 78 15 78 46
84 100 100 100 100 100 96 77 100 91 85 97 95 93 65 63 41 89 36 5 5 5 5 5 72 92 100 26 38 23 26 10 5 5 5 16 51 44 6 73 44 25 5 49 67 20 6 12 0
100 100 100 100 100 100 76 98 52 26 69 100 100 100 100 76 7 11 37 84 96 63 5 62 100 100 79 96 7 7 6 20 8 9 6 2 1 5 5 5 5 5 5 4 4 5 46 5 0
100 89 67 99 100 61 85 63 7 66 26 90 100 100 82 25 0 7 39 53 11 6 13 4 100 88 100 98 37 15 80 5 5 1 0 5 5 8 76 96 85 5 5 5 7 92 74 0 0
10 69 26 100 100 20 16 12 79 86 78 74 87 100 74 28 94 47 3 2 11 3 5 27 17 22 78 10 4 80 97 15 5 5 5 14 63 54 94 83 62 95 38 67 49 6 5 0 3
26 26 90 96 98 80 30 19 5 99 97 100 37 19 12 15 70 47 56 22 47 29 29 28 0 8 0 10 22 87 65 35 70 72 58 99 90 96 100 100 100 99 84 78 5 5 5 5 8
8 90 100 74 27 5 10 5 70 95 89 100 67 1 24 10 12 100 76 11 5 22 48 34 4 4 0 2 6 20 94 100 98 100 97 100 100 100 100 100 100 67 80 76 43 5 5 87 18
13 39 5 12 98 55 31 5 100 46 5 2 3 0 0 0 5 5 3 5 5 30 4 5 12 14 37 59 99 100 100 100 83 100 100 100 100 100 100 100 100 70 92 46 65 7 56 61 5
59 95 84 82 100 95 5 5 20 56 5 5 1 0 2 0 2 4 5 9 68 0 3 16 2 0 44 55 88 99 100 100 100 99 100 100 100 100 100 100 56 68 100 57 40 87 88 77 28
100 100 33 45 17 69 6 6 17 2 4 5 9 5 5 0 0 0 31 66 1 0 0 0 3 5 5 2 59 97 100 100 100 100 100 96 100 99 100 100 79 99 70 81 80 100 76 100 82
9 12 7 9 60 10 16 0 2 5 5 82 38 0 0 0 0 0 0 4 5 0 0 4 5 4 0 2 5 71 74 72 78 98 94 82 88 97 62 67 18 76 87 99 53 38 67 90 100

GFSSGP_prec_cloud_033.txt.gz
Cloud_Cover
0 5 0 0 0 0 0 0 0 0 0 0 0 5 14 22 37 9 92 5 10 100 76 27 3 5 30 64 100 96 98 94 100 100 100 100 59 28 82 100 93 96 36 5 5 39 5 15 97
0 46 24 1 0 0 2 4 5 5 0 0 0 0 2 68 100 100 99 10 31 100 76 15 5 5 97 98 92 100 100 92 98 100 100 100 92 97 96 100 70 73 7 5 29 22 17 25 68
0 24 100 80 0 81 12 46 5 5 0 3 21 4 9 91 91 100 71 46 70 100 67 26 37 54 78 94 58 82 100 100 100 98 100 100 100 100 100 100 97 76 97 98 13 15 78 100 100
0 2 80 100 100 100 100 5 5 36 2 4 99 100 69 100 74 64 92 100 100 100 73 30 28 36 88 100 99 82 90 100 100 100 100 100 100 100 100 100 100 69 100 100 100 100 71 81 89
0 99 100 100 100 100 56 3 5 10 2 27 86 100 76 97 93 100 100 100 100 100 100 93 97 100 100 100 100 100 100 100 99 100 100 100 100 100 100 100 92 100 100 68 98 99 61 95 100
0 94 100 100 95 99 6 1 0 3 0 50 100 100 94 100 100 100 100 100 100 92 100 100 100 100 100 100 100 100 100 100 100 100 100 100 100 100 100 100 99 100 96 87 97 100 97 95 70
5 100 100 100 48 42 8 7 17 1 5 98 100 100 100 100 99 100 100 100 100 100 100 100 100 100 100 100 100 100 100 100 100 100 100 100 100 100 100 100 100 76 97 100 100 96 90 100 84
89 100 100 92 100 12 7 16 91 63 87 100 100 100 97 100 100 100 100 100 100 100 100 100 100 100 100 100 100 100 100 100 100 100 100 100 100 98 100 100 55 90 100 100 94 99 100 100 100
24 100 97 91 95 100 100 99 21 87 80 100 99 100 74 100 100 100 100 100 100 100 100 100 100 100 100 100 100 100 100 100 100 100 100 100 99 97 100 100 100 89 68 100 100 100 100 100 63
23 100 100 98 100 82 100 100 100 100 100 100 100 100 100 100 100 100 100 100 100 100 100 100 100 100 100 100 100 100 100 100 100 100 100 100 98 100 100 100 100 100 100 100 99 100 100 99 8
15 100 77 100 77 54 61 100 100 100 100 100 100 100 100 100 100 100 100 100 100 100 100 100 100 100 100 100 100 100 100 100 100 100 100 100 100 100 100 100 100 90 100 89 100 100 100 100 90
8 100 78 100 100 100 100 100 100 100 100 100 98 100 100 100 100 100 100 100 100 100 100 100 100 100 100 100 100 100 100 100 100 100 100 100 100 100 100 100 100 100 98 100 94 72 64 100 100
100 100 100 100 100 100 100 100 100 100 100 100 100 100 100 100 100 100 100 100 100 100 100 100 100 100 100 100 100 100 100 100 100 100 100 100 100 100 100 100 99 100 100 100 100 66 49 81 75
100 100 100 100 100 100 100 100 100 100 100 100 100 100 100 100 100 100 100 100 100 100 100 100 100 100 100 100 100 100 100 100 100 100 100 100 100 100 100 100 100 100 83 100 100 100 100 100 93
100 100 100 100 100 100 100 100 99 100 100 100 100 100 100 100 100 100 100 100 100 100 100 100 100 100 99 100 69 95 100 100 100 100 100 100 100 100 99 100 100 100 100 100 100 100 100 100 98
100 100 100 100 100 100 100 100 100 100 100 100 100 100 100 100 100 100 100 100 100 100 100 100 100 42 100 99 100 99 100 100 100 100 100 100 100 96 100 84 94 98 100 100 100 100 100 86 99
97 100 100 100 100 100 100 100 100 81 100 100 100 100 100 100 100 100 100 100 100 100 100 100 100 100 100 100 100 100 100 100 100 100 100 100 100 100 100 100 100 100 100 100 100 100 100 90 27
5 73 97 82 100 100 100 100 100 64 100 100 100 100 100 100 100 100 100 100 100 100 99 100 100 100 100 100 100 100 100 100 100 100 100 100 100 100 100 100 100 100 100 100 100 76 52 11 5
100 100 100 100 100 100 100 100 100 87 100 100 100 100 100 100 100 100 100 100 100 100 100 100 100 100 100 100 100 100 100 100 100 100 100 100 100 100 100 100 87 58 85 75 34 6 4 5 5
93 96 90 100 100 100 100 100 100 100 76 25 100 100 100 100 100 100 100 100 100 100 100 100 100 100 100 100 100 80 84 91 96 100 100 100 95 72 76 46 62 50 17 6 7 0 0 0 1
97 90 100 100 100 100 100 100 100 100 98 37 12 65 69 98 7 6 5 12 51 72 72 100 100 98 13 11 9 38 53 36 72 38 5 8 6 7 18 8 5 2 0 4 5 2 2 5 70
57 55 66 100 100 100 100 100 100 100 99 100 70 90 100 100 59 42 5 24 5 5 14 12 15 63 68 83 93 92 94 21 47 62 5 5 5 6 5 5 5 5 6 33 5 5 5 5 3
100 77 67 86 100 71 39 100 100 100 100 100 76 77 100 100 100 100 100 21 0 8 5 5 27 100 100 100 100 100 100 100 90 42 5 5 6 5 17 28 46 8 98 96 68 31 5 5 5
100 100 97 98 100 16 8 29 98 80 58 100 100 100 60 25 40 22 100 100 20 7 5 18 66 100 100 98 88 63 51 13 5 38 5 96 76 30 33 5 7 16 99 98 92 96 85 64 20
79 100 100 88 88 28 19 33 8 62 58 66 78 100 50 41 1 5 41 95 89 33 17 53 98 90 100 100 22 12 7 4 5 5 8 44 35 65 71 33 100 100 100 100 100 35 30 77 92
5 29 97 100 100 69 83 70 100 94 68 12 66 98 77 76 78 51 11 5 39 18 38 100 99 99 89 85 9 0 0 0 4 25 32 99 100 100 87 100 100 100 100 96 95 99 49 100 100
90 64 25 40 48 26 23 41 21 6 47 6 4 5 70 73 85 50 0 5 36 30 88 100 99 92 28 1 0 1 0 34 66 95 100 100 100 100 100 100 100 100 100 97 96 99 56 86 79
100 19 8 5 5 5 17 51 23 34 11 5 28 1 0 5 5 5 14 9 22 14 20 40 12 3 0 0 0 1 5 7 99 100 83 93 100 100 100 100 100 100 100 72 69 100 73 96 100
40 5 8 32 40 5 8 70 14 5 10 66 5 0 0 5 5 5 5 0 0 0 0 8 2 0 0 0 5 5 10 74 37 64 100 100 100 100 100 100 100 100 91 86 100 96 25 69 94
76 58 14 5 38 21 2 62 5 4 6 5 5 0 5 5 0 3 3 0 0 1 1 0 0 0 1 5 1 5 27 94 98 100 100 100 100 98 82 97 100 100 96 100 100 100 91 5 5

GFSSGP_prec_cloud_036.txt.gz
Cloud_Cover
0 0 0 0 1 0 0 1 5 15 17 71 97 79 91 75 37 10 98 30 19 96 48 25 5 0 0 5 8 6 16 100 60 80 100 5 5 5 5 5 5 5 5 5 33 35 5 9 5
0 0 0 30 80 20 0 1 69 2 2 4 29 46 5 72 96 100 100 90 100 88 47 60 63 13 5 32 30 90 93 100 85 100 99 8 5 5 40 22 5 9 11 5 72 12 15 6 5
0 0 0 3 83 78 83 5 0 0 0 0 2 0 8 65 88 100 100 68 100 95 40 51 38 33 23 15 92 92 63 100 100 99 50 73 12 24 11 36 100 87 26 5 73 29 5 5 5
0 0 0 3 100 100 79 15 45 0 0 1 22 0 52 96 80 100 62 97 100 100 33 26 24 70 32 100 100 94 100 100 73 100 73 36 87 100 100 89 70 98 100 37 98 100 70 79 99
0 0 0 3 100 100 100 92 5 2 0 1 3 15 39 100 100 100 100 100 100 97 55 95 100 100 93 100 100 100 100 91 98 98 96 100 100 78 98 100 100 100 39 100 100 100 72 100 96
0 0 0 22 100 92 22 16 39 63 5 5 5 27 94 100 100 100 99 100 82 100 100 100 100 100 100 100 100 100 100 100 100 100 100 100 100 100 100 100 96 62 100 98 82 90 64 33 30
0 0 1 92 100 99 84 68 73 13 4 4 4 12 100 100 100 100 100 100 100 100 100 100 100 100 100 100 100 100 100 100 100 100 100 100 100 100 100 89 54 65 94 38 21 15 26 5 13
0 0 9 18 66 100 96 100 100 77 73 25 7 100 100 100 100 100 100 100 100 100 100 100 100 100 100 100 100 100 100 100 100 100 100 100 100 100 96 75 92 94 36 5 6 63 92 15 83
0 73 100 99 100 95 100 100 100 77 100 32 100 100 100 100 100 100 100 100 100 100 100 100 100 100 100 100 100 100 100 100 100 100 100 100 100 96 95 78 100 44 60 96 73 15 100 100 94
1 100 97 79 100 94 100 100 100 100 100 100 100 100 100 100 100 100 100 100 100 100 100 100 100 100 100 100 100 100 100 100 100 100 100 90 76 91 100 100 100 100 100 100 100 100 77 70 10
5 77 37 100 90 100 100 100 100 100 100 100 100 100 100 100 100 100 100 100 100 100 100 100 100 100 100 100 100 100 100 100 100 100 100 100 100 100 96 77 100 100 100 100 100 88 44 100 85
96 98 100 100 100 100 100 100 100 100 100 100 100 100 100 100 100 100 100 100 100 100 100 100 100 100 100 100 100 100 100 100 100 100 100 100 100 86 98 100 100 100 100 98 81 54 100 99 89
98 100 100 100 100 100 100 100 100 100 100 100 100 100 99 79 100 100 100 100 100 100 100 100 100 100 100 100 100 100 100 100 100 100 100 100 100 100 100 99 92 100 91 92 97 100 100 32 6
6 100 98 100 100 100 100 100 100 100 100 100 100 100 81 100 100 100 100 100 100 100 100 100 100 100 100 100 100 100 100 100 100 100 100 100 100 100 100 100 100 100 87 100 100 88 97 40 27
53 100 100 100 100 100 100 100 100 100 100 100 100 80 100 100 100 100 100 100 100 100 100 100 100 100 100 100 100 100 100 100 100 100 100 100 97 100 100 100 100 100 100 100 73 6 5 31 25
99 100 99 100 100 100 100 100 100 100 100 100 100 100 100 100 100 100 100 100 100 100 100 100 100 100 100 100 100 100 100 100 94 100 100 100 98 100 100 100 100 100 100 100 80 57 100 100 93
100 26 89 100 100 100 100 100 100 100 100 100 100 100 100 100 100 100 100 74 38 86 100 89 74 100 78 100 100 100 100 80 94 100 100 100 100 100 100 100 100 100 100 100 95 82 76 24 64
77 99 85 91 100 100 100 100 100 100 100 100 100 100 100 100 100 100 100 87 8 100 86 100 32 37 74 94 73 58 81 100 100 100 100 100 100 100 100 100 100 100 100 92 25 66 77 58 14
99 56 5 86 94 100 100 100 100 100 100 100 100 100 100 100 100 100 100 100 100 87 44 8 100 100 100 100 100 100 100 100 100 100 100 100 100 100 100 100 100 100 37 6 99 86 5 0 0
100 100 94 100 94 100 100 100 100 100 100 100 100 100 100 100 100 100 77 92 100 100 100 100 100 79 94 100 100 100 100 100 100 100 100 100 91 72 74 63 25 13 68 39 2 0 0 0 0
43 97 100 99 100 100 92 100 98 100 83 93 95 100 100 100 100 100 100 100 100 100 100 100 100 100 100 89 86 97 77 50 39 51 30 60 59 31 5 17 47 14 0 0 0 4 6 32 84
94 12 100 100 100 100 100 77 99 100 100 94 99 72 100 100 100 100 100 100 100 91 82 78 94 77 20 18 85 93 84 100 74 77 73 30 7 20 33 11 0 0 3 4 5 76 85 91 46
74 12 45 100 100 76 100 100 100 91 78 100 100 100 100 100 81 100 98 100 99 100 100 100 100 100 84 84 100 100 100 100 100 82 18 5 13 5 5 5 5 6 5 7 88 89 85 6 5
5 63 29 100 99 100 98 98 93 94 95 100 100 100 92 100 98 19 4 5 17 5 11 93 77 94 100 100 100 100 100 100 47 62 45 5 5 6 40 5 23 35 92 100 90 99 95 80 26
5 16 55 70 9 100 100 86 99 57 17 22 9 68 84 38 62 12 5 5 7 19 32 19 90 100 100 100 100 100 100 100 100 100 38 41 99 79 14 97 86 92 95 100 100 100 17 79 26
93 35 5 5 5 7 63 93 100 97 99 62 26 19 25 90 96 56 5 29 74 26 19 16 24 100 100 100 100 100 100 100 100 89 35 100 100 100 91 61 84 100 100 100 100 100 100 45 18
4 6 17 31 16 13 18 100 78 100 100 100 89 77 17 19 6 6 5 5 5 7 5 16 27 100 100 100 100 100 94 99 53 68 99 91 67 73 100 40 90 100 100 99 72 48 52 76 41
1 5 33 11 5 31 79 93 96 54 100 89 87 100 100 51 5 5 1 0 4 5 5 32 95 100 100 100 100 82 42 72 25 76 98 99 100 99 93 100 64 63 99 91 96 32 74 79 31
20 1 23 25 55 66 89 98 55 95 63 95 55 100 60 5 4 0 3 5 5 5 14 35 35 11 15 35 10 24 15 15 94 92 89 81 40 43 100 100 100 100 71 72 94 80 95 28 75
0 56 5 5 58 100 14 78 21 30 100 93 98 95 5 2 0 5 5 28 55 28 26 33 4 5 54 91 82 89 56 33 51 80 42 88 92 96 100 100 90 100 100 98 98 100 96 6 64

GFSSGP_prec_cloud_039.txt.gz
Cloud_Cover
0 0 0 0 0 0 10 0 0 12 2 0 5 3 68 60 73 60 81 100 92 86 42 5 5 5 5 52 5 6 35 91 46 50 5 17 75 5 5 5 10 19 5 5 2 0 0 0 0
0 0 0 0 0 0 73 48 0 31 1 1 26 76 6 87 100 100 100 89 100 78 55 39 5 53 23 5 87 76 12 64 27 100 5 88 100 21 34 95 96 5 15 64 93 6 5 9 2
0 0 0 0 0 14 100 77 4 31 3 4 4 15 97 72 94 100 97 97 100 78 64 51 68 14 5 70 99 99 91 84 52 100 61 100 100 34 90 100 78 23 58 37 32 64 38 5 3
0 0 0 0 0 17 100 100 85 2 60 5 2 22 33 87 90 88 48 95 100 92 66 92 39 87 47 100 100 97 38 68 8 100 7 5 16 55 96 55 7 43 43 96 10 48 99 21 6
0 0 0 0 0 3 100 84 100 25 21 56 5 9 56 96 93 98 89 82 100 74 79 100 100 97 87 100 100 99 100 6 93 94 53 8 35 98 100 96 51 5 6 7 19 93 97 86 15
0 0 0 0 0 5 100 88 13 6 100 100 5 10 94 96 100 100 100 100 100 100 98 100 100 100 100 100 100 100 89 100 100 100 97 100 99 89 87 94 15 19 51 16 9 9 48 5 14
0 0 0 0 0 18 71 58 100 80 100 100 13 53 86 100 100 100 100 100 100 100 100 100 100 100 100 100 100 100 100 100 100 98 100 100 100 87 11 45 77 100 56 5 5 9 7 3 3
0 0 0 5 35 32 100 100 100 100 100 100 94 12 86 100 100 100 100 100 100 100 100 100 100 100 100 100 100 100 100 100 100 100 100 100 100 100 12 8 8 75 5 5 0 0 2 5 5
0 54 11 5 46 98 94 100 100 100 100 100 100 70 61 100 100 100 100 100 100 100 100 100 100 100 100 100 100 100 100 100 100 100 100 100 70 63 35 93 27 5 6 17 3 14 5 5 55
4 100 92 86 86 100 100 100 100 85 98 72 95 100 100 100 100 100 100 100 100 100 100 100 100 100 100 100 100 100 100 100 100 100 90 99 86 72 14 99 87 11 3 5 66 61 75 100 74
87 100 100 97 100 100 100 100 100 100 100 88 100 100 100 100 100 100 100 100 100 100 100 100 100 100 100 100 100 100 100 100 98 100 90 99 74 100 100 100 41 37 61 59 97 100 100 74 45
68 88 90 100 100 100 100 100 100 85 81 80 100 100 100 100 100 100 100 100 100 100 100 100 100 100 100 100 100 100 100 100 100 63 70 97 100 100 100 99 98 66 100 100 100 100 97 100 100
39 52 58 100 100 99 100 100 100 100 100 100 100 100 100 100 100 100 100 100 100 100 100 100 100 100 100 100 100 100 100 100 99 100 100 100 86 66 58 100 100 100 100 100 100 100 71 100 96
61 57 57 100 100 100 100 93 100 100 100 100 100 100 99 100 100 100 100 100 100 100 100 100 100 100 100 100 100 100 79 90 100 100 97 99 91 100 100 100 100 100 100 100 100 100 94 100 38
5 58 80 97 100 100 100 100 100 84 100 100 100 97 100 100 100 100 100 100 100 100 100 100 100 100 100 100 99 100 100 100 100 100 100 100 100 100 100 100 100 100 100 91 87 100 100 50 98
42 93 100 100 100 95 96 99 100 100 98 100 100 100 94 100 100 100 100 100 100 100 100 100 100 100 100 100 100 100 100 100 100 100 100 100 100 100 100 100 100 100 100 100 98 100 100 100 76
75 97 100 81 100 100 91 100 100 100 100 100 100 100 100 100 100 100 90 100 100 100 100 100 100 100 100 100 100 100 100 100 100 100 100 100 100 100 100 96 56 100 100 99 98 100 89 60 5
5 53 48 87 98 100 100 100 100 100 100 100 100 100 100 100 100 100 100 100 100 100 100 100 100 100 100 100 100 100 100 100 100 100 100 100 96 49 80 100 100 100 100 84 50 75 44 14 5
5 30 63 47 6 96 100 100 100 100 100 100 100 100 100 100 100 100 100 100 96 98 100 100 100 100 100 100 100 100 100 100 85 100 100 96 100 100 100 100 100 100 76 71 74 57 40 8 2
5 6 98 73 96 99 100 100 100 100 100 100 100 100 100 100 100 100 100 100 100 58 100 100 100 100 100 94 82 68 56 61 30 100 100 100 100 100 93 80 74 36 6 11 22 38 9 5 5
5 33 86 100 100 100 100 100 100 100 100 100 75 100 100 100 100 100 100 100 100 45 54 34 65 100 99 76 65 36 99 100 100 100 100 100 96 69 64 32 21 5 12 38 6 5 5 5 5
5 7 6 34 99 100 100 100 100 100 100 100 100 100 90 100 100 100 100 100 100 100 100 100 100 100 100 100 100 100 100 87 59 23 76 30 60 39 17 5 5 5 5 5 5 5 6 8 90
36 12 99 100 95 100 100 100 100 100 81 99 100 100 100 100 100 100 100 100 100 100 100 100 100 100 89 100 98 96 11 53 100 100 79 99 100 100 14 5 5 5 5 5 10 69 98 100 100
5 5 7 80 97 88 96 100 100 88 93 78 100 100 100 100 100 78 100 100 100 100 100 100 100 100 56 100 100 88 100 88 95 100 100 100 100 54 37 38 42 90 57 16 98 97 100 98 54
3 0 5 18 92 100 67 94 100 100 100 93 100 98 100 98 96 30 59 81 78 88 88 51 64 82 87 100 100 100 100 100 100 100 100 100 100 92 56 96 67 71 66 90 100 92 86 16 5
0 0 3 13 100 100 100 100 98 99 100 100 100 100 52 35 14 5 21 24 12 61 61 76 68 72 100 100 100 100 100 100 100 100 100 100 100 56 56 96 46 97 89 100 100 46 38 37 5
2 1 0 5 48 100 100 100 100 98 92 92 81 100 100 94 8 5 5 23 11 5 5 85 34 18 93 100 100 100 100 100 100 100 100 100 100 93 100 100 100 100 100 100 96 94 48 9 19
9 5 3 2 5 58 100 100 100 100 100 100 87 96 100 100 100 98 17 6 5 5 4 1 77 15 62 100 100 100 100 100 100 100 100 100 94 100 100 97 100 100 100 91 35 10 36 34 72
72 6 8 5 1 92 99 100 100 51 91 77 77 16 88 100 100 99 6 4 0 0 0 1 6 92 100 100 86 92 79 100 100 100 100 100 96 99 94 95 98 100 100 98 15 25 98 100 98
5 5 5 5 1 6 100 100 9 11 5 26 100 100 83 29 75 31 15 5 0 0 2 21 48 78 49 35 98 100 100 100 91 100 100 100 100 100 100 100 100 100 100 100 84 87 100 100 90

GFSSGP_prec_cloud_042.txt.gz
Cloud_Cover
0 0 0 0 0 0 0 0 0 0 4 0 0 3 100 100 99 81 78 100 100 100 17 5 81 100 100 51 23 5 5 5 16 8 5 8 8 11 5 5 5 3 0 1 0 0 0 2 3
0 0 0 0 0 0 0 2 5 1 1 24 2 5 24 91 80 100 100 100 80 95 98 93 64 23 12 5 5 5 5 5 5 5 38 86 96 68 5 5 5 5 5 0 0 0 0 4 1
0 0 0 0 0 0 34 1 6 25 0 39 5 3 21 100 100 97 98 100 100 90 98 32 7 9 5 5 5 41 5 28 5 5 5 97 66 16 5 56 16 5 5 5 3 3 5 0 0
0 0 0 0 0 0 0 0 100 6 5 96 89 4 5 99 100 37 79 53 100 89 100 49 5 5 5 75 96 97 88 87 5 5 60 100 17 5 82 99 25 5 5 5 4 0 22 0 4
0 0 0 0 0 0 0 8 12 76 13 98 59 16 35 81 100 93 98 60 80 100 98 100 70 76 100 100 98 98 100 95 5 93 68 100 48 5 75 31 34 40 53 27 45 31 25 5 5
0 0 0 0 0 0 1 6 100 88 5 8 100 57 82 98 94 98 95 98 100 100 79 100 100 100 100 100 100 97 100 53 50 100 100 100 100 100 100 100 90 87 75 84 100 99 4 5 4
0 0 2 0 0 23 37 85 60 96 100 51 42 100 62 92 100 100 100 81 66 100 100 100 100 100 100 100 100 100 100 100 100 100 100 100 100 100 100 94 15 5 48 98 100 88 1 1 4
0 0 0 0 90 100 87 80 100 100 100 91 100 89 100 98 100 100 100 100 100 100 100 100 100 100 100 100 100 100 100 100 100 100 100 100 100 100 98 43 31 42 96 89 73 2 4 5 0
0 5 38 5 14 100 100 100 100 100 99 100 93 81 66 91 100 97 100 100 100 100 100 100 100 100 100 100 100 100 100 100 100 100 100 100 100 100 47 56 83 88 21 12 4 0 1 4 7
0 27 17 5 46 95 81 75 100 72 93 66 88 100 100 100 99 100 100 100 100 100 100 100 100 100 100 100 100 100 100 100 100 100 100 100 100 100 100 100 51 5 6 36 5 17 11 54 92
0 13 5 7 66 98 100 100 100 100 100 99 33 100 100 100 100 100 100 100 100 100 100 100 100 100 100 100 100 100 100 100 100 100 100 100 83 24 22 100 60 73 26 6 61 68 100 95 40
4 0 9 40 100 100 100 100 100 100 19 90 95 100 100 100 100 100 100 100 100 100 100 100 100 100 100 100 100 100 100 100 100 100 100 100 100 100 26 86 98 70 91 71 100 100 100 98 63
3 1 3 78 100 92 99 67 100 100 100 100 100 100 100 100 100 100 100 100 100 100 100 100 100 100 100 100 100 100 100 100 100 100 100 100 94 63 77 97 91 99 100 100 100 99 100 98 57
0 93 50 96 69 100 100 65 100 100 100 100 100 100 100 100 100 98 100 100 100 100 100 100 100 100 100 100 100 100 100 100 100 100 100 100 92 100 100 91 80 99 100 78 100 100 100 99 93
2 44 93 100 100 89 95 91 100 94 100 100 100 100 100 100 97 100 100 100 100 100 100 100 100 100 100 100 100 100 100 100 100 100 100 100 99 99 100 100 54 96 100 100 100 100 100 92 66
1 10 98 100 99 33 79 100 78 99 100 100 100 100 100 100 100 100 100 100 100 100 100 100 100 100 100 100 100 100 100 100 100 100 100 100 100 100 98 100 100 100 100 100 99 39 11 59 10
5 100 82 84 94 90 100 78 72 98 96 100 100 99 100 100 100 100 100 100 100 100 100 100 100 100 100 100 100 100 100 100 100 100 92 97 100 100 100 100 100 100 100 64 10 42 100 97 67
100 91 76 62 99 100 100 86 100 66 96 100 100 100 100 100 100 100 88 100 100 100 100 100 100 100 100 100 100 100 100 100 100 100 100 100 100 100 100 100 100 66 19 26 61 99 22 5 5
1 54 100 99 66 100 100 100 84 100 61 100 100 100 100 100 100 100 100 84 100 100 100 100 100 100 100 100 100 100 100 100 100 100 100 100 100 100 100 74 5 5 82 100 24 55 5 5 2
0 4 7 19 28 33 97 98 100 82 71 76 100 100 100 100 100 100 100 100 100 84 93 100 100 100 100 100 100 100 100 100 100 100 100 98 58 61 31 57 21 10 11 38 7 4 4 5 5
1 7 26 79 100 79 88 87 100 60 32 86 97 100 100 100 100 100 100 100 99 28 26 50 98 100 100 100 100 100 100 100 100 87 91 100 100 62 98 100 97 25 5 5 5 5 5 5 5
66 6 5 46 82 100 100 100 100 87 24 79 92 99 88 100 100 100 100 100 58 100 48 87 100 99 100 100 61 39 82 99 38 36 52 70 99 90 67 100 100 70 6 5 5 5 5 89 100
60 13 60 5 57 100 100 81 98 99 10 99 95 100 100 100 100 100 100 100 100 100 100 100 100 100 100 100 100 100 100 74 33 65 75 100 100 100 100 100 100 100 100 69 5 16 98 96 100
5 32 70 5 30 89 100 78 73 8 89 93 80 48 96 100 100 100 100 100 100 100 98 80 78 86 88 88 84 100 100 97 91 74 48 64 96 100 96 100 99 99 76 92 78 85 100 86 97
5 11 97 99 86 56 99 100 99 77 68 41 47 84 91 100 100 99 96 94 96 14 50 75 41 96 92 100 100 100 100 100 100 100 100 100 100 100 100 100 100 100 92 100 100 94 100 86 100
1 21 100 95 65 94 39 64 54 100 100 96 6 9 42 48 84 76 86 44 17 46 15 80 100 77 100 100 100 100 100 100 100 100 100 100 100 100 100 100 100 100 100 100 100 100 100 100 70
15 6 38 7 5 5 11 82 16 86 100 100 100 39 5 16 30 27 31 6 5 5 10 81 70 92 100 100 100 100 100 100 100 100 100 100 100 100 100 100 100 100 100 100 100 95 100 100 24
12 26 37 30 92 33 82 12 6 49 99 100 100 92 89 75 55 24 25 5 5 5 5 5 28 39 36 71 100 100 100 100 100 100 100 100 100 100 100 100 100 100 99 100 99 100 100 100 100
4 5 6 29 30 100 98 100 86 5 5 90 100 100 61 6 78 96 52 8 5 5 5 5 5 2 5 52 98 100 100 100 100 100 100 100 100 100 100 100 99 95 100 91 100 100 100 99 96
10 88 6 5 57 2 4 91 100 14 4 6 5 15 16 93 100 46 100 69 5 5 2 0 0 2 4 23 43 89 100 100 100 100 100 100 100 100 100 100 74 99 100 98 95 100 100 100 100

GFSSGP_prec_cloud_045.txt.gz
Cloud_Cover
0 0 0 0 0 0 0 5 21 100 16 8 12 95 60 15 64 96 99 100 100 94 100 90 100 99 16 5 6 6 5 5 15 7 73 51 5 5 5 5 4 0 0 0 0 0 0 0 0
0 0 0 0 0 1 62 5 100 50 65 100 99 0 42 98 100 100 100 100 100 97 22 77 100 92 26 45 73 50 5 5 5 5 5 5 24 5 5 5 5 5 1 1 0 0 0 0 0
0 0 0 4 3 19 99 100 100 99 1 10 15 0 54 7 44 81 100 100 89 100 100 100 100 100 99 100 54 5 5 5 5 5 5 5 11 5 5 5 5 5 5 5 5 4 5 4 2
0 0 0 0 0 97 2 100 5 2 4 5 6 100 1 8 82 98 100 100 100 100 100 100 100 100 100 8 5 13 98 93 99 10 5 5 5 5 2 5 5 35 5 5 5 5 6 4 5
0 0 2 70 32 67 2 12 4 3 88 91 5 57 9 28 77 100 91 80 100 100 100 100 100 100 62 74 42 41 100 100 84 88 6 12 38 79 5 18 8 6 5 35 5 96 14 80 51
0 2 8 100 100 5 2 2 5 5 100 74 3 76 60 31 83 100 100 46 100 100 100 100 100 100 85 20 38 97 99 98 100 100 43 96 100 95 100 90 97 88 34 7 5 5 5 21 14
0 8 82 79 96 12 39 78 21 100 96 53 67 51 100 52 100 100 100 100 89 100 100 100 100 100 100 100 96 100 99 99 100 100 66 100 100 100 100 100 100 100 82 5 5 79 33 4 3
0 0 63 57 100 100 87 3 17 100 67 18 99 96 84 93 100 100 100 100 100 100 100 100 100 100 100 100 100 100 100 100 100 100 100 100 100 100 100 100 86 10 5 14 59 63 5 0 0
0 5 100 92 30 100 51 52 93 66 95 100 99 17 99 97 100 100 100 100 100 100 100 100 100 100 100 100 100 100 100 100 100 100 100 100 100 100 100 100 79 70 68 91 22 6 0 1 2
0 84 100 21 54 76 98 81 69 78 71 100 3 78 98 100 100 86 100 100 100 100 100 100 100 100 100 100 100 100 100 100 100 100 100 100 100 100 100 100 100 100 81 44 12 5 24 5 5
32 89 79 100 11 54 90 97 99 100 100 100 100 98 100 100 100 100 99 100 100 100 100 100 100 100 100 100 100 100 100 100 100 100 100 100 100 100 100 100 98 58 83 46 11 15 55 34 17
0 61 65 98 100 91 51 93 100 56 100 100 100 100 100 100 100 97 100 100 100 100 100 100 100 100 100 100 100 100 100 100 100 100 100 100 100 100 100 100 100 100 100 68 85 94 36 8 8
3 7 19 5 7 94 65 68 100 67 100 100 100 100 100 100 100 100 100 100 100 100 100 100 100 100 100 100 100 100 100 100 100 100 100 100 100 100 100 100 100 100 91 64 99 94 76 94 98
35 4 89 26 32 6 71 64 76 52 59 93 100 100 100 100 100 100 100 100 100 95 100 100 100 100 100 100 100 100 100 100 100 100 100 100 100 100 100 100 98 100 75 98 81 56 97 97 97
0 8 87 83 72 98 98 99 96 100 100 100 100 100 100 100 100 100 100 100 100 100 100 100 100 100 100 100 100 100 100 100 100 100 100 100 100 100 100 100 100 100 100 100 100 10 60 21 89
0 38 85 100 31 100 100 100 84 96 100 100 98 100 100 79 99 100 100 100 100 100 100 100 100 100 100 100 100 100 100 100 100 100 100 100 100 100 100 100 100 100 99 93 96 15 32 86 97
11 98 79 54 100 87 88 97 97 89 73 100 35 100 100 100 100 100 100 100 100 98 100 100 100 100 100 100 100 100 100 100 100 100 100 100 100 100 100 100 100 100 95 84 65 95 50 6 61
100 86 66 100 100 100 100 100 99 71 19 100 81 100 96 100 100 100 100 100 100 96 100 100 100 100 100 100 100 100 100 100 100 100 100 100 100 100 100 100 100 100 84 95 70 62 87 85 6
75 89 37 85 64 100 100 93 96 23 8 100 98 100 100 100 100 100 100 100 100 100 100 100 100 100 100 100 100 100 100 100 100 100 100 100 100 100 100 89 53 83 15 45 4 5 5 11 56
5 80 100 98 54 9 89 100 100 88 16 100 66 100 100 100 100 100 100 100 83 100 100 100 100 100 100 100 100 100 100 100 100 100 100 100 100 99 89 86 30 6 37 28 5 61 62 27 2
5 78 100 42 100 47 60 95 100 82 21 7 6 100 100 100 100 100 100 100 25 17 100 96 81 100 100 100 100 100 100 100 100 100 100 100 99 73 32 53 39 30 21 38 69 96 95 5 4
100 51 16 2 5 98 100 99 96 100 50 29 32 100 100 100 100 100 100 100 100 18 92 12 26 97 100 100 100 100 100 100 100 100 100 100 100 100 89 73 67 8 59 100 100 100 8 6 20
93 13 3 24 98 100 84 44 95 98 96 70 91 95 100 100 28 98 100 100 23 23 3 5 5 33 100 100 100 100 100 100 100 98 98 97 100 100 78 82 93 92 100 99 96 78 56 100 90
82 4 12 28 60 96 54 87 100 99 100 100 90 77 55 42 84 100 100 100 100 100 97 53 52 44 76 78 96 100 100 92 94 98 100 97 100 99 64 88 100 67 86 100 54 79 100 100 100
5 98 66 100 98 17 99 24 99 100 45 23 54 95 90 85 97 100 100 100 100 100 100 100 100 92 99 45 94 92 51 96 97 100 100 100 100 100 100 92 100 100 100 100 100 100 100 100 93
5 89 59 100 100 100 69 1 7 32 5 18 98 6 43 100 98 100 86 49 5 5 5 5 8 87 69 87 98 100 100 100 100 100 100 100 100 100 100 100 100 100 100 100 100 100 100 100 100
88 63 83 26 6 20 85 20 2 1 3 38 10 59 70 62 6 5 5 12 5 12 72 64 100 87 62 69 100 100 100 100 100 100 100 100 100 100 100 100 100 100 100 100 100 100 100 100 100
62 73 65 50 97 54 73 97 100 77 1 27 100 95 41 100 37 5 5 5 5 5 37 39 35 46 46 23 100 82 100 100 100 95 100 100 100 100 100 100 100 100 100 100 100 100 100 86 99
4 29 60 100 90 94 92 92 99 38 5 5 5 38 85 5 34 11 62 17 9 22 22 25 48 68 79 24 38 36 28 84 100 100 100 100 100 100 100 100 100 100 100 100 100 100 100 99 100
100 49 99 100 92 36 5 4 99 62 4 28 92 100 5 5 2 35 100 99 31 5 5 12 7 27 92 100 26 100 50 87 100 100 100 100 100 100 100 100 100 100 100 100 100 100 100 100 100

GFSSGP_prec_cloud_048.txt.gz
Cloud_Cover
0 0 0 0 0 0 0 0 0 70 96 22 29 29 73 46 65 21 44 99 100 100 100 100 100 100 100 100 89 87 57 5 16 7 5 5 10 9 16 8 4 0 0 0 0 0 0 0 0
0 0 0 0 0 4 20 97 0 100 65 54 11 100 100 100 97 48 45 100 100 100 100 100 100 100 93 97 74 35 5 5 5 2 0 5 1 5 2 4 1 0 2 5 5 4 3 0 0
0 0 0 0 5 3 65 77 100 85 93 3 8 62 100 100 100 100 98 100 100 100 100 100 100 100 100 100 100 81 94 5 46 5 3 5 5 5 0 0 0 4 5 5 5 3 4 3 2
0 0 0 0 0 11 36 76 94 67 1 0 1 91 46 100 100 100 100 100 100 100 100 100 100 100 100 100 100 8 28 80 75 9 5 5 5 5 5 2 0 4 5 5 5 5 5 5 5
0 0 0 57 93 100 40 2 3 0 0 98 98 6 18 75 100 97 100 100 100 100 100 100 100 100 100 100 95 95 97 80 98 37 5 5 5 5 5 5 5 5 5 5 5 5 5 5 0
0 0 36 100 100 76 1 1 0 0 45 33 59 98 100 100 100 51 100 99 100 100 100 100 100 100 100 100 100 100 100 100 91 23 5 5 5 46 65 5 5 31 63 11 6 5 5 5 5
0 10 6 22 7 5 72 98 100 76 95 82 100 100 100 100 100 100 78 99 100 100 100 100 100 100 100 100 100 100 100 100 100 100 99 5 37 95 100 75 100 100 63 42 37 5 5 5 5
0 0 13 100 84 5 84 98 99 25 90 100 100 98 100 100 100 100 100 100 100 100 100 100 92 100 100 100 100 100 100 79 100 100 100 100 76 98 100 100 100 100 94 6 5 5 5 5 5
0 7 86 63 90 30 42 100 98 100 62 98 100 100 100 100 100 100 100 100 100 100 100 100 100 100 100 100 100 100 100 100 100 100 100 100 100 100 100 100 100 100 90 25 13 29 36 4 2
0 92 75 88 15 4 91 16 100 100 100 100 100 100 100 100 100 100 100 100 100 100 100 100 100 100 100 100 100 100 100 100 100 100 100 100 100 100 100 100 100 100 100 96 97 100 100 5 2
6 86 43 5 54 26 0 32 41 95 100 100 100 100 100 100 100 100 100 100 100 100 100 100 100 100 100 100 100 100 100 100 100 100 100 100 100 100 100 100 100 100 100 71 55 26 91 5 21
1 4 3 3 9 2 2 3 87 100 100 100 100 100 100 100 100 100 100 100 100 100 100 100 100 100 100 100 100 100 100 100 100 100 100 100 100 100 100 100 100 100 100 100 80 52 78 5 5
40 12 3 10 0 0 62 68 89 72 32 100 100 100 100 100 99 100 100 100 100 100 100 100 100 100 100 100 100 100 100 100 100 100 100 100 100 100 100 100 100 100 100 72 97 84 100 19 90
65 6 2 28 24 74 100 100 100 100 97 83 100 100 99 100 100 100 100 100 100 100 100 100 100 100 100 100 100 100 100 100 100 100 100 100 100 100 100 100 100 100 100 100 100 100 100 100 100
5 0 3 79 4 100 100 100 100 59 42 38 50 98 100 100 98 100 100 100 100 100 100 100 100 100 100 100 100 100 100 100 100 100 100 100 100 100 100 100 100 100 100 100 45 99 100 99 73
0 2 11 92 16 100 100 100 100 44 95 42 100 90 100 6 98 98 97 100 100 100 100 100 100 100 100 100 100 100 100 100 100 100 100 100 100 100 100 98 100 100 100 100 100 100 100 100 96
7 1 14 10 4 44 100 100 100 100 100 76 100 100 76 13 80 100 100 91 63 94 100 100 100 100 100 100 100 100 100 96 100 100 100 100 100 100 100 100 100 100 100 100 100 100 100 77 85
100 100 96 16 62 6 59 100 100 100 96 62 100 100 19 44 91 100 100 95 79 99 68 100 100 100 100 100 100 100 100 100 100 100 100 100 100 100 100 100 100 100 100 100 100 100 100 69 6
95 37 92 100 24 6 78 86 100 100 100 17 5 100 100 100 100 100 100 100 100 100 100 100 100 100 100 100 100 100 100 100 100 100 100 100 100 100 100 100 100 100 100 100 100 100 17 5 5
3 2 74 100 92 5 97 25 100 100 52 5 69 100 100 100 100 100 100 100 99 100 100 100 100 100 100 100 100 100 100 100 100 100 100 100 100 100 100 100 100 100 57 82 24 6 5 6 5
2 2 88 6 41 0 5 84 80 94 97 60 100 99 100 100 100 100 100 100 100 100 100 100 100 100 100 100 100 100 100 100 100 100 100 100 100 100 79 67 100 100 91 73 34 6 38 78 59
46 44 90 32 19 23 3 11 99 93 43 90 100 100 100 100 100 100 99 100 100 99 85 100 100 100 100 100 100 100 100 100 100 100 100 100 100 100 100 99 95 98 91 100 100 83 68 85 34
9 74 66 13 2 29 89 7 100 6 9 99 58 41 100 64 100 100 100 100 88 33 1 48 100 100 90 93 100 100 100 41 92 100 100 100 81 57 100 100 100 98 100 97 99 100 100 100 73
100 10 5 3 2 3 18 100 98 99 71 92 92 8 100 100 97 76 100 100 100 87 92 5 5 15 62 40 79 86 100 100 100 100 100 100 93 100 100 100 100 92 100 100 100 100 100 100 100
76 5 12 91 50 0 4 12 99 20 100 98 83 6 75 100 100 98 25 96 100 100 100 100 100 99 86 100 99 81 84 99 91 79 50 99 100 100 100 100 100 100 100 100 100 100 100 100 100
79 11 40 89 84 97 55 99 84 0 65 68 5 9 75 82 71 96 95 100 100 100 100 100 100 100 100 100 100 100 74 100 100 96 82 100 87 100 100 100 100 100 100 100 100 100 100 100 100
98 42 12 100 41 90 58 52 100 7 12 2 3 0 5 7 60 64 13 15 5 14 18 5 12 5 5 5 81 71 100 100 100 100 62 93 100 100 100 100 100 100 100 100 100 100 100 100 100
100 79 23 78 58 33 52 17 100 60 41 56 3 0 18 23 5 27 36 51 57 51 27 12 31 80 16 18 5 94 100 100 89 98 100 100 80 79 100 100 100 100 100 100 100 100 100 100 100
100 47 5 46 28 10 1 84 36 100 100 29 5 0 0 1 5 5 5 79 100 94 78 40 5 13 35 88 84 72 98 41 28 93 100 100 100 100 100 100 100 100 100 100 100 100 100 100 100
54 71 19 6 47 95 5 5 72 92 72 55 5 0 4 0 0 2 5 59 99 60 39 10 41 5 91 100 100 77 76 64 34 58 82 100 100 100 100 100 100 100 100 100 100 100 100 100 100

GFSSGP_prec_cloud_051.txt.gz
Cloud_Cover
5 0 0 0 0 0 0 0 0 60 100 83 90 63 52 8 6 84 98 68 100 100 100 100 100 92 100 100 100 47 10 2 16 63 100 68 6 5 0 5 5 5 4 4 0 0 0 0 0
4 0 0 0 0 0 0 0 4 88 100 46 100 65 14 100 100 100 88 79 88 100 100 100 100 100 100 100 100 100 100 88 91 92 100 100 8 1 0 0 0 0 0 0 3 0 0 3 5
0 0 0 0 0 0 0 6 95 100 100 70 100 80 29 71 96 100 100 84 100 100 100 100 100 100 100 100 100 100 100 100 100 100 100 94 4 0 5 0 0 0 0 4 5 2 3 0 0
0 0 0 0 0 1 5 74 7 100 95 78 17 76 94 100 100 100 100 100 100 100 100 100 100 100 100 100 100 100 100 100 100 100 99 21 5 5 5 3 0 0 0 5 5 5 1 0 5
0 0 0 0 0 20 32 16 71 14 98 0 13 100 100 100 100 100 100 100 100 100 100 100 100 100 100 100 100 100 91 100 100 100 100 100 12 5 5 5 5 1 0 5 13 5 5 5 5
0 0 0 0 66 89 18 0 0 1 0 1 0 96 100 100 100 100 100 100 100 100 100 100 100 100 100 100 100 100 81 100 100 100 86 95 5 5 5 5 5 5 5 5 5 5 5 5 3
0 0 0 0 32 64 2 58 100 38 74 100 34 96 100 100 100 100 100 100 100 100 100 100 100 100 100 100 100 100 100 100 100 91 98 100 67 40 32 63 5 88 91 100 46 22 5 3 5
0 0 0 23 64 100 10 47 99 85 100 100 100 99 100 100 100 100 100 100 100 100 100 100 100 100 100 100 100 100 100 100 9 62 83 100 100 100 98 100 100 100 100 100 100 100 5 5 5
0 0 2 25 100 99 10 92 67 100 100 100 100 100 100 100 100 100 100 100 100 100 100 100 100 100 100 100 100 100 100 100 100 100 100 100 100 100 100 100 100 100 100 98 41 27 53 5 41
0 0 4 55 100 79 21 61 100 100 100 100 100 100 100 100 100 100 100 100 100 100 100 100 100 100 100 100 100 100 100 100 100 100 100 100 100 100 100 100 100 100 100 99 95 18 28 80 99
5 0 37 86 100 4 0 35 80 100 100 100 100 100 100 100 100 100 100 100 100 100 100 100 100 100 100 100 100 100 100 100 100 100 100 100 100 100 100 100 100 100 100 100 83 69 96 100 100
35 1 0 30 45 0 37 81 100 100 100 93 79 100 98 84 98 100 100 100 100 100 100 100 100 100 100 100 100 100 100 100 100 99 100 99 100 98 100 100 100 100 100 37 89 100 100 100 100
7 41 5 5 0 46 100 100 100 100 100 100 100 100 100 100 100 100 100 100 100 100 100 100 100 100 100 100 100 100 100 100 100 99 95 100 100 100 100 100 100 100 100 99 77 100 100 100 100
14 5 2 17 22 95 73 100 100 100 100 100 100 99 100 100 100 100 100 100 100 100 100 100 100 100 100 100 100 100 100 100 100 100 96 100 100 100 100 100 100 100 99 100 98 100 100 100 100
52 0 0 1 97 10 51 100 61 100 90 85 56 100 100 100 100 100 100 100 100 100 100 100 100 100 100 100 100 100 100 100 100 100 100 99 100 100 100 100 100 100 100 100 100 100 100 100 100
100 0 0 3 46 17 35 100 100 100 100 91 100 100 52 28 62 99 100 100 100 100 100 100 100 100 100 100 100 100 100 93 76 100 98 100 100 100 100 100 100 100 100 100 100 100 100 100 87
92 1 5 81 78 79 96 98 96 51 100 100 83 100 62 95 48 99 100 98 100 100 100 100 100 100 100 100 100 100 100 100 100 93 100 100 100 100 100 100 100 100 100 100 100 100 100 100 100
61 43 80 85 100 95 28 100 100 100 69 100 91 100 30 53 87 67 86 64 100 100 100 100 100 100 100 100 100 100 100 100 100 100 100 100 100 100 100 100 100 100 100 100 100 100 100 100 100
99 46 86 97 100 100 86 16 100 100 86 5 19 100 96 92 100 86 98 51 81 29 100 100 100 100 100 100 100 100 100 100 100 100 100 100 100 100 100 100 100 100 100 100 100 100 100 100 100
98 94 8 97 41 42 6 68 98 100 100 97 5 91 96 100 100 100 100 100 100 100 55 79 58 100 100 100 100 100 100 100 100 100 100 100 100 100 100 100 100 100 100 97 100 100 100 72 87
5 7 59 50 71 100 53 6 20 38 16 100 94 5 47 100 100 100 100 100 100 100 88 46 99 100 100 100 100 100 100 100 100 100 100 100 100 100 100 100 100 100 100 100 100 81 94 68 76
5 6 29 6 3 55 17 1 5 43 4 14 100 99 39 96 100 100 100 100 100 100 100 98 97 51 98 97 100 100 100 100 100 100 96 100 100 100 100 100 100 100 100 100 100 100 100 100 100
8 12 86 5 5 0 4 3 100 13 14 5 34 20 33 60 100 100 100 62 83 69 76 100 100 100 100 100 100 100 100 100 100 100 100 100 100 100 100 100 100 100 100 100 100 100 81 96 100
48 75 22 5 8 5 0 56 37 93 96 5 28 5 48 7 56 100 100 100 99 96 33 9 7 97 100 100 100 100 100 100 100 100 100 100 100 99 84 100 100 100 100 100 99 97 100 100 100
53 97 23 5 6 5 5 71 41 35 52 2 74 31 4 9 5 100 100 99 100 100 100 18 5 3 17 100 98 100 83 8 50 95 60 100 100 100 100 100 100 100 100 89 100 100 100 100 100
99 100 89 5 16 5 4 17 4 2 4 3 4 1 5 3 52 42 58 100 73 100 100 100 100 100 78 14 30 35 100 95 22 40 40 11 19 90 100 100 100 100 100 100 100 100 100 100 100
97 95 38 40 44 10 68 98 51 6 65 62 10 5 5 0 3 77 74 69 72 99 99 100 100 92 90 100 100 100 100 21 65 13 43 98 98 100 100 100 100 100 100 100 100 100 100 100 100
100 100 100 100 99 52 88 23 80 57 72 4 10 4 0 0 2 0 28 95 16 70 90 76 100 100 100 100 92 65 81 49 34 45 90 83 51 89 100 100 100 100 100 100 100 100 100 100 100
100 100 100 89 100 59 18 26 29 5 44 89 51 19 4 0 0 0 0 9 100 37 61 68 100 100 100 100 100 98 62 100 100 100 100 100 100 99 28 43 81 99 100 100 100 100 100 100 100
100 100 100 100 20 96 7 7 66 7 47 11 5 8 0 0 0 0 0 0 0 6 100 100 100 100 100 100 100 100 100 100 100 100 100 100 100 100 100 88 77 100 100 100 100 100 100 100 100

GFSSGP_prec_cloud_054.txt.gz
Cloud_Cover
6 10 33 34 5 3 0 0 0 0 4 7 10 24 98 34 59 100 27 72 10 26 5 100 100 100 100 100 100 100 100 100 100 97 5 28 34 84 15 72 43 99 23 3 0 0 0 2 0
5 5 5 5 0 0 0 0 0 4 39 19 85 8 37 9 100 100 96 100 0 5 86 100 100 100 100 100 100 100 100 100 100 100 100 66 80 47 14 57 97 48 4 0 0 0 0 3 0
5 4 1 0 0 0 0 0 0 3 6 79 6 94 36 5 100 89 88 98 40 74 100 100 100 100 100 100 100 100 100 100 100 100 100 100 100 98 99 59 45 8 5 0 0 0 0 2 0
5 0 0 0 0 0 0 0 47 7 10 18 6 5 76 44 100 100 100 100 5 92 15 100 100 100 100 100 100 100 100 100 100 100 100 100 100 100 100 100 23 5 5 0 0 0 5 5 5
37 10 2 0 0 0 0 4 84 24 5 4 12 83 100 15 100 100 100 98 67 46 100 100 100 100 100 100 100 100 100 100 99 99 89 100 100 94 99 100 100 60 3 0 2 6 34 90 12
5 4 0 0 0 0 4 73 51 65 74 55 3 0 34 96 75 100 100 100 100 100 100 100 100 100 100 100 100 100 100 100 64 98 100 97 100 100 100 100 100 100 5 2 5 27 5 98 100
0 0 0 0 0 2 38 38 84 1 1 50 57 60 100 100 100 100 96 100 100 100 100 100 100 100 100 100 100 100 100 100 100 100 96 97 86 97 100 90 20 10 6 7 15 5 5 95 100
0 0 5 0 3 62 5 5 5 5 100 100 100 100 100 100 100 100 100 100 100 100 100 100 100 100 100 100 100 100 100 100 100 100 100 87 68 77 100 100 100 90 35 82 100 100 40 90 100
2 5 0 5 14 94 93 100 94 76 100 100 100 100 100 100 100 100 100 100 100 100 100 100 100 100 100 100 100 100 100 100 100 100 100 100 85 74 96 100 100 100 100 100 89 87 90 69 100
5 0 0 5 5 71 73 34 100 100 100 100 100 100 77 84 100 100 100 100 100 100 100 100 100 100 100 100 100 100 100 100 100 100 100 100 100 100 100 100 100 100 100 100 100 95 73 43 100
0 0 0 1 59 81 5 68 100 100 100 100 100 100 98 92 100 100 100 100 100 100 100 100 100 100 100 100 100 100 100 100 100 100 100 100 100 100 77 100 100 100 100 96 100 88 94 38 100
0 5 4 1 68 15 0 92 100 100 100 100 100 100 100 100 100 100 100 100 100 100 100 100 100 100 100 100 100 100 100 100 100 100 100 100 100 100 85 84 98 100 100 100 100 98 95 5 90
0 66 8 96 2 2 62 100 100 86 81 100 100 92 100 100 100 100 100 100 100 100 100 100 100 100 100 100 100 100 100 97 100 100 100 100 100 100 100 100 99 96 100 93 100 79 95 28 20
0 100 0 0 2 4 53 99 44 12 12 98 84 66 70 33 100 100 100 100 100 100 100 100 100 100 100 100 100 100 100 100 100 100 100 100 100 100 100 99 94 100 100 100 100 96 79 100 100
8 91 0 5 2 5 36 67 50 100 7 5 94 22 84 66 90 100 100 100 100 100 100 100 100 100 100 100 100 100 100 100 100 100 100 100 100 100 100 78 95 100 100 94 100 100 100 69 100
60 9 5 65 5 5 17 98 84 87 5 11 2 3 79 90 98 100 99 100 100 100 100 100 100 100 100 100 100 100 100 100 100 100 100 100 100 100 82 100 96 100 100 100 100 100 100 99 98
4 5 3 4 4 2 17 12 5 7 7 19 0 39 68 20 64 94 98 100 100 100 100 100 100 100 100 100 100 100 100 100 100 100 100 100 99 39 100 100 100 100 100 100 100 100 100 100 100
5 1 5 3 17 6 50 17 2 4 70 2 2 37 40 20 18 15 99 100 100 100 100 100 100 100 100 100 100 100 100 100 100 100 100 100 54 95 100 100 100 100 100 96 100 100 100 100 100
0 0 0 3 73 8 5 1 0 44 100 35 12 1 65 11 6 41 82 57 100 100 100 98 94 100 100 100 100 100 100 100 100 83 100 97 100 100 100 100 100 100 100 100 100 100 100 100 100
0 5 4 7 92 91 22 38 0 6 100 98 54 45 37 25 20 46 80 70 100 100 84 92 100 100 100 100 100 100 100 100 100 100 100 100 100 100 100 100 100 100 100 100 100 100 100 100 100
1 5 4 10 76 96 7 4 5 15 88 75 76 5 5 78 58 45 99 89 100 100 100 90 100 100 100 100 100 100 100 100 100 100 100 100 100 100 100 100 100 87 95 97 100 65 94 70 100
32 5 5 5 51 79 22 6 0 2 5 52 4 11 51 74 100 82 39 100 99 100 100 100 95 100 100 100 100 100 100 100 100 100 100 100 100 100 100 100 100 100 100 100 100 99 100 94 100
52 7 37 5 27 9 0 0 0 0 3 89 91 25 24 7 33 99 100 100 100 100 100 100 100 100 100 100 100 100 100 100 100 100 100 100 100 100 100 100 100 100 100 100 100 100 100 96 95
63 99 88 5 5 5 1 2 0 0 82 67 41 34 73 8 4 45 96 100 100 100 95 86 92 96 100 100 100 100 100 100 100 100 100 100 100 95 100 100 100 100 99 99 100 100 100 99 83
99 100 94 56 99 8 5 0 0 4 0 0 3 99 9 3 4 5 45 50 100 100 100 38 5 5 5 15 92 94 89 100 99 100 61 100 100 100 100 100 100 100 100 100 100 100 100 100 100
100 31 100 23 100 5 39 4 0 1 16 0 0 1 54 3 0 4 5 5 14 100 100 100 98 99 70 5 14 26 92 99 100 92 100 100 98 99 100 100 100 92 100 100 100 100 100 100 100
100 75 66 13 100 100 36 7 5 5 5 0 0 5 84 0 0 0 4 13 49 17 38 99 100 100 100 100 100 100 100 94 99 63 99 100 100 100 97 92 92 100 100 100 100 100 100 100 100
100 46 5 96 100 78 89 95 15 5 5 5 3 0 0 2 3 2 1 31 4 15 100 87 74 89 94 99 91 100 100 100 100 100 100 100 100 100 100 100 98 94 95 97 100 100 100 100 100
100 100 98 82 100 100 100 12 79 72 5 3 1 5 2 2 0 0 0 0 18 70 67 100 100 100 97 100 100 98 52 100 100 100 100 100 100 100 100 100 100 40 41 66 79 100 100 100 100
56 56 32 7 98 100 98 71 17 5 5 5 5 6 4 0 0 0 0 0 1 3 19 17 23 72 100 100 100 100 100 100 100 100 100 100 100 100 100 100 88 65 100 100 100 100 100 100 100

GFSSGP_prec_cloud_057.txt.gz
Cloud_Cover
0 0 5 0 2 3 5 0 0 0 0 0 0 0 0 0 5 39 87 100 100 100 76 3 19 58 13 100 100 96 100 100 100 100 100 100 100 100 100 13 7 100 39 2 47 100 100 77 0
0 1 63 39 14 17 2 0 0 0 0 0 0 4 10 0 6 4 86 75 97 59 0 52 44 68 99 100 100 100 100 100 100 100 100 100 100 100 100 91 2 2 8 96 100 100 46 4 0
13 15 70 20 3 0 0 0 0 0 0 0 37 32 5 57 100 19 51 11 28 58 68 5 38 99 100 100 100 100 100 100 100 100 100 100 100 100 100 100 100 100 100 99 100 96 5 1 4
7 8 56 6 5 2 0 0 0 0 0 0 0 0 2 79 97 100 100 100 14 82 97 66 5 100 100 100 100 100 100 100 100 100 100 100 100 100 100 78 97 100 87 40 100 44 4 4 2
2 2 10 48 0 0 0 0 0 0 0 0 5 2 27 15 56 99 97 92 80 19 57 9 100 100 100 100 100 100 100 100 100 100 100 100 100 100 100 95 100 68 25 100 85 44 1 5 5
0 0 3 0 0 0 0 0 0 0 4 4 0 0 2 1 92 100 100 100 100 94 94 67 100 100 100 100 100 100 100 100 100 100 98 100 100 97 94 98 100 93 92 55 6 6 5 5 5
5 5 5 0 0 0 0 0 0 0 2 91 100 100 90 100 100 100 100 99 100 100 93 78 100 100 100 100 100 100 100 100 100 100 100 100 100 80 98 97 52 5 5 32 34 5 64 6 5
5 14 5 2 5 0 0 3 5 3 84 100 91 100 100 100 100 100 100 100 100 100 100 100 100 100 100 100 100 100 100 100 100 100 100 100 99 100 100 95 76 10 5 8 42 52 98 27 94
100 50 9 5 0 0 2 37 2 89 100 89 100 100 100 100 100 100 100 100 100 100 100 100 100 100 100 100 100 100 100 100 100 100 100 100 100 81 15 76 85 98 100 91 100 100 100 5 20
100 46 3 0 0 0 0 5 12 100 100 64 100 96 100 100 100 100 100 100 100 100 100 100 100 100 100 100 100 100 100 100 100 99 100 100 100 100 100 71 96 100 100 87 81 100 100 97 28
47 10 0 0 0 0 0 0 85 100 100 100 85 100 100 100 100 100 100 100 100 100 100 100 100 100 100 100 100 100 100 100 100 100 100 100 100 100 100 68 100 65 99 89 98 100 100 88 91
5 0 3 2 0 0 0 1 100 100 99 97 30 99 100 100 100 100 100 100 100 100 100 100 100 100 100 100 100 100 100 100 100 100 100 100 100 100 100 100 100 100 99 94 96 96 100 100 100
3 0 44 0 0 0 5 3 100 100 55 80 72 96 100 100 100 100 100 100 100 100 100 100 100 100 100 100 100 100 100 100 100 100 100 100 98 100 100 100 73 96 90 96 100 100 100 100 88
0 14 22 0 0 0 39 5 100 98 32 39 25 47 100 100 100 100 100 100 100 100 100 100 100 100 100 100 100 100 100 100 100 100 99 100 100 100 100 100 100 100 100 100 100 100 100 100 100
1 0 0 3 2 0 0 4 100 100 57 97 77 98 88 100 100 100 100 100 100 100 100 100 100 100 100 100 100 100 100 100 100 100 100 100 96 100 100 100 100 100 100 100 100 92 100 100 99
4 0 0 3 5 2 0 0 0 96 100 100 100 100 100 100 100 100 100 100 100 100 100 100 100 100 100 100 100 100 100 100 100 100 100 100 100 100 100 100 100 100 100 100 100 100 100 100 100
12 2 1 5 5 1 0 0 0 36 71 87 56 57 88 100 100 100 100 100 100 100 100 100 100 100 100 100 100 100 100 100 100 100 100 100 100 100 100 100 100 100 99 100 100 100 97 100 100
5 2 0 1 1 0 0 0 0 0 4 12 26 49 60 55 61 100 100 100 100 100 100 100 100 100 100 100 100 100 100 100 100 100 100 100 100 100 100 100 100 100 100 100 100 100 100 100 100
5 0 5 5 0 0 0 0 0 0 0 18 72 62 40 25 1 19 83 100 100 100 99 31 100 100 100 100 100 100 100 100 100 100 100 100 100 100 100 100 100 100 100 100 100 100 100 100 100
5 5 5 29 16 0 2 9 0 0 0 0 36 78 5 23 99 87 100 100 100 100 100 100 90 100 100 100 100 100 100 100 100 100 100 100 100 100 100 100 100 100 100 100 100 100 100 100 100
6 5 18 5 50 5 4 0 0 0 5 0 1 4 5 4 77 100 100 97 100 100 100 100 92 100 100 100 100 100 100 100 100 100 100 100 98 100 100 100 97 100 100 100 100 100 100 100 100
11 5 5 5 5 5 32 4 0 0 0 0 0 0 0 0 0 42 95 100 33 100 100 100 100 59 100 100 100 100 100 100 100 100 100 100 100 100 100 100 100 100 100 100 100 100 100 100 100
96 100 7 5 5 9 96 11 0 0 0 0 1 1 8 5 0 9 49 99 80 81 61 82 100 99 100 100 100 100 100 100 100 100 100 100 100 100 100 100 100 100 100 100 100 100 100 100 100
66 100 93 5 5 34 58 77 22 1 2 3 2 3 6 5 2 4 1 48 100 87 31 30 53 97 100 100 95 100 100 100 100 100 100 100 100 100 100 100 100 100 100 100 100 100 100 100 100
100 100 100 7 98 74 24 56 79 11 2 0 5 0 0 0 0 0 0 5 51 100 79 30 6 9 7 46 96 100 100 100 100 100 100 100 100 100 100 100 100 100 100 100 100 100 100 100 100
90 99 100 40 98 84 95 100 22 55 14 5 0 0 0 0 0 0 0 0 5 43 100 98 27 5 14 45 25 22 75 86 100 100 100 100 100 100 100 100 100 100 79 100 93 100 100 100 100
83 88 58 8 99 89 52 100 8 98 90 5 3 0 0 0 1 0 0 0 2 5 30 92 100 100 66 37 16 100 57 52 99 97 70 79 99 100 98 100 100 93 46 76 98 100 92 99 100
36 100 31 67 100 100 21 88 100 35 96 45 5 1 0 0 0 1 4 0 13 54 6 13 66 92 100 100 100 100 100 100 100 99 84 90 100 98 100 100 100 100 100 100 82 75 97 65 79
33 100 100 100 99 100 16 89 100 36 5 82 76 17 1 1 0 0 0 0 0 5 15 72 68 16 52 100 100 100 81 80 96 91 86 100 100 100 100 100 100 100 100 100 100 49 58 72 100
88 74 100 100 100 94 5 64 98 49 12 5 24 65 24 5 4 0 0 0 0 0 0 5 98 100 86 99 85 100 100 77 99 100 100 100 100 100 100 100 100 100 100 100 100 100 100 100 100

GFSSGP_prec_cloud_060.txt.gz
Cloud_Cover
0 0 0 5 14 0 1 0 5 4 0 0 0 0 0 0 0 0 45 100 100 66 40 20 95 88 98 100 21 9 36 100 100 39 100 100 99 26 36 100 100 100 100 61 6 12 5 14 7
0 0 0 0 8 6 8 18 5 0 0 0 0 0 0 0 0 32 34 56 99 97 90 25 100 56 96 38 4 5 5 100 100 100 100 100 100 100 100 100 100 100 100 100 34 8 10 70 100
0 0 0 0 1 69 17 5 5 1 0 0 0 0 0 0 4 56 99 65 100 99 98 80 36 94 47 3 5 6 77 100 100 99 100 100 100 100 100 100 100 100 90 47 47 80 100 100 33
0 0 0 0 0 0 0 0 0 0 0 0 0 0 0 0 3 5 9 100 100 100 100 100 100 100 54 76 79 75 96 100 100 100 100 100 100 100 100 100 100 41 68 21 100 100 74 4 2
0 0 0 0 0 0 0 0 0 0 0 0 1 55 36 0 1 9 100 100 95 91 96 43 31 30 6 44 100 100 98 100 100 100 100 100 100 100 100 100 100 100 98 99 92 6 9 5 3
0 0 0 0 0 1 0 0 0 0 0 0 14 20 99 55 1 73 71 64 98 68 5 23 40 60 4 100 100 100 100 100 100 100 100 100 100 100 100 100 100 100 100 46 32 13 7 80 55
5 5 1 3 5 5 2 0 0 0 0 45 100 49 74 100 100 100 100 100 99 88 61 99 3 24 58 100 100 100 100 100 100 100 100 100 100 100 82 100 99 100 92 73 6 12 6 52 18
5 5 11 54 5 5 0 0 0 0 5 100 99 49 100 98 100 100 100 100 100 100 49 98 100 100 100 100 100 100 100 100 100 100 100 100 100 100 100 86 100 78 10 12 5 5 8 5 14
9 7 47 36 8 0 0 0 0 0 9 100 8 81 100 100 100 100 100 100 100 100 100 100 100 100 100 100 100 100 100 100 100 100 100 100 100 100 8 37 100 100 73 92 92 96 99 100 100
8 7 49 5 1 0 0 0 0 0 69 60 93 95 100 100 100 100 100 100 100 100 100 100 100 100 100 100 100 100 100 100 100 100 100 100 100 93 100 62 54 62 94 82 73 63 100 100 100
8 4 31 5 0 0 0 0 0 9 100 44 99 96 100 100 100 100 100 100 100 100 100 100 100 100 100 100 100 100 100 100 100 100 100 100 100 100 100 96 75 100 96 100 100 90 73 100 100
22 0 4 0 0 0 0 0 0 86 96 71 99 97 100 100 100 100 100 100 100 100 100 100 100 100 100 100 100 100 100 100 100 100 100 100 100 100 100 100 63 69 68 100 91 56 84 99 97
0 0 0 0 0 0 0 0 6 100 100 98 33 71 100 100 100 100 100 100 100 100 100 100 100 100 100 100 100 100 100 100 100 100 100 100 100 100 100 100 99 84 95 99 99 63 80 94 100
0 5 3 0 0 0 0 0 1 41 99 76 99 100 100 100 100 100 100 100 100 100 100 100 100 100 100 100 100 100 100 100 100 100 100 100 100 100 100 96 100 99 88 87 96 88 73 91 97
5 5 4 0 0 0 0 0 0 0 12 90 89 53 94 100 100 100 100 100 100 100 100 100 100 100 100 100 100 100 100 100 100 100 100 100 100 99 100 100 100 100 100 100 100 100 100 100 100
21 10 5 0 0 0 0 0 0 0 33 31 44 100 100 100 100 100 100 100 100 100 100 100 100 100 100 100 100 100 100 100 100 100 100 100 100 100 100 100 100 100 100 100 100 100 100 100 100
81 6 5 5 0 0 0 0 0 1 13 5 33 81 100 99 100 100 100 100 100 100 100 100 100 100 100 100 100 100 100 100 100 100 100 100 100 100 100 100 100 100 100 100 100 100 100 100 100
88 6 9 13 0 0 0 0 0 6 27 1 3 47 96 68 93 100 100 100 100 100 100 100 100 100 100 100 100 100 100 100 100 100 100 100 100 100 100 100 100 100 100 100 100 100 100 100 100
26 5 7 31 5 2 5 0 0 0 9 0 0 92 100 40 19 70 100 100 100 100 100 100 100 100 100 100 100 100 100 90 100 100 100 100 100 100 100 100 100 100 100 100 100 100 100 100 100
13 26 31 5 5 5 1 4 0 0 0 0 2 3 38 60 100 97 100 100 100 100 100 100 100 100 100 100 100 100 100 100 100 100 100 100 100 100 100 100 100 100 100 100 100 100 100 100 100
61 94 45 5 58 5 5 5 1 0 0 0 0 0 0 6 100 100 100 100 100 91 100 100 100 100 100 100 100 100 100 100 100 100 100 100 100 100 100 100 100 100 100 100 100 100 100 100 100
8 99 68 7 22 88 5 25 5 4 0 0 0 0 0 0 46 100 100 100 100 42 82 100 98 100 100 100 100 100 100 100 100 100 100 100 100 100 100 100 100 100 100 100 100 100 100 100 100
98 44 74 7 79 51 100 5 5 5 2 0 0 0 0 0 2 96 100 99 100 100 70 100 99 98 100 100 98 100 100 100 100 100 100 100 100 100 100 100 100 100 100 100 100 100 100 100 100
89 79 77 5 75 100 100 33 6 7 5 2 0 0 2 0 0 6 25 20 92 100 100 100 98 98 99 68 55 98 99 100 100 100 100 100 100 100 100 100 100 100 100 100 100 100 95 99 100
6 56 12 5 98 100 100 85 95 5 6 5 4 0 0 0 0 8 54 64 44 71 100 99 69 89 87 46 94 95 96 100 100 100 100 100 100 100 100 100 100 100 100 100 99 100 100 100 100
92 64 98 99 91 100 100 100 100 64 5 5 5 4 0 0 0 0 0 2 1 6 89 100 99 56 2 6 32 72 100 100 100 100 100 100 100 100 100 100 100 100 89 56 81 100 100 88 77
38 67 94 19 71 100 95 100 100 100 5 10 5 16 7 0 0 0 0 0 0 0 1 16 76 76 40 5 5 5 5 5 5 5 6 5 47 5 5 38 8 9 30 16 45 98 100 83 64
88 95 100 38 59 100 70 100 100 100 74 5 9 5 5 5 0 0 0 0 0 0 3 85 20 5 68 100 100 99 95 12 5 28 70 100 52 13 44 40 62 69 48 44 92 78 93 79 96
96 58 96 22 13 38 100 100 100 100 100 96 5 5 5 34 17 5 0 0 0 10 2 5 5 5 48 5 28 98 100 100 99 100 89 100 96 96 86 88 99 92 100 100 100 100 100 100 98
96 65 100 100 18 54 100 100 100 100 99 100 100 26 5 5 5 5 12 0 0 0 0 0 3 5 34 86 42 69 80 92 100 100 62 79 99 96 100 67 100 100 100 100 100 100 100 100 100

GFSSGP_prec_cloud_063.txt.gz
Cloud_Cover
0 0 0 0 0 0 0 0 1 4 0 0 0 0 0 0 0 0 3 100 62 78 36 5 61 44 41 100 97 42 92 6 100 99 100 100 100 26 93 100 100 100 100 100 95 12 5 100 15
0 0 0 0 0 0 0 0 0 4 5 4 0 0 0 0 0 4 83 100 45 35 30 87 50 5 5 99 84 95 51 27 3 98 100 92 100 97 100 100 100 100 99 61 7 51 92 28 3
0 0 0 0 0 0 0 0 0 0 0 0 0 0 0 0 0 13 1 100 98 31 29 67 3 50 0 80 83 45 27 57 5 86 100 100 100 93 100 100 100 100 14 78 73 19 6 51 85
0 0 0 0 0 1 0 0 0 0 0 0 0 0 0 0 0 0 10 100 100 100 82 50 98 69 84 100 37 100 100 94 6 88 100 100 98 100 100 100 100 76 99 99 77 7 93 34 5
0 0 0 0 2 1 0 0 0 0 0 0 0 0 0 0 3 38 21 98 100 81 66 35 89 100 100 54 42 100 100 7 64 84 100 98 100 100 100 100 100 100 100 100 66 80 21 28 8
0 0 0 5 0 3 0 0 0 0 0 0 0 1 4 10 36 96 45 56 100 100 52 53 6 64 97 100 100 56 74 90 100 100 100 100 100 100 100 100 100 100 100 98 61 100 28 18 20
0 2 0 0 5 4 0 0 0 0 0 0 5 5 75 16 100 100 100 94 100 100 97 100 14 33 100 100 26 70 95 100 100 100 100 100 100 100 100 100 100 100 100 100 100 99 58 18 4
0 5 7 5 5 0 0 0 0 0 0 4 5 9 86 76 98 96 100 86 100 100 100 36 100 98 94 64 100 98 100 100 100 100 100 100 100 100 100 100 100 100 100 100 98 71 44 79 10
0 0 67 5 5 0 0 0 0 0 0 5 5 37 31 100 100 100 100 100 100 100 99 98 100 100 100 100 100 100 100 100 100 100 100 100 100 100 100 100 100 85 35 42 100 83 99 91 100
0 0 3 5 3 0 0 0 0 0 0 5 5 99 100 100 100 100 100 100 100 100 100 100 100 97 100 100 100 100 100 100 100 100 100 100 100 100 100 100 62 60 52 9 50 72 97 100 100
0 0 6 0 0 0 0 0 0 0 3 5 5 56 100 100 100 100 100 100 100 100 100 100 100 100 100 100 100 100 100 100 100 100 100 100 100 100 100 95 93 77 71 98 92 56 60 100 98
0 0 4 0 0 0 0 0 0 4 5 5 5 26 100 100 100 100 100 100 100 100 100 100 100 100 100 100 100 100 100 100 100 100 100 100 100 100 100 94 76 90 30 83 34 91 90 100 85
0 0 0 0 3 0 0 0 0 5 0 5 5 20 100 100 100 100 100 100 100 100 100 100 100 100 100 100 100 100 100 100 100 100 100 100 100 100 100 100 100 60 99 100 78 82 84 87 99
0 0 0 2 0 0 0 0 0 0 0 38 53 53 100 100 100 100 100 100 100 100 100 100 100 100 100 100 100 100 100 100 100 100 100 100 100 100 100 100 99 76 90 62 100 95 67 91 96
0 1 0 5 3 0 0 0 0 0 0 91 100 82 100 100 100 100 100 100 100 100 100 100 100 100 100 100 100 100 100 100 100 100 100 100 100 100 100 100 97 92 100 100 93 90 100 100 100
5 5 5 5 5 0 0 0 0 0 0 84 100 100 67 100 100 100 100 100 100 100 100 100 100 100 100 100 100 100 100 100 100 100 100 100 100 100 100 100 89 100 99 100 100 100 100 100 100
25 76 5 5 26 3 0 0 0 0 0 0 23 98 72 98 100 100 100 100 100 100 100 100 100 100 100 100 100 100 100 100 100 100 100 100 100 100 100 100 100 100 100 100 100 100 100 100 100
69 12 5 35 8 46 0 0 0 0 0 0 0 39 100 100 100 100 100 100 100 100 100 100 100 100 100 100 100 100 100 100 100 100 100 100 100 100 100 100 100 100 95 100 100 100 100 100 100
4 6 20 68 34 72 3 4 0 0 0 0 0 0 96 100 52 100 100 100 100 100 100 100 100 100 100 100 100 100 100 100 100 100 100 100 100 100 100 100 100 100 100 100 100 100 100 100 100
5 5 16 62 54 26 4 5 5 0 0 0 0 0 13 100 96 98 100 100 100 100 100 100 100 100 100 100 100 100 100 86 100 100 100 100 100 100 100 100 100 100 100 100 100 100 100 100 100
33 87 64 43 91 68 5 5 5 5 0 0 0 0 0 9 98 73 70 100 100 100 100 100 100 100 100 100 100 100 100 100 100 100 100 100 100 100 100 100 100 100 100 100 100 100 100 100 100
0 20 64 97 82 41 4 5 4 5 5 2 0 0 0 0 6 28 68 100 100 81 100 100 100 100 100 98 88 100 100 100 100 100 100 100 100 100 100 100 100 100 100 100 100 100 100 100 100
23 99 44 59 74 80 4 5 75 4 5 0 0 0 0 0 0 0 0 4 51 100 64 55 100 100 100 100 100 100 100 100 100 100 100 100 100 100 100 100 100 100 100 100 100 100 100 100 100
97 34 67 5 63 99 35 26 85 5 5 5 5 0 0 0 0 0 0 0 23 87 75 56 98 100 100 100 100 100 100 100 100 100 100 100 100 100 100 100 100 100 100 100 100 100 91 100 94
97 5 10 5 67 99 34 100 57 5 5 5 5 4 1 0 0 2 41 35 46 98 60 83 22 58 100 100 100 100 100 100 100 100 100 100 100 100 100 100 100 100 100 100 100 100 100 100 100
98 5 5 5 86 100 61 100 98 5 5 11 6 5 5 0 0 0 0 2 14 97 29 54 46 90 100 87 23 47 84 98 100 100 100 100 100 100 100 100 100 100 100 100 100 100 100 100 100
55 4 8 8 5 15 82 100 100 45 18 44 5 5 5 5 5 5 5 0 0 1 18 25 97 100 100 99 6 5 5 30 92 97 99 95 98 100 100 100 100 100 100 99 95 77 89 93 80
100 93 53 40 71 100 82 100 100 100 49 96 67 6 25 5 6 40 6 4 0 0 0 14 4 3 85 100 60 5 1 4 5 5 5 5 5 5 15 78 98 85 77 60 48 70 99 100 95
100 100 84 13 94 90 85 99 100 89 100 100 100 81 5 5 5 5 5 5 5 0 0 0 0 5 1 0 1 41 41 81 83 74 95 30 50 53 79 24 14 67 100 100 87 56 100 100 100
99 85 96 82 58 93 99 100 100 79 100 100 100 88 5 5 23 5 5 5 5 0 0 0 0 0 4 5 5 5 40 48 100 100 100 100 92 96 56 68 87 100 76 100 100 100 100 100 100

GFSSGP_prec_cloud_066.txt.gz
Cloud_Cover
0 0 0 0 0 0 0 0 0 0 0 0 0 0 0 0 0 2 0 8 45 67 97 1 18 89 97 12 4 99 100 98 92 94 21 11 93 75 98 99 94 44 100 100 100 100 97 44 15
0 0 0 0 0 0 0 0 0 0 0 0 0 0 0 0 0 0 0 30 74 96 86 18 3 0 22 13 12 100 100 100 42 7 50 92 99 59 100 92 18 62 100 100 78 67 51 59 7
0 0 0 0 0 0 0 0 0 0 0 0 0 0 0 0 0 0 1 36 53 77 86 83 14 12 99 29 7 67 78 100 100 66 45 100 100 100 45 84 37 100 100 5 5 42 50 17 3
0 0 0 0 0 0 0 0 0 0 0 0 0 0 0 0 0 0 0 21 86 98 88 96 4 72 90 100 33 66 98 98 28 5 64 100 100 100 99 99 82 100 71 11 2 35 5 3 10
0 0 0 0 0 0 0 0 0 0 0 0 0 2 0 0 0 0 21 44 70 89 72 93 24 99 100 100 100 100 63 72 94 86 5 100 100 100 95 99 100 99 25 100 13 26 32 70 5
0 0 0 0 4 5 0 0 0 0 0 0 0 0 0 0 0 17 100 66 98 98 17 100 90 100 100 100 100 65 74 49 59 97 39 100 100 98 100 100 100 86 100 100 100 98 100 89 84
0 0 0 0 5 5 5 3 0 0 0 0 0 0 0 0 0 99 99 34 100 99 79 100 100 100 100 100 100 100 93 60 100 73 44 80 100 100 86 100 100 100 100 100 100 100 100 80 74
0 0 0 0 0 0 4 0 0 0 0 0 0 0 31 0 16 24 97 22 100 99 100 100 100 100 99 100 71 100 100 100 100 100 100 93 100 100 100 100 100 100 100 100 100 100 100 100 99
0 0 0 0 0 1 0 0 0 0 0 0 0 0 36 1 41 100 100 100 48 100 99 100 100 100 75 59 96 100 100 100 100 100 100 100 100 100 100 100 100 100 100 100 76 32 100 100 82
0 0 0 0 2 3 0 0 0 0 0 0 0 0 69 44 96 92 100 100 98 100 100 100 100 96 53 97 76 100 100 100 100 100 100 100 100 100 100 100 100 100 100 100 53 83 64 100 99
1 0 0 0 5 5 0 0 0 0 0 5 2 0 5 96 99 98 100 100 100 100 100 100 100 100 75 100 100 100 100 100 100 100 100 100 100 100 100 100 100 100 100 84 9 5 23 71 94
1 0 0 0 5 5 0 0 0 0 2 4 0 1 5 98 100 100 100 100 100 100 99 100 100 100 100 100 100 100 100 100 100 100 100 100 100 100 100 100 100 86 74 65 5 7 45 100 100
5 0 0 0 0 0 0 0 0 0 4 0 0 1 7 77 100 100 100 100 100 100 100 100 100 100 100 100 100 100 100 100 100 100 100 100 100 100 100 100 100 100 22 88 40 77 83 100 100
13 1 0 0 0 0 0 0 0 0 0 0 0 3 42 62 100 100 100 100 100 100 100 100 100 100 100 100 100 100 100 100 100 100 100 100 100 100 100 100 100 100 100 97 59 22 74 100 85
48 5 5 5 0 0 0 0 0 0 0 0 0 0 1 11 100 100 100 100 100 100 100 100 100 100 100 100 100 100 100 100 100 100 100 100 100 100 100 100 100 100 100 76 96 52 76 73 75
11 5 5 9 3 0 0 0 4 0 0 0 0 0 0 20 100 100 100 100 100 100 100 100 100 100 100 100 100 100 100 100 100 100 100 100 100 100 100 98 95 95 85 55 99 100 63 58 17
28 17 20 11 5 1 4 0 0 0 0 0 0 0 1 5 71 100 100 98 100 100 100 100 100 100 100 100 100 100 100 100 100 100 100 100 100 100 100 100 100 99 100 100 99 95 73 96 100
61 99 5 11 15 5 5 3 0 0 0 0 0 0 0 0 2 100 51 100 100 100 100 100 100 100 100 100 100 100 100 100 100 100 98 100 100 100 100 100 100 100 100 100 100 100 100 100 100
100 19 8 19 5 5 5 5 0 0 0 0 0 0 0 0 0 65 100 100 100 100 100 100 100 100 100 100 100 100 100 100 100 100 100 100 100 100 100 100 100 100 100 100 100 100 100 100 100
96 19 90 60 5 19 5 24 7 2 0 0 0 0 0 0 0 0 84 100 100 100 100 100 100 100 100 100 100 100 97 100 100 100 100 100 100 100 100 100 100 100 100 100 100 100 100 100 100
99 40 8 66 95 74 56 16 56 5 2 0 0 0 0 0 0 0 0 81 99 100 100 100 100 100 100 100 100 100 100 100 100 100 100 100 100 100 100 100 100 100 100 100 100 100 100 100 100
100 70 5 12 99 100 39 5 100 5 5 0 0 0 0 0 0 0 0 0 70 100 100 100 100 100 100 100 100 100 100 100 78 92 100 100 100 100 100 100 100 100 100 100 100 100 100 100 100
100 100 22 14 99 100 10 18 79 5 5 2 0 0 0 0 0 0 0 0 0 26 100 100 100 100 100 100 91 88 100 100 100 100 100 100 100 100 100 100 100 100 100 100 100 100 100 100 100
100 100 91 14 6 68 19 35 7 12 9 5 5 0 0 0 0 0 0 0 0 4 35 99 100 100 100 100 100 100 100 100 100 100 100 100 100 100 100 100 100 100 100 100 100 100 100 100 100
100 98 98 34 5 99 23 92 48 40 5 7 5 5 0 0 0 0 0 0 0 0 10 95 97 100 100 100 100 100 100 97 100 100 100 100 100 100 100 100 100 100 100 100 100 100 100 100 100
100 100 94 63 16 31 26 99 10 99 5 5 5 5 4 0 0 2 0 0 0 0 0 25 26 53 100 100 100 92 69 100 100 100 100 100 100 100 100 100 100 100 100 100 100 100 100 100 100
100 100 96 27 12 47 78 100 100 100 100 100 16 5 5 5 0 0 0 0 0 0 0 0 0 0 36 88 97 100 100 100 100 100 100 100 100 100 100 100 100 100 100 100 100 100 100 100 100
98 100 64 22 95 99 100 100 100 73 4 100 99 4 7 39 5 0 1 4 3 0 0 0 0 0 2 20 94 100 94 59 31 86 97 100 100 100 100 100 100 100 100 100 100 100 100 66 22
100 100 99 89 97 100 100 100 100 95 10 86 100 100 72 100 25 2 0 0 2 1 0 0 0 0 0 0 33 88 100 94 25 16 27 5 12 22 35 25 78 99 60 69 89 20 71 85 100
100 100 100 100 98 41 79 98 100 100 99 86 100 100 100 99 25 99 7 4 0 0 0 0 0 0 0 0 0 1 21 20 18 55 14 45 65 99 50 94 98 100 100 69 89 97 60 40 98

GFSSGP_prec_cloud_069.txt.gz
Cloud_Cover
0 0 0 0 0 0 0 0 0 0 0 0 0 0 1 0 0 30 3 3 0 0 26 1 0 0 7 20 17 9 1 5 58 53 6 88 44 5 5 6 71 100 72 77 69 89 99 100 96
0 0 0 0 0 0 32 0 0 0 0 0 0 0 0 11 4 1 0 0 0 0 50 4 0 0 0 5 14 23 0 6 100 99 13 81 92 5 5 5 100 98 50 47 94 100 100 100 100
0 0 0 0 0 0 4 0 0 0 0 0 0 2 0 2 3 0 0 0 1 8 69 95 0 0 0 0 3 2 4 7 100 97 78 68 25 5 5 8 91 88 5 96 100 100 100 100 90
0 0 0 0 0 3 0 0 0 0 2 0 0 0 62 2 0 0 0 0 9 33 78 15 0 0 21 4 33 32 34 5 100 100 100 93 13 41 35 40 70 23 28 100 100 89 36 5 5
1 1 0 0 0 0 0 0 0 0 0 1 0 2 85 17 0 0 0 0 40 42 60 79 54 23 74 100 100 100 100 100 100 100 89 70 98 100 25 96 36 5 79 100 100 84 17 42 6
49 10 3 5 1 3 0 0 0 0 0 0 1 4 9 0 0 0 0 26 92 16 40 84 92 100 100 100 89 100 100 100 100 100 100 100 100 98 100 100 96 5 7 100 100 100 100 97 15
4 36 34 3 0 0 0 0 0 0 1 25 74 2 2 2 0 0 1 82 58 39 92 100 92 100 10 100 100 100 100 100 100 100 100 100 100 99 100 100 91 14 76 100 100 100 100 100 100
5 8 9 3 0 0 3 0 0 0 0 0 0 1 23 12 0 3 31 70 8 87 100 100 100 74 100 100 100 100 100 100 100 100 99 100 71 98 100 100 34 99 100 100 100 100 100 100 67
0 3 2 0 3 0 0 0 0 0 0 0 0 0 0 0 1 100 63 86 59 99 100 100 100 100 88 100 100 100 100 100 100 100 100 90 82 100 100 94 20 80 100 98 100 100 100 100 100
0 0 0 0 0 0 0 0 0 0 0 5 6 3 0 0 74 77 73 70 100 98 99 100 100 100 92 100 100 100 100 100 100 100 95 100 90 89 100 99 92 100 100 100 100 100 98 15 100
0 0 0 0 3 0 0 0 0 0 0 5 7 14 0 0 37 47 97 100 100 100 100 100 100 100 100 100 100 100 100 100 100 100 100 100 100 100 100 100 100 100 100 100 100 100 100 98 26
0 0 0 3 0 0 0 0 0 0 0 0 0 0 0 0 5 5 96 97 100 100 100 100 100 97 87 100 100 100 100 100 100 100 100 100 100 100 100 100 100 100 100 100 100 100 100 100 10
3 1 0 3 3 1 0 0 0 0 0 3 0 0 0 0 5 5 20 100 99 100 100 99 100 100 97 88 100 100 100 100 100 100 100 100 100 100 100 100 100 100 100 100 100 100 54 21 87
82 0 0 5 1 5 0 0 0 0 0 0 0 0 0 1 5 41 59 100 100 100 100 100 100 100 100 100 100 100 100 100 100 100 100 100 100 100 100 100 100 100 100 100 88 70 75 94 98
98 2 3 2 1 4 0 1 0 0 0 0 0 0 0 0 4 30 49 100 98 100 100 100 100 100 100 100 99 100 100 100 100 100 100 100 100 100 100 100 100 100 100 100 100 98 98 95 99
100 5 2 5 5 4 3 4 0 0 0 0 0 0 0 0 4 32 95 93 100 100 100 100 100 100 100 100 100 100 100 100 100 100 100 100 100 100 100 100 100 100 100 100 100 100 100 87 82
100 84 5 5 6 5 5 5 2 0 0 0 0 0 0 0 0 7 51 40 95 98 100 100 100 100 100 100 100 100 100 100 100 100 100 100 100 100 100 100 100 100 100 100 95 99 80 94 26
100 98 11 98 100 5 14 36 2 4 0 0 0 0 0 0 0 11 91 100 99 83 100 100 100 100 100 100 100 100 100 100 100 100 100 100 100 100 100 100 100 100 100 93 100 100 99 100 92
97 54 96 100 100 14 62 9 7 5 5 0 0 0 0 0 0 0 3 100 96 91 100 100 100 100 100 100 100 100 100 100 100 100 100 100 100 100 100 100 100 100 100 100 100 100 100 100 100
100 13 100 98 82 38 38 12 45 4 6 5 4 2 0 0 0 0 0 36 100 99 94 100 100 100 100 100 100 100 100 100 100 100 100 100 100 100 100 100 100 100 100 100 100 100 100 100 100
63 68 100 100 100 71 5 26 7 5 11 5 0 0 3 0 0 0 0 0 45 100 100 100 100 99 100 100 100 100 100 100 100 100 100 100 100 100 100 90 100 100 100 100 100 100 100 100 100
53 100 100 100 75 83 93 86 76 29 76 26 4 0 0 0 0 0 0 0 0 87 100 100 98 100 99 100 98 100 100 100 92 100 100 100 100 100 100 95 100 100 100 100 100 100 100 100 100
100 100 100 100 70 100 100 49 100 30 9 5 5 5 0 0 0 0 0 0 0 19 100 100 100 100 100 100 100 100 100 100 100 100 100 100 100 100 100 100 100 100 100 100 100 100 100 100 100
100 100 100 65 99 100 100 11 100 96 96 6 5 5 2 0 0 0 0 0 0 8 84 100 100 100 100 100 100 100 100 99 100 100 100 100 100 100 100 100 100 100 100 100 100 100 100 100 100
94 100 100 97 100 100 95 18 5 97 10 5 5 5 1 0 0 0 0 0 0 0 15 80 100 100 100 100 100 98 85 99 99 100 100 100 99 100 93 100 100 100 100 100 100 100 100 100 100
100 100 100 100 100 100 98 65 33 90 35 5 5 5 4 0 3 2 1 0 0 0 0 5 44 100 100 100 99 100 97 95 100 99 98 90 100 100 100 100 100 100 100 100 100 100 100 100 100
100 68 100 100 100 100 100 22 8 91 100 60 5 5 5 5 0 1 0 0 0 0 0 0 0 8 89 77 100 100 100 95 98 100 97 94 89 100 100 100 100 100 94 66 99 100 100 100 100
100 100 100 97 100 100 100 100 100 82 100 100 100 100 94 68 10 1 4 0 0 0 0 0 0 0 3 84 50 82 75 61 100 87 72 100 100 100 100 100 100 100 100 100 100 100 100 100 100
100 100 100 100 100 100 100 100 100 60 100 90 82 71 19 100 94 1 100 52 0 0 0 0 0 0 0 0 28 77 66 100 100 98 24 6 18 90 100 100 100 100 100 100 100 100 100 100 100
100 100 100 100 100 100 100 100 100 37 90 96 43 5 0 94 100 100 100 3 98 100 1 0 0 0 0 0 0 13 26 55 44 7 36 81 34 5 9 18 27 97 99 63 99 96 99 100 96

GFSSGP_prec_cloud_072.txt.gz
Cloud_Cover
0 0 0 0 0 0 0 13 5 0 0 0 0 0 0 0 0 1 0 1 4 0 0 0 0 0 2 9 40 8 94 5 4 10 5 5 4 7 59 36 96 4 5 63 14 83 90 74 66
0 0 0 0 0 0 12 98 7 0 0 0 0 0 0 9 20 4 0 0 0 1 0 0 0 0 0 100 96 26 5 1 0 2 18 46 5 82 100 100 42 0 5 5 100 93 48 98 100
0 0 0 0 0 0 0 82 0 0 0 0 0 0 0 1 1 1 0 0 0 0 0 0 0 0 15 62 77 100 5 0 26 63 100 100 100 91 100 92 5 4 11 38 94 62 94 99 100
0 0 0 0 0 1 14 1 0 0 0 0 0 0 9 7 4 0 0 0 0 0 0 31 0 0 0 0 36 83 5 36 100 100 100 100 100 100 100 100 6 10 20 89 88 100 16 39 53
0 0 0 0 0 0 2 0 0 0 0 0 0 0 1 5 2 0 0 0 0 0 45 0 0 0 1 0 50 100 100 100 100 100 100 100 100 100 100 100 100 81 100 100 88 48 87 8 35
0 0 0 0 0 27 99 5 0 0 0 0 0 8 25 4 0 0 0 0 0 18 2 0 3 66 33 3 67 100 100 100 100 100 100 100 100 100 100 100 100 95 98 34 60 63 92 6 12
0 0 0 0 0 0 36 3 0 0 0 0 0 9 4 0 2 5 0 0 0 8 8 41 100 91 76 100 96 100 100 100 100 100 100 100 100 100 100 100 100 100 96 26 8 100 67 6 75
0 0 0 0 0 0 3 1 0 0 0 0 0 0 0 0 0 0 0 0 38 11 16 36 100 95 100 100 100 100 100 100 100 100 100 100 100 100 100 70 100 100 99 17 53 99 100 8 100
0 0 0 0 0 1 90 4 0 0 0 0 0 0 0 0 0 0 2 4 97 40 31 69 97 100 99 80 100 98 100 100 100 100 100 100 100 100 100 100 100 100 94 5 97 81 100 100 100
0 0 0 0 0 59 11 4 0 0 0 0 4 47 9 5 0 0 29 60 100 12 32 82 62 100 100 89 100 100 100 100 100 100 100 100 100 99 100 100 100 96 100 24 83 100 100 100 100
0 4 0 0 0 5 0 0 0 0 0 1 2 1 4 0 0 0 9 55 100 96 37 100 100 100 100 100 100 100 100 100 100 100 100 100 50 34 76 92 100 86 6 44 100 100 100 100 100
0 3 0 0 0 0 0 0 0 0 0 0 0 0 0 0 0 0 22 41 100 50 28 100 100 100 100 100 100 100 100 100 100 100 100 100 100 100 100 92 95 100 100 100 100 100 100 100 100
0 0 0 2 0 0 0 0 0 0 0 0 1 0 0 0 0 0 5 24 100 74 100 58 100 100 100 100 100 100 100 100 100 100 100 100 100 98 100 100 82 98 100 100 100 100 100 100 100
0 0 4 5 0 3 0 0 0 0 0 0 0 0 0 0 0 0 4 96 100 47 98 46 88 99 100 100 100 100 100 100 100 100 100 100 100 100 100 100 100 100 100 100 100 100 100 100 100
44 1 29 49 67 5 0 22 0 2 0 0 0 0 0 0 0 0 5 63 100 76 100 53 100 100 99 100 100 100 100 100 100 100 100 100 100 100 100 100 100 100 100 100 100 100 100 100 100
6 56 96 100 100 77 0 67 16 5 0 0 0 0 0 0 0 0 24 100 85 100 100 99 100 100 100 100 100 100 100 100 100 100 100 100 100 90 100 100 100 100 100 100 100 100 100 100 98
100 99 100 100 98 90 5 50 75 38 4 0 0 38 0 0 0 0 2 100 88 100 100 100 100 100 100 100 100 100 100 100 100 100 100 100 100 100 100 100 100 100 100 100 100 100 100 100 92
100 100 100 100 100 90 42 27 91 40 5 2 0 5 80 0 0 0 0 99 90 100 100 100 92 100 100 100 100 100 100 100 100 100 100 100 100 100 100 100 100 100 100 100 100 100 100 100 100
100 100 100 100 100 100 86 46 34 30 8 46 5 0 78 9 0 0 0 38 96 100 100 100 69 100 100 100 100 100 100 100 100 100 100 100 100 100 100 100 100 100 100 100 100 100 100 100 100
100 100 100 100 100 100 100 5 7 76 28 37 78 8 4 12 1 0 0 0 74 100 100 100 100 96 100 100 100 100 100 100 100 100 100 100 100 100 78 98 98 100 100 100 100 100 100 100 100
86 100 100 100 100 100 78 5 5 29 5 5 99 20 57 93 1 0 0 0 0 92 100 100 100 100 100 100 100 100 100 100 100 100 100 100 100 100 100 100 100 100 100 100 100 100 100 100 100
100 100 100 100 100 100 100 61 53 32 34 5 5 4 5 19 0 0 0 0 0 20 100 100 100 100 100 100 100 100 100 100 100 100 100 100 100 100 100 100 100 100 100 100 100 100 100 100 100
100 100 100 100 100 100 100 100 0 62 100 12 70 6 4 0 0 0 0 0 0 0 100 100 100 98 100 100 100 100 98 100 100 100 100 100 100 100 100 100 100 100 100 100 100 100 100 100 100
100 100 100 100 100 100 100 90 8 86 98 100 99 32 4 5 2 0 0 0 0 0 98 100 100 100 100 100 100 100 100 86 100 96 99 100 100 100 100 100 97 100 100 100 100 100 100 100 100
100 100 100 96 100 100 100 57 10 41 79 27 18 5 1 5 1 0 0 0 0 0 23 73 100 100 100 100 100 100 100 100 100 100 100 100 100 100 100 97 100 90 100 100 100 100 100 100 100
100 100 100 99 100 100 100 85 100 49 85 93 13 5 5 5 4 0 0 0 0 0 0 44 27 99 100 100 100 100 100 100 99 100 100 100 100 100 100 100 100 100 100 100 100 100 100 100 100
100 100 100 100 100 100 100 94 86 7 7 65 99 5 10 16 5 2 0 0 0 0 0 0 3 71 99 100 100 100 100 100 100 78 94 100 100 75 100 100 100 100 100 100 100 100 100 100 100
100 100 100 100 100 100 100 100 100 66 44 24 90 30 90 75 15 5 24 1 0 4 0 0 0 0 2 46 100 100 100 100 98 50 79 100 100 100 100 100 100 100 100 100 100 100 96 100 100
100 100 100 100 100 100 100 100 100 100 100 94 59 100 100 100 100 100 100 97 0 100 19 1 0 0 0 0 10 86 100 100 100 19 26 38 24 22 80 100 100 100 100 100 100 100 100 100 100
100 100 100 100 100 100 100 100 100 100 100 100 99 92 100 100 100 53 40 100 100 100 79 100 99 5 0 0 0 0 73 100 100 68 34 46 8 37 7 1 6 68 100 100 100 100 100 100 100

GFSSGP_prec_cloud_075.txt.gz
Cloud_Cover
0 0 0 0 0 0 0 0 0 0 0 0 0 0 0 0 0 0 0 0 0 0 0 10 0 0 0 0 0 0 36 96 28 93 5 5 5 5 5 5 6 6 100 100 90 99 98 5 5
0 0 0 0 0 0 0 0 0 2 0 0 0 0 0 0 0 0 0 0 0 0 0 9 0 0 0 0 50 10 1 18 74 5 15 5 5 5 5 34 97 100 100 98 100 91 10 5 70
0 0 0 0 0 0 0 0 0 0 0 0 0 0 0 0 0 0 0 0 0 0 0 0 0 3 0 0 0 58 65 7 25 33 2 12 5 5 5 47 100 100 99 99 70 48 5 5 41
0 0 0 0 0 0 0 0 0 0 0 0 0 0 0 0 0 0 0 0 0 0 0 0 0 5 11 0 0 42 12 46 98 84 99 50 99 100 5 78 100 100 100 71 40 3 5 47 12
0 0 0 0 0 0 0 0 0 0 0 0 0 0 0 0 0 0 0 0 0 0 0 0 0 0 0 0 25 98 100 99 100 100 88 100 100 100 81 90 100 98 99 64 76 56 6 90 86
0 0 0 0 0 0 0 0 0 19 0 0 0 0 0 0 0 0 0 0 0 0 0 0 0 0 0 0 51 87 100 100 99 100 100 100 100 100 100 100 100 100 100 100 100 100 98 90 41
0 0 0 0 0 0 0 0 0 0 0 0 0 0 0 0 0 0 0 0 0 0 0 19 7 5 24 80 16 100 100 100 100 100 100 100 100 100 100 100 100 100 100 100 100 100 100 25 91
0 0 0 0 0 0 0 0 0 0 0 0 0 0 0 0 0 0 0 0 0 0 0 83 99 36 50 100 97 100 100 100 100 100 100 100 100 100 100 100 100 100 100 100 100 100 90 100 7
0 0 0 0 0 0 0 1 8 5 1 0 0 0 0 0 0 0 0 0 0 4 4 0 54 100 62 100 100 99 100 100 100 100 100 100 100 100 100 97 100 100 100 100 100 91 95 23 88
0 0 0 0 0 0 0 4 7 4 0 0 0 0 0 0 0 0 0 0 0 2 14 3 0 99 100 100 100 98 100 100 100 100 100 100 100 100 100 100 100 100 98 100 92 100 88 100 100
0 0 0 0 0 0 0 0 2 5 0 0 0 0 0 0 0 0 0 0 1 87 5 5 16 100 100 100 100 100 100 100 100 100 100 100 100 100 100 60 100 100 100 100 97 91 46 100 100
0 0 0 0 0 0 0 0 0 0 0 0 0 0 0 0 0 0 0 0 1 42 75 62 70 100 100 100 100 100 100 100 100 100 100 100 100 100 100 72 54 48 83 100 100 92 100 100 100
5 4 0 0 0 0 0 0 0 0 0 0 0 0 0 0 0 0 0 0 9 82 94 5 73 100 100 100 100 100 100 100 100 100 100 100 100 100 100 100 98 74 18 100 100 66 100 100 100
0 0 0 0 2 2 2 1 4 4 0 2 0 0 0 0 0 0 0 0 0 47 100 13 21 100 100 100 100 100 100 100 100 100 100 100 100 100 100 85 97 63 17 69 59 79 98 100 100
2 5 4 0 5 4 5 2 5 60 5 3 0 0 0 0 0 0 0 0 0 96 100 100 63 96 100 100 100 100 100 100 100 100 100 100 100 100 100 100 82 56 61 93 98 98 100 100 100
0 0 5 47 31 100 100 1 100 7 5 4 0 0 0 0 0 0 0 0 1 35 100 100 89 100 100 100 100 100 100 100 100 100 100 100 100 100 100 100 98 61 86 99 100 100 100 100 100
42 1 4 72 100 100 72 60 100 7 4 1 0 0 0 0 0 0 0 0 0 22 100 100 95 100 100 100 100 100 100 100 100 100 100 100 100 100 100 93 100 100 100 100 100 100 100 100 100
5 45 56 85 100 100 67 51 100 81 44 3 0 0 0 0 0 0 0 0 1 87 100 66 100 98 100 100 100 100 100 100 100 100 100 100 100 100 100 100 100 100 94 99 84 100 100 100 100
98 99 45 100 100 38 93 100 100 95 95 5 0 5 1 0 0 0 0 0 19 100 100 100 100 100 98 100 100 100 100 100 100 100 100 100 100 100 100 100 100 60 100 100 100 100 100 100 100
12 23 27 100 100 100 63 100 99 72 100 5 5 46 4 0 0 0 0 0 3 63 100 100 100 100 99 84 99 100 100 100 100 100 100 100 100 100 100 100 100 100 100 99 97 100 100 100 100
64 100 100 96 100 100 100 100 50 100 98 19 5 5 5 5 1 0 0 0 10 62 96 100 100 100 99 100 100 100 100 100 100 100 100 100 100 100 100 100 100 100 100 100 100 100 100 100 100
88 69 100 100 100 91 66 100 12 82 93 5 11 5 5 5 5 0 0 0 0 1 80 100 100 100 76 99 100 100 100 100 100 100 100 100 100 100 100 100 100 100 100 100 100 100 100 100 100
90 100 85 91 64 7 42 86 97 93 13 11 21 52 9 5 34 0 0 0 0 0 88 100 100 100 100 100 100 100 100 100 100 100 100 100 100 100 100 100 100 100 100 100 100 100 100 100 100
100 100 98 100 100 12 100 100 100 78 4 22 6 99 66 5 7 5 0 0 0 0 80 67 100 100 100 100 100 100 100 100 100 100 100 100 100 100 100 100 100 100 100 100 100 100 94 96 100
100 100 100 100 100 93 100 100 100 10 5 28 82 82 14 11 5 5 2 0 0 0 48 100 100 100 97 100 100 100 100 100 100 100 100 100 100 100 100 100 100 100 100 100 100 100 100 99 100
100 100 99 100 100 100 100 41 100 14 5 56 98 46 5 5 5 5 5 0 0 0 0 100 100 99 100 100 100 100 100 100 100 100 100 100 100 100 100 100 98 100 100 100 100 100 100 97 100
100 100 100 100 100 100 100 96 93 41 34 5 99 5 22 35 88 5 5 3 0 0 0 14 96 100 100 100 100 100 100 100 100 100 100 100 100 100 100 100 100 100 100 100 100 100 100 100 100
100 100 100 100 100 100 100 100 77 73 25 5 35 23 34 85 6 10 5 5 1 11 1 0 0 12 59 98 100 100 100 100 100 100 100 100 100 100 98 100 100 100 100 100 100 100 100 100 100
100 100 100 100 100 100 100 100 100 100 100 95 100 100 59 30 5 5 70 70 100 100 5 29 12 55 9 0 66 100 100 100 100 100 82 94 100 100 92 100 98 100 100 100 100 100 100 100 100
100 100 100 100 100 100 100 100 100 100 100 100 60 100 44 97 20 6 97 100 98 66 100 100 100 100 100 36 0 2 88 100 100 100 100 5 1 0 1 2 1 5 37 100 100 100 100 92 84

GFSSGP_prec_cloud_081.txt.gz
Cloud_Cover
0 0 0 0 0 0 0 0 0 0 0 0 0 0 0 0 0 0 0 0 0 6 56 26 0 10 16 25 11 1 0 3 30 18 2 4 42 13 98 2 5 0 5 13 0 4 100 100 5
0 0 0 0 2 0 0 0 0 0 0 0 0 0 0 0 0 0 0 0 0 28 46 51 18 12 7 4 2 0 0 22 1 0 45 3 87 4 4 27 8 0 0 0 28 95 100 96 100
0 0 0 5 39 4 0 0 0 0 0 0 0 0 0 0 0 0 0 0 0 35 56 46 34 20 20 4 10 0 0 46 81 100 18 82 5 5 61 56 2 0 0 4 22 94 100 100 100
3 5 8 65 57 3 0 0 0 0 0 0 0 0 0 0 0 0 0 0 0 30 98 46 44 22 46 53 11 2 21 100 39 100 89 5 35 9 12 24 2 2 4 47 71 79 100 100 88
5 5 58 71 4 0 0 0 0 0 0 0 0 0 0 0 0 0 0 0 0 14 65 100 42 33 71 82 2 11 21 72 88 88 100 93 62 79 84 91 5 45 86 100 100 58 100 100 54
5 14 26 5 4 2 0 0 0 0 0 0 0 0 0 0 0 0 0 0 0 0 20 93 60 32 5 4 1 6 12 30 68 82 87 5 97 100 100 100 100 99 100 100 100 100 100 99 76
5 4 10 61 61 5 0 0 0 0 0 0 0 0 0 0 0 0 0 0 0 4 19 58 100 90 13 1 0 5 35 95 100 100 100 100 100 100 100 100 100 100 100 100 100 100 100 54 6
97 15 5 5 5 32 0 0 0 0 0 0 0 0 0 0 0 0 0 0 1 15 17 24 66 100 100 79 31 57 58 100 100 100 100 100 100 100 100 100 100 100 100 100 100 100 98 7 5
5 2 2 4 5 48 38 0 0 0 0 0 0 0 0 0 0 0 0 0 6 34 16 27 39 39 86 99 99 60 93 100 100 100 100 100 100 100 100 100 100 100 100 100 100 100 94 49 7
20 3 30 84 45 47 77 0 0 0 0 0 0 0 0 0 0 0 0 0 2 18 40 32 40 86 83 94 100 100 100 100 100 100 100 100 100 100 100 100 100 100 100 89 100 86 89 33 34
29 84 100 100 45 5 7 4 5 0 0 0 0 0 0 0 0 0 0 0 0 0 0 33 70 96 84 100 100 100 100 100 100 100 100 100 100 100 100 100 100 100 100 89 85 100 100 100 98
100 100 70 5 5 5 90 5 0 0 0 4 1 0 0 0 0 0 0 0 0 0 0 20 77 100 100 100 100 100 100 100 100 100 100 88 100 100 100 100 100 100 84 69 100 100 100 96 100
6 97 5 2 2 4 2 0 0 0 0 4 0 0 0 0 0 0 0 0 0 0 0 9 23 100 100 100 90 100 100 100 100 100 70 100 100 100 100 100 100 44 14 22 73 100 100 100 94
34 4 5 1 3 0 0 0 0 1 0 0 0 0 0 0 0 0 2 1 0 1 15 29 34 71 100 100 100 100 100 100 100 100 100 100 100 100 100 100 100 100 55 99 99 97 100 100 56
98 78 99 34 20 0 0 0 0 0 2 0 0 0 0 4 0 4 24 3 0 0 16 31 22 66 100 100 100 100 81 100 100 100 100 100 100 100 100 100 100 100 100 100 100 100 100 100 84
93 18 3 39 2 1 0 0 0 0 0 0 0 0 2 12 3 4 68 5 0 19 26 6 1 55 100 100 100 100 100 100 100 100 100 100 100 100 100 100 100 100 100 100 100 100 100 97 60
5 1 0 4 2 0 0 0 0 1 0 0 0 3 8 0 5 5 49 0 2 15 28 48 24 54 100 100 100 100 100 100 100 100 100 100 100 100 100 100 100 100 100 100 83 100 98 100 100
5 0 0 0 2 0 0 0 0 0 4 0 2 4 27 52 53 73 10 7 29 27 27 99 31 13 93 32 100 100 100 100 100 100 100 100 100 100 100 100 100 100 94 100 100 95 100 100 75
20 0 0 5 3 0 0 0 0 0 65 0 5 0 16 100 56 3 2 46 62 41 74 100 100 100 100 96 100 100 100 100 100 100 100 100 100 100 100 100 100 100 100 100 100 100 99 85 95
6 1 1 0 3 0 0 0 0 0 43 0 0 6 100 69 100 6 52 99 94 74 70 100 100 100 100 100 100 100 100 100 100 100 100 100 100 100 100 100 100 100 100 100 100 98 85 77 100
10 5 5 5 0 0 0 0 0 0 5 0 22 99 97 100 100 17 79 100 100 100 100 100 100 69 100 48 100 100 100 100 100 100 100 100 100 100 100 100 100 100 100 100 100 100 100 97 100
7 55 5 3 0 1 0 1 0 2 0 1 57 72 99 77 96 2 51 100 100 100 100 100 48 54 99 87 100 100 100 100 100 100 100 100 100 100 100 100 100 100 100 100 100 100 100 100 100
5 1 4 5 5 2 0 6 0 4 0 68 89 100 100 100 66 5 28 61 100 100 100 100 20 76 100 100 100 100 100 100 100 100 100 100 100 100 100 100 100 100 100 100 100 100 100 100 100
5 3 54 68 27 15 1 22 85 0 28 100 100 100 100 100 5 4 43 99 100 100 100 100 80 100 100 100 100 100 100 100 100 100 100 100 100 100 100 100 100 100 100 100 100 100 100 95 97
23 75 77 80 97 35 5 5 100 15 100 100 100 100 98 100 91 5 85 100 100 100 100 99 70 100 97 98 98 100 100 100 100 100 100 100 100 100 100 100 100 100 100 100 100 100 100 100 100
96 82 62 15 9 5 0 19 100 100 100 100 100 100 100 100 100 4 24 65 95 100 100 72 52 52 63 75 100 100 100 100 100 100 100 100 100 100 100 100 100 100 100 100 100 100 100 100 100
100 100 11 98 98 100 10 87 100 100 81 95 91 100 100 100 77 5 5 60 69 100 100 20 16 31 56 70 93 100 100 100 100 100 100 100 100 100 100 100 100 100 100 100 100 100 100 100 100
97 100 100 97 100 94 52 100 100 100 5 7 100 100 91 94 95 5 32 71 14 72 94 24 8 24 24 65 59 89 87 60 99 63 79 100 100 100 100 100 100 100 100 100 100 100 100 100 100
60 100 100 100 90 100 98 100 100 8 45 97 100 100 54 100 100 61 62 61 7 37 75 55 34 52 3 22 100 82 27 40 96 100 48 100 100 100 100 100 100 100 100 100 100 100 100 100 100
6 53 93 100 100 100 83 100 100 62 88 100 100 100 99 100 100 94 98 92 5 16 47 37 22 100 96 100 100 100 100 63 50 77 3 0 7 78 100 100 100 100 100 100 100 100 100 100 100

GFSSGP_prec_cloud_084.txt.gz
Cloud_Cover
5 5 0 0 0 0 0 0 0 0 0 0 0 0 0 0 0 0 0 0 0 10 64 14 100 100 57 0 13 20 47 39 25 1 0 17 18 72 61 9 91 58 5 97 4 0 24 24 6
55 5 5 5 4 1 0 0 0 0 0 0 0 0 0 0 0 0 0 0 0 6 54 58 100 100 100 0 0 12 100 48 36 2 0 11 22 10 2 5 24 2 8 7 0 0 91 62 94
99 71 31 5 18 5 2 0 0 0 0 0 0 0 0 0 0 0 0 0 8 34 64 87 41 99 100 15 0 3 76 100 47 50 91 42 66 78 50 63 15 58 93 5 18 0 75 96 100
100 99 23 18 5 4 5 5 5 5 0 0 0 0 0 0 0 0 0 0 16 60 48 77 57 79 100 82 0 0 10 100 100 34 2 31 100 74 77 63 5 6 2 2 14 3 74 63 100
100 96 40 59 98 5 5 5 5 4 0 0 0 0 0 0 0 0 0 3 7 99 55 98 97 52 100 100 0 0 0 9 9 0 0 74 66 46 58 22 5 5 2 0 2 22 32 67 100
100 100 100 100 100 5 5 5 5 3 1 0 0 0 0 0 0 0 0 0 0 60 100 100 98 19 100 100 14 0 0 16 53 4 18 82 100 100 100 100 62 78 96 99 88 100 94 85 37
100 100 100 100 100 54 66 15 5 1 0 0 0 0 0 0 0 0 0 0 0 12 93 100 100 92 95 100 38 20 0 1 2 100 100 100 100 100 100 100 100 100 100 100 100 100 100 16 22
100 100 100 100 100 100 7 5 5 5 0 0 0 0 0 0 0 0 0 0 0 26 39 100 100 100 64 61 88 50 8 0 56 100 100 100 100 100 100 100 100 100 100 100 100 100 100 99 97
100 47 100 100 100 100 26 5 6 4 0 0 0 0 0 0 0 0 0 4 44 58 44 94 100 100 68 96 99 95 64 65 100 100 100 100 100 100 100 100 100 100 100 100 100 100 100 100 100
82 74 100 100 100 85 5 9 44 4 1 0 0 0 0 0 0 0 4 14 74 99 84 54 100 100 100 100 100 99 87 100 100 100 100 100 100 100 100 100 100 100 100 100 100 100 100 88 98
62 91 100 100 91 11 51 94 100 93 2 0 0 0 0 0 0 0 0 0 4 24 53 71 71 100 100 100 100 100 100 99 100 100 100 100 100 100 100 100 100 100 100 100 74 100 100 100 78
49 72 57 100 87 100 100 91 100 32 0 0 0 0 0 0 5 2 0 0 1 8 20 89 100 100 100 100 100 100 100 100 100 100 100 100 100 100 100 99 100 100 100 100 100 100 82 99 48
100 100 100 98 100 78 5 6 5 0 5 1 0 0 1 1 2 0 0 0 0 0 0 32 100 100 100 100 100 100 100 100 100 100 100 100 100 100 100 72 100 100 100 100 100 92 90 95 76
98 100 98 77 100 67 8 1 0 4 1 0 0 0 2 3 0 0 0 0 0 0 0 26 100 100 100 100 100 100 100 100 100 100 99 100 100 100 100 100 99 100 100 94 89 99 100 100 96
95 40 40 87 45 44 25 0 2 0 0 0 0 5 0 0 0 0 0 0 4 4 1 28 52 100 100 100 100 100 100 100 100 100 100 100 100 100 100 100 100 100 100 74 58 100 100 100 94
100 100 38 98 100 100 52 24 4 0 0 3 5 4 1 0 0 0 0 6 11 8 4 30 47 100 100 100 100 100 100 100 100 100 100 100 100 100 100 100 100 100 100 100 100 100 100 99 44
100 100 100 100 100 89 94 2 0 2 0 8 39 3 0 0 0 0 0 91 63 6 14 32 39 100 100 100 100 100 100 100 100 100 100 100 100 100 100 100 100 100 89 100 100 100 100 91 73
100 100 100 100 100 68 1 0 0 0 52 97 3 0 0 0 0 0 69 5 10 18 14 18 24 68 100 100 100 100 100 100 100 100 100 100 100 100 100 100 100 100 100 100 100 100 100 100 100
100 100 100 100 100 57 0 0 0 0 5 5 0 0 0 0 0 8 24 43 68 52 83 100 52 45 100 100 100 100 100 100 100 100 100 100 100 100 100 100 100 100 100 100 100 100 100 100 79
93 89 100 94 78 3 3 0 0 0 4 2 0 0 0 0 10 100 87 96 84 94 100 100 98 25 56 61 56 100 100 100 100 100 100 100 100 100 100 100 100 100 100 100 100 100 86 68 96
100 27 5 5 19 3 0 0 0 5 3 0 0 0 0 5 93 100 92 53 80 100 100 100 92 80 100 100 94 100 100 100 100 100 100 100 100 100 100 100 100 100 100 100 100 100 100 100 100
100 68 6 5 5 4 3 4 3 16 1 0 0 0 1 67 100 93 52 78 74 100 100 100 100 100 100 100 100 100 100 100 100 100 100 100 100 100 100 100 100 100 100 100 100 100 100 100 100
100 96 16 5 5 58 5 23 0 99 0 0 0 0 51 100 100 100 100 88 84 98 100 100 100 62 71 99 78 99 100 100 94 100 100 100 100 100 100 100 100 100 100 100 100 100 100 100 100
100 100 100 18 26 57 8 1 0 53 0 0 0 1 100 100 100 21 58 7 75 100 100 100 100 81 100 100 100 100 100 100 100 100 100 100 100 100 100 100 100 100 100 100 100 100 100 100 100
100 100 92 35 93 32 38 2 0 6 0 0 0 92 100 100 94 32 60 49 81 100 100 100 100 100 100 100 100 100 100 100 100 100 100 100 100 100 100 100 100 100 100 100 100 100 100 100 100
100 100 99 33 44 19 5 2 0 0 0 0 0 38 99 100 98 100 59 27 38 100 100 100 100 100 100 100 100 100 100 100 100 100 100 100 100 100 100 100 100 100 100 100 100 100 100 100 100
100 100 10 61 88 92 5 0 0 4 0 0 17 100 100 80 100 61 99 30 86 100 100 100 100 100 100 88 100 100 100 100 100 100 100 100 100 100 100 100 100 100 100 100 100 100 100 100 100
49 78 100 100 75 39 5 4 48 4 4 4 100 100 100 100 98 100 100 78 100 100 100 100 100 93 100 80 70 100 100 100 100 100 100 100 100 100 100 100 100 100 100 100 100 100 100 100 100
46 65 100 93 99 94 51 4 33 98 7 75 97 100 100 100 100 77 100 97 100 100 100 100 72 58 92 100 85 83 100 100 93 100 99 100 100 100 100 100 100 100 100 100 100 100 100 100 100
52 87 79 99 100 96 64 18 98 99 89 100 100 100 100 100 93 80 100 100 100 100 100 100 72 33 27 94 48 100 100 96 100 100 100 100 100 100 100 100 100 100 100 100 100 100 100 100 100

GFSSGP_prec_cloud_087.txt.gz
Cloud_Cover
5 2 12 70 46 20 12 2 0 0 0 0 0 0 0 0 0 0 0 0 0 0 0 1 24 54 0 8 36 19 0 0 1 0 0 0 0 5 0 6 8 90 44 7 5 5 5 10 5
4 5 8 100 100 93 44 4 0 2 0 0 0 0 0 0 0 0 0 0 0 0 0 0 38 100 8 11 4 66 19 4 23 28 7 8 18 38 0 5 87 32 71 22 6 27 8 4 1
5 54 100 100 100 100 87 5 4 5 4 0 0 0 0 0 0 0 0 0 0 0 0 11 90 100 46 1 4 100 100 49 18 9 2 0 0 5 5 3 5 62 95 6 40 4 10 1 12
5 17 100 100 100 100 100 10 5 5 5 0 0 3 0 0 0 0 0 0 0 0 0 95 76 100 96 0 4 100 100 100 21 40 0 0 0 4 5 4 33 10 33 9 73 5 0 18 17
16 14 100 100 100 100 100 35 5 5 5 0 0 2 3 0 0 0 0 0 0 1 15 90 63 100 100 24 0 62 100 100 36 0 3 0 0 34 7 60 29 22 5 5 82 5 13 29 30
94 84 100 100 100 100 100 96 9 5 2 0 2 5 1 0 0 0 0 0 0 5 19 93 97 100 100 100 0 0 29 43 100 10 0 24 100 100 42 95 100 100 5 99 5 5 18 52 9
98 100 100 100 100 100 100 100 100 7 4 5 0 5 4 0 0 0 0 0 0 76 85 100 100 100 100 100 22 0 0 0 4 0 0 86 86 100 100 100 100 100 100 63 23 32 18 97 97
100 100 100 100 100 100 100 100 100 59 5 0 5 4 0 0 0 0 0 0 0 43 100 100 100 100 100 100 100 19 0 0 0 0 24 100 100 100 100 100 100 100 100 100 100 100 100 100 100
100 100 100 100 100 100 100 100 100 8 5 5 5 4 0 0 0 0 0 27 35 58 89 100 79 100 65 100 100 52 3 0 0 0 99 100 100 100 100 100 100 100 100 100 100 100 100 100 100
100 100 100 100 100 100 88 100 69 5 24 16 5 5 3 5 1 0 0 0 54 100 100 100 100 100 78 96 100 98 82 36 79 96 100 100 100 100 100 100 100 100 100 100 100 100 100 100 97
100 100 100 100 100 100 100 100 62 100 88 5 52 7 0 5 5 0 0 0 0 52 100 100 100 100 100 100 100 100 99 97 95 100 100 100 100 100 100 100 100 100 100 100 100 100 100 100 99
100 100 100 100 100 100 94 80 100 46 39 100 4 0 0 0 0 0 0 0 0 8 61 100 100 100 100 100 100 100 100 100 100 85 100 100 100 100 100 98 100 100 100 100 100 100 100 100 100
100 100 100 100 100 100 100 98 100 68 100 77 3 0 0 0 0 0 0 1 0 5 0 95 100 100 100 100 100 100 100 100 100 98 100 100 100 100 100 100 100 100 100 100 100 90 100 100 62
100 100 100 100 100 100 67 85 16 100 57 3 4 0 0 0 0 0 0 2 5 0 0 23 100 100 100 100 100 100 100 100 100 100 100 100 100 100 100 100 100 100 100 100 100 100 100 92 74
100 100 100 100 100 100 53 100 40 44 4 4 0 0 0 0 0 3 2 2 0 0 0 1 100 100 100 100 100 100 100 100 100 100 100 100 100 100 100 100 100 100 100 100 100 100 100 97 79
100 100 100 100 100 100 38 66 5 2 2 0 0 1 9 5 1 0 2 0 0 0 0 0 74 100 100 100 96 100 100 100 100 100 100 100 100 100 100 100 100 100 100 100 100 100 100 100 100
100 100 100 100 100 92 71 49 6 100 20 5 19 75 100 2 5 3 2 0 0 0 0 0 68 100 100 94 95 98 100 100 100 100 100 100 100 100 100 100 100 100 100 100 100 100 100 100 100
100 100 100 100 100 100 91 48 5 30 100 86 100 100 7 5 5 5 0 0 0 0 0 2 58 100 97 80 70 80 100 100 100 100 100 100 100 100 100 100 100 100 100 100 100 100 94 100 100
100 100 100 100 100 100 98 88 46 91 100 100 100 15 0 5 5 0 0 0 0 0 4 5 62 100 81 100 100 100 100 100 100 100 100 100 100 100 100 100 100 100 100 100 100 100 96 100 100
100 100 100 100 100 100 100 100 100 100 90 100 100 50 3 4 0 0 0 0 0 0 5 84 72 74 100 96 96 100 100 100 100 100 100 100 100 100 100 100 100 100 100 100 100 100 100 100 100
100 100 100 100 100 100 100 95 90 83 24 66 33 1 2 5 0 0 0 0 4 4 50 95 64 5 80 98 81 100 100 100 100 100 100 100 100 100 100 100 100 100 100 100 100 100 100 100 100
100 100 100 100 61 41 3 1 9 13 100 9 0 0 5 0 0 0 0 2 1 48 100 100 16 3 36 41 60 100 97 100 100 100 100 100 100 100 100 100 100 100 100 100 100 100 100 100 100
93 100 100 100 52 18 6 5 58 6 8 5 0 1 0 0 0 0 0 3 17 86 100 100 57 18 35 59 100 59 100 100 100 100 100 100 100 100 100 100 100 100 100 100 100 100 100 100 100
100 100 100 95 27 58 5 4 5 5 5 10 0 0 0 0 0 0 0 75 48 100 100 100 94 69 62 93 100 100 92 100 100 100 100 100 100 100 100 100 100 100 100 100 100 100 100 100 100
100 99 94 75 93 37 10 20 13 11 7 5 0 0 0 0 0 0 32 6 30 100 100 100 100 64 92 100 100 100 100 100 100 100 100 100 100 100 100 100 100 100 100 100 100 100 100 100 100
92 100 100 80 52 21 90 99 41 8 9 2 0 0 0 0 24 25 9 5 46 100 100 100 99 64 99 100 100 100 100 100 100 100 100 100 100 100 100 100 100 100 100 100 100 100 100 100 100
100 100 78 49 21 49 60 5 5 5 48 16 3 0 0 25 100 93 12 5 35 82 100 100 100 58 100 100 100 100 100 100 100 100 100 100 100 100 100 100 100 100 100 100 100 100 100 100 100
100 100 97 88 57 82 29 66 5 5 5 5 2 0 9 100 100 100 100 100 85 78 100 100 100 100 100 100 100 100 100 100 100 100 100 100 100 100 100 100 100 100 100 100 100 100 100 100 100
100 100 75 100 100 100 56 5 5 83 94 2 2 6 96 100 100 100 100 73 87 77 100 100 100 100 100 100 96 100 100 100 100 100 100 100 100 100 100 100 100 100 100 100 100 100 100 100 100
100 100 58 77 96 100 97 92 16 13 77 5 5 78 100 100 100 100 100 100 100 100 100 100 100 100 100 100 64 100 100 100 100 100 100 100 100 100 100 100 100 100 100 100 100 100 100 100 100

GFSSGP_prec_cloud_090.txt.gz
Cloud_Cover
5 5 5 5 2 1 5 5 5 5 4 0 0 0 0 0 0 0 0 0 0 0 0 0 0 0 1 4 0 0 0 0 0 1 3 0 0 4 26 5 5 29 93 9 47 6 4 5 5
4 4 5 5 5 5 20 62 25 5 5 2 2 2 1 0 0 0 0 0 0 0 0 0 0 0 0 13 8 0 0 0 6 15 0 0 0 3 43 66 7 6 85 58 15 17 5 21 5
5 3 4 0 4 40 100 100 77 31 5 5 5 5 2 0 0 0 0 0 0 0 0 0 0 5 2 0 0 0 0 3 8 8 4 0 2 0 1 7 0 31 6 99 5 5 15 4 1
93 100 53 2 4 60 100 100 76 73 61 47 81 7 5 0 0 0 0 0 0 0 0 40 3 16 6 0 0 15 100 8 3 14 0 0 0 0 0 0 5 3 22 5 5 8 8 5 0
18 5 13 5 3 86 100 100 100 20 57 100 100 5 5 0 0 0 0 0 0 0 0 0 9 81 17 1 0 100 100 96 6 89 0 1 0 0 0 20 5 58 23 41 3 11 11 4 1
8 5 5 14 50 72 100 100 100 85 100 100 100 35 5 0 0 0 0 0 0 0 0 0 83 45 8 0 0 91 100 100 87 52 0 0 0 2 77 100 13 100 70 100 92 79 73 5 5
76 47 19 23 68 98 100 100 100 100 100 80 81 91 28 2 6 2 0 0 0 4 0 8 50 40 22 16 0 1 33 77 97 0 0 37 61 48 90 100 99 100 99 100 100 93 97 53 5
95 9 18 83 100 100 100 100 100 99 27 32 82 25 5 69 5 3 0 0 0 0 0 7 100 43 14 66 22 0 0 0 7 0 0 0 0 75 93 100 100 100 100 100 100 100 100 97 10
55 14 64 100 100 100 100 100 100 100 100 100 100 42 6 48 5 2 0 0 0 3 10 27 84 81 23 27 47 28 24 1 6 1 1 48 1 100 100 100 100 100 100 100 100 100 100 100 100
55 16 100 100 100 100 100 78 23 79 100 100 100 78 9 5 5 2 0 0 0 0 18 100 47 20 58 56 49 40 27 8 5 6 9 0 13 82 100 97 100 100 100 100 100 100 100 100 100
100 96 100 100 100 100 100 89 84 79 100 100 100 58 56 100 75 5 2 0 0 0 30 100 70 100 100 80 91 53 46 72 56 49 44 46 65 100 100 100 100 100 100 100 100 100 100 100 100
67 100 100 100 100 100 100 100 100 100 100 100 100 100 100 44 100 44 5 1 0 0 0 95 100 91 100 87 99 100 53 70 40 65 85 66 100 100 100 100 100 100 100 100 100 100 100 100 100
100 100 100 100 100 100 100 100 100 100 100 100 100 100 100 43 5 11 8 0 0 0 0 12 77 99 100 100 99 97 100 100 98 62 58 51 100 100 100 100 100 100 100 100 100 100 100 100 100
94 100 100 100 100 100 100 100 100 100 100 100 100 100 56 75 80 75 5 0 0 0 0 6 99 99 100 100 100 100 100 98 100 100 46 100 100 100 100 100 100 100 100 100 100 100 100 100 100
100 100 100 100 100 100 100 100 100 100 100 14 88 57 5 6 27 4 0 0 0 0 0 0 77 100 100 100 100 100 100 98 100 100 91 100 100 100 100 100 100 100 100 100 100 100 100 100 100
100 100 100 100 100 100 100 89 100 100 100 81 77 49 5 5 5 0 0 0 0 1 0 0 32 100 100 100 100 100 100 100 100 100 100 98 100 100 100 100 100 100 100 100 100 100 100 100 100
100 100 100 100 100 100 100 100 100 100 98 78 68 60 34 45 5 3 5 5 5 4 0 0 14 100 80 100 100 100 100 100 100 100 100 100 100 100 100 100 100 100 100 100 100 100 100 100 100
100 100 100 100 100 100 100 100 100 100 100 100 100 100 100 66 37 5 5 15 5 0 0 0 0 91 100 100 100 100 99 100 100 100 100 100 100 100 100 100 100 100 100 100 100 100 100 100 100
100 100 100 100 100 100 100 100 100 100 100 100 100 99 100 100 36 7 14 4 1 0 0 0 0 96 100 100 98 100 67 100 100 100 100 100 100 100 100 100 100 100 100 100 100 100 100 100 100
100 100 100 100 100 100 100 100 100 100 100 100 100 100 100 96 5 5 12 24 3 0 0 0 0 100 94 85 39 48 100 100 95 100 100 100 100 100 100 100 100 100 100 100 100 100 100 100 100
100 100 100 100 100 100 100 100 100 100 100 100 100 100 100 100 59 31 5 1 0 0 0 0 0 82 99 26 26 99 100 99 100 100 100 100 100 100 100 100 100 100 100 100 100 100 100 100 100
100 100 100 100 100 100 100 100 100 100 100 100 100 100 100 96 98 23 2 0 0 0 0 0 2 100 54 25 23 44 15 76 100 100 100 100 100 100 100 100 100 100 100 100 100 100 100 100 100
100 100 100 100 100 100 89 100 100 100 100 100 61 5 5 4 3 5 4 0 0 0 0 2 40 19 36 24 8 31 13 65 99 100 100 100 100 100 100 100 100 100 100 100 100 100 100 100 100
100 100 100 100 100 50 100 96 100 100 100 33 6 12 5 1 5 5 0 0 0 0 18 9 54 34 33 30 2 0 18 62 93 100 100 100 100 100 100 100 100 100 100 100 100 100 100 100 100
100 100 100 100 100 100 87 27 5 5 28 34 4 2 0 2 5 0 0 0 0 3 100 93 98 68 42 29 5 10 46 98 100 100 100 100 100 100 100 100 100 100 100 100 100 100 100 100 100
100 100 100 100 100 80 99 92 68 47 11 50 13 1 0 0 1 0 0 0 2 69 100 100 98 62 44 21 18 84 99 100 100 100 100 100 100 100 100 100 100 100 100 100 100 100 100 100 100
100 100 100 99 100 100 41 78 97 98 100 72 5 5 4 0 0 0 0 5 100 100 100 100 85 66 41 34 54 100 91 100 100 100 100 100 100 100 100 100 100 100 100 100 100 100 100 100 100
100 100 100 100 96 89 99 98 89 99 51 6 5 5 5 0 0 0 0 80 100 88 100 100 66 75 71 39 99 100 100 100 100 100 100 100 100 100 100 100 100 100 100 100 100 100 100 100 100
100 100 100 100 100 100 100 100 100 14 5 4 5 8 4 30 81 62 10 100 99 99 100 100 96 99 100 87 99 100 62 100 100 100 100 100 100 100 100 100 100 100 100 100 100 100 100 100 100
100 100 100 100 100 100 100 100 100 31 12 5 77 11 44 100 100 100 100 100 100 100 100 100 100 100 99 91 100 78 50 100 100 100 100 100 100 100 100 100 100 100 100 100 100 100 100 100 100

GFSSGP_prec_cloud_093.txt.gz
Cloud_Cover
5 53 28 8 5 3 5 5 4 5 5 5 5 5 5 3 0 0 0 0 0 0 0 1 0 0 0 0 0 0 0 0 0 0 0 0 0 0 0 0 1 5 5 10 5 5 6 4 17
71 9 5 5 5 5 4 11 6 5 5 13 5 6 16 6 0 0 0 0 0 0 0 0 0 0 0 0 0 0 0 0 0 0 2 0 0 0 51 9 8 5 5 5 5 86 6 13 4
5 5 7 5 0 4 22 94 0 9 5 5 10 82 64 44 5 0 0 0 0 0 0 0 0 0 0 0 0 0 0 9 1 2 0 0 0 0 51 65 70 4 5 5 5 18 47 5 5
5 5 3 0 0 4 5 100 0 4 0 5 29 100 48 8 5 1 0 0 0 0 0 40 0 0 0 0 0 0 0 5 96 1 0 0 0 0 12 8 11 0 4 5 5 8 25 5 0
22 8 5 4 5 42 53 100 12 90 2 43 100 100 100 19 6 5 5 3 0 0 0 0 0 0 0 0 0 0 35 33 100 32 0 0 0 0 0 0 1 1 5 3 5 16 5 2 5
5 91 6 59 95 78 87 98 100 26 1 11 100 100 90 65 8 13 7 49 3 5 0 0 0 0 0 0 0 1 100 100 99 98 54 0 0 14 28 100 90 90 51 18 2 30 100 100 30
53 46 4 5 10 42 80 71 100 55 5 5 99 100 97 7 72 48 5 49 75 37 34 1 0 0 2 0 0 1 88 100 100 100 2 0 90 99 100 96 34 100 100 86 80 92 100 100 100
9 70 11 96 100 100 98 34 100 17 5 7 25 100 100 97 100 94 45 35 5 33 65 1 0 0 5 11 7 0 0 90 100 81 1 0 0 0 1 84 93 99 17 93 100 99 100 100 100
6 5 1 66 100 100 84 100 100 100 6 68 98 100 100 100 100 48 11 4 5 7 51 46 0 0 0 1 9 53 13 1 28 30 3 61 0 1 5 100 100 100 100 100 100 100 100 100 100
5 16 62 58 92 100 8 100 100 100 95 66 57 100 100 100 100 42 7 6 30 20 61 85 14 0 0 0 8 33 42 1 1 0 0 0 2 10 11 76 100 100 100 100 100 100 100 100 100
0 0 100 90 6 8 88 100 100 100 100 15 42 100 100 100 99 99 93 88 100 93 100 63 3 2 1 0 0 10 42 53 37 17 27 2 21 8 5 100 100 100 100 100 100 100 100 100 100
1 2 88 98 98 5 94 86 100 100 100 100 100 98 60 17 22 66 95 100 100 99 71 19 58 4 18 0 1 0 0 14 22 0 78 68 39 15 9 91 100 96 100 100 100 100 100 100 100
2 5 13 100 100 65 100 100 100 100 100 100 100 100 27 5 91 100 100 100 100 95 8 1 73 2 14 34 42 36 5 1 18 96 86 67 78 27 88 95 100 83 100 100 100 100 100 100 100
16 4 2 34 100 100 100 100 100 100 100 100 100 100 100 100 100 100 100 100 100 49 2 4 17 28 11 16 63 72 99 85 37 39 97 45 18 77 39 100 100 100 100 100 100 100 100 100 100
55 49 5 6 100 100 100 100 100 100 100 100 100 100 100 100 100 100 100 100 100 5 5 2 0 69 61 92 99 94 16 96 100 42 35 60 61 60 36 100 100 100 100 100 100 100 100 100 100
98 97 7 6 96 100 100 98 100 100 100 100 100 100 100 100 100 100 98 38 14 5 6 5 0 8 100 100 100 95 32 59 72 99 94 32 59 43 99 100 100 100 100 100 100 100 100 100 100
100 33 100 100 100 100 100 100 100 100 98 100 95 100 100 100 76 24 58 41 5 5 5 4 3 63 77 100 100 84 92 55 45 91 100 98 100 85 92 100 99 100 100 100 100 100 100 100 100
100 100 100 100 100 100 100 100 100 100 100 100 100 100 100 100 98 78 92 29 5 5 5 1 0 21 84 100 100 100 100 98 99 98 79 98 100 100 91 100 100 100 100 100 100 100 100 100 100
100 99 26 100 100 100 100 100 100 100 100 100 100 100 100 100 100 100 100 85 23 5 5 0 0 0 60 100 100 100 100 100 100 100 100 100 100 100 98 100 100 100 100 100 100 100 100 100 100
100 100 13 100 100 100 100 100 100 100 100 100 100 100 100 100 100 100 100 99 5 2 2 0 0 0 35 100 100 65 98 100 100 100 100 97 100 100 100 100 100 100 100 100 100 100 100 100 100
100 100 100 100 100 100 100 100 100 100 100 100 100 100 100 100 100 100 80 70 52 5 5 0 0 0 65 88 84 96 100 100 100 100 100 85 98 92 100 100 100 100 100 100 100 100 100 100 100
100 100 100 100 100 100 100 100 100 100 100 100 100 100 100 100 96 93 97 100 5 5 5 0 0 0 49 13 12 100 79 100 100 100 74 78 96 100 100 100 100 100 100 100 100 100 100 100 100
100 100 100 100 100 100 100 100 100 100 100 100 100 100 100 100 100 100 99 100 99 65 3 0 0 0 23 0 43 63 82 40 28 70 89 100 100 100 100 100 100 100 100 100 100 100 100 100 100
100 100 100 100 100 100 100 100 100 100 100 100 100 100 100 100 87 58 94 68 22 1 0 0 0 0 16 5 82 62 51 15 18 99 86 100 100 100 100 100 100 100 100 100 100 100 100 100 100
100 100 100 100 100 100 100 100 100 100 100 100 100 100 100 100 100 99 38 5 5 1 0 0 0 0 23 15 66 66 21 16 45 100 83 100 100 100 100 100 100 100 100 100 100 100 100 100 100
100 100 100 100 100 100 100 100 100 100 100 100 95 87 100 100 96 32 5 4 5 0 1 0 0 4 23 91 86 39 37 71 100 86 83 100 100 100 100 100 100 100 100 100 100 100 100 100 100
100 100 100 100 100 100 100 100 100 100 100 100 100 100 53 5 8 46 5 5 5 0 20 3 4 26 81 100 93 52 75 100 99 83 100 97 100 100 100 100 100 100 100 100 100 100 100 100 100
100 100 100 100 100 100 100 100 100 100 100 96 86 89 7 5 6 90 52 5 9 3 33 93 100 100 100 100 96 55 100 96 75 99 100 100 100 100 100 100 100 100 100 100 100 100 100 100 100
100 100 100 100 100 100 100 100 100 100 100 100 48 17 5 5 22 100 80 62 73 34 95 100 100 100 100 100 99 99 100 85 64 86 100 100 100 100 100 100 100 100 100 100 100 100 100 100 100
100 100 100 100 100 100 100 100 100 100 100 99 62 11 5 12 32 100 100 100 100 87 100 100 97 100 100 100 100 100 100 78 95 100 100 100 100 100 100 100 100 100 100 100 100 100 100 100 100

GFSSGP_prec_cloud_096.txt.gz
Cloud_Cover
5 0 2 5 2 0 0 5 5 5 2 3 0 3 5 21 5 0 0 0 0 0 0 0 0 0 0 0 0 0 0 0 0 0 0 0 0 0 0 0 0 0 0 6 15 9 5 7 0
31 18 3 3 0 0 23 10 5 89 1 0 11 6 11 70 5 2 0 0 0 0 0 0 0 0 0 0 0 0 0 0 0 0 0 0 0 0 0 0 0 0 2 1 2 25 22 10 0
0 1 4 0 0 6 8 36 31 37 0 2 4 61 8 67 28 3 5 0 2 1 0 0 0 0 0 0 0 0 0 0 0 0 0 0 0 0 0 0 0 4 5 5 5 10 26 5 5
0 0 0 0 0 1 5 5 93 36 0 4 3 10 85 100 79 16 13 80 4 0 5 21 0 0 0 0 0 0 0 3 0 0 0 0 0 0 0 0 5 3 3 2 5 16 5 5 5
0 0 0 0 1 4 13 57 99 45 4 0 2 5 5 99 29 33 100 36 62 86 5 5 5 7 0 0 0 0 0 2 100 54 0 0 0 0 0 0 0 0 11 2 19 41 4 5 5
0 0 0 0 5 80 26 100 38 68 4 1 0 39 91 5 88 100 100 100 92 8 34 24 5 5 2 5 7 0 0 2 100 100 0 0 0 0 0 3 10 30 48 38 80 66 5 6 5
0 0 0 0 0 6 100 100 100 34 46 96 17 100 100 61 1 79 100 100 100 100 39 5 59 98 72 2 5 0 0 94 100 100 100 0 0 0 5 0 5 2 92 91 42 76 64 9 83
1 0 0 0 0 32 100 100 17 19 100 99 7 11 59 60 0 54 100 100 100 94 100 100 23 8 0 4 7 0 8 100 100 100 99 0 0 0 4 5 3 7 100 75 100 100 100 100 100
24 12 15 18 5 5 35 93 84 94 100 100 97 3 4 27 75 57 100 100 100 100 91 100 96 8 0 0 5 31 0 64 100 100 66 67 0 0 0 0 1 99 100 100 100 100 100 100 100
99 22 98 74 57 10 5 2 1 11 100 88 37 5 5 0 67 100 100 100 100 100 100 100 100 30 5 12 5 0 0 1 44 77 13 4 0 0 0 0 0 68 100 100 100 100 100 100 100
100 97 81 5 4 32 5 1 2 3 29 40 69 18 1 4 19 100 100 100 100 100 100 100 100 100 24 94 6 0 0 0 0 0 0 0 0 0 1 16 0 67 100 100 100 100 100 100 100
8 86 70 40 0 3 0 0 0 6 91 100 100 100 100 100 90 100 100 100 100 98 99 100 100 100 100 77 5 0 0 0 0 0 0 0 0 0 0 36 3 100 100 100 100 100 100 100 100
5 80 51 96 64 5 4 0 0 1 100 100 60 99 100 100 100 100 100 100 100 100 100 100 100 100 100 19 5 0 0 0 0 0 0 0 0 0 0 40 23 90 100 100 100 100 100 100 100
4 5 5 5 29 30 2 1 0 2 100 100 96 89 100 100 100 100 100 100 100 100 100 100 100 100 100 75 5 0 0 0 0 0 0 0 0 0 0 47 100 45 100 100 100 100 100 100 100
3 1 2 0 4 5 5 1 0 98 100 100 95 79 100 100 100 100 95 100 100 100 100 100 100 100 100 15 4 3 0 0 0 0 0 0 0 0 0 28 39 13 73 100 100 100 100 100 100
0 0 0 0 27 37 100 0 0 69 100 100 99 7 100 100 100 100 100 100 100 100 100 83 96 100 9 5 5 97 40 1 0 0 0 0 0 0 17 44 94 48 59 100 100 100 100 100 100
0 0 0 0 18 99 100 1 3 100 7 100 100 100 97 100 100 100 100 100 100 100 94 36 85 100 58 9 0 100 92 31 6 71 62 6 15 0 0 20 8 67 100 92 100 100 100 100 100
0 0 0 0 0 100 82 3 5 100 11 25 84 100 100 100 100 100 100 100 100 98 98 99 94 99 43 5 26 100 100 100 84 36 34 99 50 43 100 51 41 34 95 100 100 100 100 100 100
0 0 0 0 0 100 70 2 100 100 11 67 100 100 100 100 100 67 99 99 100 100 100 100 100 100 100 9 38 100 100 100 100 97 49 61 100 100 100 100 55 87 100 100 100 100 100 100 100
2 1 0 0 2 100 79 6 62 100 100 100 100 100 100 100 100 100 100 100 100 100 100 100 100 100 77 4 97 86 100 100 100 100 82 100 100 100 100 83 66 100 100 100 100 100 100 100 100
4 5 17 3 98 100 61 6 3 96 100 100 100 100 100 100 100 100 100 100 100 100 100 100 100 82 6 18 92 71 100 100 100 100 88 100 100 100 100 100 100 100 100 100 100 100 100 100 100
1 50 90 63 100 100 100 8 100 100 99 100 100 100 100 27 94 100 100 100 100 100 100 100 100 56 5 0 97 25 43 98 72 97 100 100 96 50 59 96 100 100 100 100 100 100 100 100 100
77 20 68 99 100 99 95 74 98 100 100 100 100 100 100 100 100 100 100 100 100 100 100 100 95 1 5 0 0 0 34 34 88 99 100 100 100 100 95 94 100 100 100 100 100 100 100 100 100
47 100 32 100 100 76 100 94 100 100 100 99 100 100 100 100 100 100 100 100 100 100 100 73 8 0 4 0 0 35 14 9 7 3 8 20 68 37 100 100 100 100 100 100 100 100 100 100 100
100 60 100 100 100 83 100 100 100 100 100 84 100 100 100 100 100 100 100 100 100 100 84 8 5 0 3 0 0 67 94 90 92 39 4 41 87 98 100 100 100 100 100 100 100 100 100 100 100
84 81 18 100 100 100 100 100 100 100 100 100 100 100 100 100 100 100 100 100 100 95 100 100 5 0 0 0 13 96 100 100 100 49 3 71 100 100 100 100 100 100 100 100 100 100 100 100 100
34 85 66 100 100 100 100 100 100 100 100 100 100 100 100 100 100 100 100 100 100 84 96 14 2 0 42 100 100 100 100 100 91 17 84 80 100 100 100 100 100 100 100 100 100 100 100 100 100
86 54 98 100 100 100 100 100 100 100 100 100 100 97 100 100 100 89 100 99 92 41 5 20 2 47 100 100 100 100 100 100 100 100 58 100 100 100 100 100 100 100 100 100 100 100 100 100 100
47 62 100 100 100 100 100 100 100 100 100 100 100 100 100 100 100 88 81 99 94 57 56 21 8 100 100 100 100 100 100 100 100 60 97 85 100 80 100 100 100 100 100 100 100 100 100 100 100
100 94 100 100 100 100 100 100 100 100 100 100 100 100 100 100 100 96 100 100 100 100 80 0 96 100 100 100 100 100 100 100 100 100 100 98 100 100 100 100 100 100 100 100 100 100 100 100 100

GFSSGP_prec_cloud_102.txt.gz
Cloud_Cover
0 0 0 0 0 0 0 12 5 12 5 4 5 5 3 0 0 0 0 0 0 0 14 1 0 0 0 0 0 0 0 0 0 0 0 0 0 0 0 0 0 0 0 3 0 5 12 3 0
0 0 0 0 0 0 0 0 5 5 5 2 2 5 5 0 0 5 3 1 1 3 6 6 0 0 0 0 0 0 0 0 0 0 0 0 0 0 0 0 0 0 0 6 5 15 23 6 0
0 0 0 0 0 0 0 70 22 4 2 5 8 4 4 4 4 4 5 19 5 5 6 5 5 3 0 0 0 0 1 2 0 0 1 1 0 0 0 0 0 0 0 2 62 41 23 0 24
0 0 0 0 0 0 0 0 5 98 76 13 3 3 2 0 0 0 24 38 45 55 5 8 7 47 5 0 0 0 71 22 0 0 5 4 0 0 0 0 0 0 0 8 5 16 5 13 100
0 0 0 0 0 0 0 0 0 6 7 1 2 0 0 0 0 21 18 6 9 18 45 28 84 100 99 5 5 3 2 5 19 33 5 5 5 0 0 0 0 0 0 0 3 5 5 100 100
0 0 0 0 0 0 0 0 0 0 0 0 0 0 0 1 3 9 32 8 23 27 31 89 100 100 100 81 32 4 1 52 98 47 100 5 4 0 0 0 0 0 0 0 0 0 4 85 100
0 0 0 0 1 5 24 4 4 4 5 1 0 0 0 0 0 9 100 98 12 13 33 94 95 100 100 100 12 23 20 50 10 48 90 5 4 1 0 0 0 0 0 0 2 8 97 100 100
0 0 0 0 0 5 48 12 0 0 0 0 0 0 0 0 0 0 98 96 100 89 99 100 100 100 100 100 22 37 21 5 6 93 100 18 8 2 0 0 0 0 2 3 19 8 98 100 100
3 1 0 0 0 0 0 0 0 2 0 2 4 5 1 0 0 0 27 3 99 100 100 100 100 100 100 100 55 37 32 68 81 26 100 100 100 2 0 0 0 0 0 7 5 27 26 99 100
92 14 4 0 0 0 0 0 0 0 0 5 5 5 5 0 0 0 0 81 100 100 100 100 99 98 100 100 41 52 78 75 97 97 100 100 45 10 5 0 0 0 0 0 3 5 5 97 100
96 28 0 0 0 0 0 0 0 0 0 3 5 3 4 5 0 0 0 2 88 100 100 100 94 99 100 100 98 74 100 98 100 100 100 100 100 27 22 28 30 22 0 15 10 28 5 84 100
1 0 0 1 0 0 0 0 0 0 0 5 23 41 5 15 12 0 0 0 86 100 100 100 100 100 80 100 100 100 100 100 100 100 100 100 100 45 32 27 30 24 6 10 16 27 11 5 99
0 29 63 100 30 2 0 0 0 0 4 91 94 100 100 13 5 0 4 4 0 78 100 100 100 93 65 82 98 100 100 100 100 100 100 100 55 46 30 32 38 40 48 9 12 29 36 10 90
76 100 100 100 35 5 0 0 0 0 5 5 12 18 73 100 23 1 0 3 0 3 100 100 100 100 39 75 100 100 100 100 100 100 100 99 24 12 16 46 55 88 46 15 0 0 18 24 89
99 68 100 99 24 1 0 0 0 0 0 0 1 5 6 38 5 4 2 3 3 0 100 100 100 100 75 100 100 100 100 100 100 100 100 49 5 5 9 39 88 96 67 18 5 25 99 98 100
100 100 97 100 100 18 0 0 0 0 0 0 0 0 4 5 13 2 0 0 4 4 99 100 100 100 84 100 100 100 100 100 100 100 84 5 5 5 14 33 58 99 100 72 76 92 100 100 100
63 1 0 2 4 0 0 0 0 0 0 0 0 0 5 4 1 0 2 5 5 6 100 100 94 100 100 100 100 100 100 100 68 68 52 6 4 5 9 26 49 98 100 99 100 100 100 100 100
1 0 0 0 25 0 0 0 0 0 0 0 0 0 4 5 1 0 4 5 5 26 100 100 100 100 100 98 100 100 100 100 100 100 51 5 11 11 23 46 93 99 100 100 100 100 100 100 100
0 0 0 0 0 0 0 0 0 0 0 0 0 0 0 0 5 0 0 5 79 88 100 100 100 100 100 100 100 100 95 100 100 100 42 65 19 28 36 70 100 100 100 100 100 100 100 100 100
5 16 4 0 0 0 0 0 0 0 0 0 0 0 0 0 0 0 0 2 16 41 65 100 100 100 100 100 100 47 11 100 100 100 100 100 100 86 98 88 100 100 100 100 100 100 100 100 100
10 60 0 2 1 0 2 0 0 0 0 0 0 0 0 0 0 0 10 72 65 2 84 80 78 100 100 100 100 100 100 100 99 100 100 100 100 100 100 100 100 100 100 100 100 100 100 100 100
4 0 4 21 44 55 3 63 0 0 0 0 0 0 0 0 0 87 100 48 0 5 32 100 100 100 100 100 100 100 100 100 98 100 100 24 100 100 100 100 100 100 100 100 100 100 98 100 100
0 0 10 34 100 37 0 70 0 0 0 0 0 0 0 5 6 0 26 4 0 36 100 100 100 100 100 100 100 88 55 99 100 100 99 91 65 100 100 100 100 100 100 100 100 100 100 100 100
0 0 23 100 75 75 0 4 0 0 0 4 4 10 99 75 100 42 85 1 26 100 100 100 100 100 100 100 100 100 100 100 100 100 100 100 98 100 100 100 100 100 100 100 100 100 100 100 100
0 72 57 48 23 20 98 6 0 0 0 18 35 97 100 100 100 100 100 100 100 100 100 100 100 100 100 100 100 100 100 100 100 99 100 89 92 100 100 100 100 100 100 100 100 100 100 100 100
0 11 94 60 6 21 15 2 2 16 3 6 100 100 100 100 100 100 100 100 100 100 100 100 100 100 100 98 100 98 96 100 100 100 82 30 93 49 34 92 99 100 100 100 100 100 100 100 100
2 3 12 5 40 94 80 100 100 80 100 100 100 100 100 100 100 100 100 100 100 100 100 100 100 100 100 100 71 47 100 100 100 100 100 95 100 42 34 82 88 100 100 100 100 100 100 100 100
8 93 72 66 100 100 100 100 100 100 100 100 100 100 100 100 100 100 100 100 100 100 100 100 100 100 100 100 100 100 98 100 100 100 98 100 100 100 99 100 100 100 100 88 100 100 100 100 100
61 48 100 94 83 100 100 100 100 100 100 100 100 100 100 100 100 100 100 100 100 100 100 100 100 100 100 100 100 100 100 100 100 100 100 100 100 100 100 100 100 100 100 100 100 100 100 100 100
100 100 99 98 100 100 100 100 100 100 100 100 100 100 100 100 100 100 100 100 100 100 100 100 100 100 100 100 43 91 100 100 100 100 100 100 100 100 100 98 100 100 100 100 100 100 100 100 100

GFSSGP_prec_cloud_105.txt.gz
Cloud_Cover
0 0 0 0 0 0 0 0 0 4 59 17 3 0 0 0 0 0 0 0 0 0 2 4 40 27 7 0 0 0 0 0 0 0 0 0 0 0 0 0 0 0 0 0 0 0 0 0 0
0 0 0 0 0 0 0 0 0 0 0 1 0 2 2 0 0 0 0 3 5 5 4 29 54 27 4 0 0 0 0 0 0 0 0 0 0 0 0 0 0 0 0 1 0 7 2 0 0
0 0 0 0 0 0 0 0 0 0 0 0 0 0 0 0 0 0 0 1 5 5 9 23 15 16 4 5 0 0 0 0 0 0 8 4 11 10 2 0 0 0 0 39 100 62 13 0 0
0 0 0 0 0 0 0 0 0 0 0 0 0 0 0 0 0 0 1 4 88 100 33 21 4 5 5 88 13 1 0 0 0 0 5 0 5 15 4 0 0 0 0 23 100 56 7 0 1
1 0 0 0 0 0 0 2 2 2 0 0 0 0 0 0 0 0 0 0 0 9 79 100 49 21 44 100 100 7 2 2 0 1 0 0 4 6 9 5 0 0 1 0 8 4 2 4 5
2 2 0 0 0 0 1 1 5 60 10 1 0 0 0 0 0 0 0 0 4 33 100 100 100 100 70 77 100 100 13 3 2 0 0 2 8 5 37 1 0 0 0 0 0 0 2 5 5
8 5 3 0 4 5 0 0 0 1 6 12 5 0 0 0 0 0 0 0 1 87 61 71 98 100 100 100 100 100 67 6 5 24 4 5 5 16 5 5 4 0 0 25 5 2 24 13 71
98 5 3 86 100 8 27 2 0 0 0 0 1 2 4 0 0 0 0 0 1 22 67 94 100 100 99 90 100 100 88 27 100 94 52 29 6 61 5 9 49 3 2 76 6 5 6 5 5
100 44 100 100 100 100 82 5 1 0 0 0 0 0 0 0 0 0 0 17 21 9 87 79 100 100 100 100 100 100 100 29 85 100 100 88 72 36 10 100 100 22 0 0 0 5 3 2 20
100 8 83 94 100 25 40 3 3 0 0 0 0 0 0 0 0 0 0 0 5 22 28 100 100 100 100 100 100 100 100 48 91 75 100 100 100 100 100 100 92 5 3 0 0 5 3 4 6
61 6 85 84 100 100 14 39 2 2 2 0 0 0 0 0 0 0 5 5 0 1 6 82 97 100 100 100 100 100 100 93 20 8 100 100 100 100 100 100 81 37 5 6 0 8 20 12 28
1 16 60 100 98 73 100 21 91 100 97 56 38 0 0 0 0 0 0 99 100 9 60 100 59 98 100 89 94 100 100 100 6 72 100 100 100 100 100 100 99 78 24 18 19 25 15 4 4
41 100 100 100 100 100 100 100 90 53 100 92 0 0 0 0 0 0 26 0 57 99 65 96 67 74 100 79 62 70 94 100 100 99 100 100 100 100 100 100 100 100 43 8 20 4 16 15 3
89 90 5 12 100 100 100 63 8 100 100 100 81 0 0 0 0 0 0 0 5 9 100 99 69 99 97 55 64 53 85 100 100 100 100 100 100 100 100 82 93 83 30 16 0 0 0 19 20
5 5 100 100 100 100 72 6 97 84 0 0 0 0 0 0 0 0 0 0 0 24 19 45 100 92 39 42 49 89 99 100 100 100 100 100 100 100 100 92 100 100 71 23 7 12 14 52 33
4 4 61 100 100 100 100 84 17 1 0 0 0 0 0 0 0 0 0 0 0 2 3 16 72 83 100 12 100 77 71 100 100 100 100 100 100 100 80 86 100 100 100 55 33 18 41 71 100
9 3 4 12 99 100 97 5 5 1 3 1 1 1 0 0 0 0 0 0 0 0 2 30 88 100 100 84 48 28 47 79 100 100 100 100 100 100 55 61 100 100 100 98 57 68 100 100 100
79 7 3 64 92 100 100 3 0 5 5 21 97 0 0 0 0 0 0 0 0 0 0 37 87 94 99 100 78 58 78 99 100 100 100 100 100 99 96 67 100 100 100 100 88 100 100 100 100
13 1 5 99 100 100 82 1 3 5 6 34 0 0 0 0 0 0 2 0 0 0 4 0 60 98 44 100 100 100 100 100 100 100 100 100 100 100 100 98 100 100 100 100 100 100 100 100 100
97 86 86 100 100 40 4 0 5 4 0 0 0 0 0 0 0 0 0 4 0 0 4 0 19 100 73 100 100 100 100 100 77 72 98 100 100 100 100 100 100 100 100 100 100 100 100 100 100
6 100 100 100 100 5 2 0 0 0 0 0 0 0 0 0 0 0 0 0 1 0 0 0 5 83 97 100 100 100 86 62 100 100 100 99 78 98 100 100 100 100 100 100 100 100 93 100 100
11 95 40 26 12 4 1 3 0 0 0 0 0 0 0 0 1 22 0 0 0 0 0 0 5 90 99 100 100 100 100 88 100 92 71 100 100 100 100 100 100 100 100 100 100 100 84 87 100
83 100 100 46 0 0 0 0 0 0 0 0 0 0 0 55 100 100 100 69 6 29 41 1 5 99 84 100 100 100 100 100 100 100 100 100 100 100 100 100 100 100 100 100 100 100 100 100 100
5 5 1 3 4 2 0 4 0 0 0 0 1 15 19 43 98 100 100 100 100 93 21 53 5 87 96 100 100 100 100 74 100 100 100 100 100 100 100 100 100 100 100 100 100 100 100 100 100
40 5 4 8 1 2 0 1 0 7 6 37 81 99 47 94 95 100 100 100 100 100 100 100 97 100 100 100 100 100 100 96 87 100 99 100 100 100 100 100 100 100 100 100 100 100 100 100 100
1 22 88 8 4 4 29 84 89 100 100 100 100 100 100 100 100 100 100 100 100 100 100 100 100 100 100 100 100 100 100 100 50 95 100 100 99 100 100 100 100 100 100 100 100 100 100 100 100
0 0 9 78 6 17 6 36 99 100 100 100 100 100 100 100 100 100 100 100 100 100 100 100 100 100 100 100 100 100 100 76 100 100 100 100 100 100 100 100 100 100 100 100 100 100 100 100 100
1 51 28 91 44 98 100 99 100 100 100 100 100 100 100 100 100 100 100 100 100 100 100 100 100 100 100 100 100 100 100 100 100 100 100 100 100 100 100 98 99 90 100 100 100 100 100 100 100
67 69 91 89 78 100 100 100 100 100 100 100 100 100 100 100 100 100 100 100 100 100 100 100 100 100 100 100 100 100 100 100 100 100 100 100 100 100 100 100 99 95 100 100 100 100 100 100 100
94 100 100 100 100 100 100 100 100 100 100 100 100 100 100 100 100 100 100 100 100 100 100 100 100 100 100 100 100 100 100 100 100 100 100 100 100 100 100 100 100 100 100 100 100 100 100 100 100

GFSSGP_prec_cloud_108.txt.gz
Cloud_Cover
0 0 0 0 0 0 0 0 0 0 0 0 0 0 0 0 0 0 0 0 0 0 1 2 4 8 12 1 1 5 0 0 0 16 14 0 0 0 0 0 0 0 0 0 0 0 0 0 0
0 0 0 0 0 0 0 0 0 0 0 0 0 0 0 0 0 0 0 2 1 1 3 11 34 100 93 37 5 2 0 0 0 0 0 0 0 0 0 0 0 0 0 0 0 0 0 0 0
0 0 0 0 0 0 0 0 0 0 0 0 0 0 0 0 0 0 0 0 0 0 2 16 50 40 100 100 82 5 5 4 5 0 0 0 0 0 1 0 0 0 0 0 1 0 2 0 0
0 0 0 0 0 0 0 0 0 0 0 0 0 0 0 0 0 0 0 0 0 0 0 38 83 87 99 100 100 89 29 5 0 0 0 0 0 1 0 0 0 0 0 46 100 14 0 0 0
0 0 0 1 4 4 11 5 5 0 0 0 0 1 0 0 0 0 0 0 0 5 3 54 54 54 93 100 100 93 73 29 5 5 0 0 4 19 0 0 0 3 4 60 94 5 0 0 5
5 3 3 3 5 21 22 4 0 0 0 0 0 0 1 0 0 0 0 0 0 5 35 50 63 45 45 100 100 100 100 100 94 5 5 9 24 19 2 3 0 0 30 4 5 2 5 5 5
30 4 5 4 26 98 100 14 0 0 0 0 0 0 0 0 0 0 0 0 9 23 72 83 82 52 8 97 82 98 100 98 68 48 6 2 2 5 5 5 2 0 5 39 7 52 40 11 5
1 0 20 36 100 100 100 7 39 49 5 0 0 0 0 0 0 0 0 2 32 95 98 100 100 59 41 98 100 100 78 100 98 23 10 15 16 43 7 34 17 0 3 6 15 6 0 0 2
5 4 1 84 100 100 100 100 100 64 5 5 5 1 0 0 0 0 0 2 33 56 99 100 100 95 47 48 100 100 100 100 100 50 93 100 100 98 24 47 8 5 14 100 37 7 3 1 2
5 17 7 97 100 100 100 95 100 34 78 59 52 4 0 0 0 0 0 0 2 27 97 100 100 100 88 100 98 73 92 100 100 90 76 100 100 100 94 74 8 5 100 100 74 60 3 2 18
14 69 56 98 100 18 5 27 100 100 100 100 100 71 6 0 1 0 0 0 0 0 1 99 100 100 100 100 100 100 100 100 100 100 100 99 100 100 42 78 57 92 100 100 64 40 16 18 16
90 63 76 86 45 5 5 5 100 100 100 100 95 100 93 15 5 0 0 0 0 4 5 4 100 100 100 100 100 100 100 100 96 76 82 100 100 100 100 100 94 55 100 100 82 32 32 25 16
8 46 63 13 96 99 100 96 100 100 100 100 100 100 100 100 60 1 0 0 0 2 58 98 100 100 100 100 100 100 100 100 99 100 17 34 92 100 100 100 100 100 100 100 72 22 25 31 31
48 52 5 17 94 4 12 59 26 99 100 100 90 100 100 100 100 11 8 68 2 0 20 79 100 100 100 100 100 80 88 91 48 5 7 5 34 100 100 100 100 100 100 100 42 7 14 18 14
91 45 9 31 5 5 4 5 3 100 100 100 100 100 100 100 100 4 4 26 100 68 1 2 4 96 100 100 100 94 29 39 72 100 68 8 100 100 100 100 100 100 100 53 26 18 23 38 28
1 1 5 5 5 4 5 92 4 1 4 94 100 100 100 100 55 5 5 3 4 0 0 0 0 24 73 100 100 100 100 30 31 81 100 99 100 100 100 100 100 100 100 97 40 6 15 42 47
5 4 4 4 2 5 2 45 5 5 4 19 100 100 100 100 67 86 93 100 5 2 0 0 0 7 24 92 100 99 87 75 100 99 100 100 100 100 100 100 100 100 100 100 70 34 14 39 97
5 0 0 0 5 19 16 29 99 4 0 8 100 100 100 100 100 100 100 14 3 0 0 0 0 0 8 100 100 100 100 100 100 100 100 100 100 100 100 100 100 100 100 100 100 59 58 86 98
1 1 1 5 5 5 5 5 14 34 5 13 100 100 100 100 100 100 100 6 4 0 0 0 0 0 0 58 100 100 100 100 100 100 100 100 100 100 100 100 100 100 100 100 100 100 100 100 100
10 15 44 0 30 5 3 0 0 4 34 99 100 100 100 93 0 5 5 5 0 0 0 0 0 0 0 0 18 92 100 100 100 100 100 100 100 100 100 100 100 100 100 100 100 100 100 100 100
100 98 72 10 64 98 17 4 67 100 100 100 100 100 82 17 4 0 4 39 25 14 18 2 0 0 0 0 14 84 100 74 100 100 100 100 100 100 100 100 100 100 100 100 100 100 100 100 100
100 100 97 20 51 48 100 20 37 100 97 98 99 22 26 55 1 0 0 13 36 19 2 8 41 0 0 0 6 46 100 100 99 100 100 100 100 100 100 100 100 100 100 100 100 100 100 100 100
100 100 100 100 84 53 59 19 0 23 0 0 10 99 99 100 100 98 74 71 100 100 97 2 2 15 0 2 0 30 100 100 75 100 100 100 100 100 100 100 100 100 100 100 100 100 100 100 100
100 100 100 99 100 43 2 10 0 3 100 100 100 100 100 100 100 100 100 89 100 100 100 94 74 34 0 0 5 40 100 100 100 100 100 100 100 100 100 100 100 100 100 100 100 100 100 100 100
95 44 96 79 79 4 6 33 6 100 100 100 100 100 100 100 100 100 100 93 100 100 100 100 100 98 18 1 71 83 100 100 100 100 100 100 100 100 100 100 100 100 100 100 100 100 100 100 100
12 17 62 6 4 5 1 4 89 99 98 100 100 100 100 100 100 100 100 100 100 100 100 100 100 100 100 75 66 100 100 100 100 100 97 100 100 100 100 100 100 100 100 100 100 100 100 100 100
89 100 100 66 0 5 0 1 55 61 86 69 100 100 100 100 100 100 100 100 100 100 100 100 100 100 100 100 100 100 100 100 79 100 100 100 100 100 100 91 100 100 100 100 100 100 100 100 100
91 74 62 96 87 69 1 34 98 100 100 100 100 100 100 100 100 100 100 100 100 100 100 100 100 100 100 100 100 100 100 100 99 100 100 100 100 100 100 100 100 100 100 100 100 100 100 100 100
4 36 83 70 47 73 60 96 100 100 100 100 100 100 100 100 100 100 100 100 100 100 100 100 100 100 100 100 100 100 100 100 100 100 100 100 100 100 100 100 100 100 100 100 100 100 100 100 100
10 48 69 100 100 100 79 100 100 100 100 100 100 100 100 100 100 100 100 100 100 100 100 100 100 100 100 100 100 100 100 100 100 100 100 100 100 100 100 100 100 100 100 100 100 100 100 100 100

GFSSGP_prec_cloud_111.txt.gz
Cloud_Cover
0 0 0 0 0 0 0 0 0 0 0 0 0 0 0 0 0 0 0 0 0 0 0 1 3 4 1 0 0 0 2 17 6 2 0 0 0 0 0 0 0 0 0 0 0 0 0 0 0
0 0 0 0 0 0 0 0 0 0 0 0 0 0 0 0 0 0 0 0 0 0 0 0 11 5 64 51 3 0 3 21 36 15 2 0 0 0 0 0 0 0 0 0 0 0 0 0 0
0 0 0 0 0 0 0 0 0 0 0 0 0 0 0 0 0 0 0 0 0 0 0 0 1 1 3 5 95 92 24 6 21 8 5 5 2 0 0 0 0 0 0 0 0 0 1 4 0
0 0 0 0 0 0 0 0 0 0 0 0 0 0 0 0 0 0 0 0 0 0 0 38 6 4 0 1 5 21 100 57 34 68 13 5 9 5 2 4 2 0 0 0 0 6 5 0 0
5 3 0 1 4 16 4 2 0 1 2 0 1 0 0 0 0 0 0 0 0 0 0 33 98 15 0 0 0 0 4 96 9 98 100 24 99 7 5 5 6 5 5 5 12 6 5 5 2
6 5 5 1 2 3 21 4 4 2 0 0 0 4 0 0 0 0 0 0 0 5 9 27 100 98 13 6 0 0 5 2 72 31 100 100 100 56 37 6 64 47 43 28 99 5 37 5 5
34 29 5 5 5 94 76 3 0 0 0 0 0 2 0 0 0 0 0 0 12 52 38 48 100 100 33 9 3 0 5 5 17 98 81 48 65 30 5 40 30 86 48 15 5 5 99 81 70
69 25 96 50 5 5 4 5 5 5 6 5 0 0 0 0 4 1 0 4 57 84 74 54 100 100 95 62 22 5 5 100 75 5 74 48 19 65 100 41 77 32 82 98 11 5 27 100 85
100 94 98 59 5 5 27 15 100 27 6 12 14 9 1 1 1 2 24 2 15 97 92 99 100 100 99 49 30 36 14 4 8 10 25 98 43 21 57 72 100 100 100 40 5 7 79 100 10
100 100 100 80 7 48 100 96 86 21 30 76 72 90 18 3 5 5 5 5 0 33 100 100 100 100 100 74 78 58 58 26 9 5 20 32 61 100 100 100 100 100 97 98 15 22 100 100 40
100 100 97 56 100 100 21 6 54 98 67 78 84 85 7 99 83 16 26 90 6 2 0 57 100 100 100 100 100 100 100 100 100 97 84 71 89 52 47 96 100 100 62 70 86 96 100 100 91
100 100 100 100 53 72 67 84 96 39 99 100 96 77 31 100 100 100 22 74 100 23 4 0 9 84 100 100 100 100 100 100 100 100 100 99 100 100 100 36 60 60 96 100 78 100 100 100 50
100 100 88 97 100 84 55 68 47 100 45 5 79 100 100 100 99 100 100 100 100 100 61 15 5 8 60 100 100 100 100 100 100 100 100 100 100 100 100 79 46 55 62 50 100 100 100 100 50
100 100 100 100 100 100 47 58 98 89 64 12 6 8 72 99 100 100 100 100 100 100 100 83 5 5 0 46 67 100 100 100 100 100 83 100 100 100 100 100 68 67 59 100 100 100 100 100 71
100 100 100 100 100 95 99 99 100 18 13 6 54 91 21 15 92 100 100 100 100 100 100 100 6 0 0 0 13 100 100 100 100 100 86 95 100 100 100 100 100 79 95 100 100 100 100 100 63
100 100 100 100 100 100 99 100 43 12 5 5 5 5 45 97 65 93 100 90 100 100 100 100 64 2 14 12 77 31 48 100 100 100 100 100 52 61 22 100 100 100 100 100 100 100 100 80 64
100 100 100 100 100 97 58 87 24 8 5 2 5 35 71 100 96 61 88 7 100 100 100 100 96 16 9 5 28 91 9 23 100 100 100 100 100 26 74 100 100 100 100 100 100 100 100 74 81
90 78 91 100 100 13 62 62 5 4 5 5 12 85 100 84 98 100 97 76 74 100 81 53 100 100 71 4 19 74 68 36 4 94 100 100 93 100 100 100 100 100 100 100 100 100 100 98 89
78 12 1 5 5 5 5 17 36 2 4 4 100 100 28 5 5 54 100 100 84 100 100 100 100 99 53 5 33 95 100 100 51 18 100 100 94 100 100 100 100 100 100 100 100 100 97 100 100
5 5 5 4 5 0 0 1 26 22 100 94 48 56 76 5 44 13 96 100 100 100 100 100 100 100 15 0 0 0 0 98 64 44 56 100 100 100 100 100 100 100 100 100 100 100 100 100 83
35 42 84 30 10 8 10 1 100 99 5 5 2 13 53 81 80 59 100 100 100 100 100 100 87 100 19 3 0 0 21 58 94 100 100 100 100 100 100 100 100 100 100 100 100 100 100 100 100
93 100 52 99 99 72 100 18 5 3 4 1 93 100 100 100 100 100 100 100 100 100 100 100 100 100 100 95 4 0 0 34 86 97 100 100 100 100 100 100 100 100 100 100 100 100 100 100 100
98 100 90 100 100 100 100 94 0 1 48 95 100 100 100 100 98 100 100 100 100 74 66 100 91 31 100 65 3 0 0 0 0 39 82 100 100 100 100 100 100 100 100 100 100 100 100 100 78
100 97 100 100 100 100 100 35 24 20 100 100 100 96 75 52 39 100 100 100 100 100 100 100 100 100 56 52 0 0 0 0 0 42 59 100 100 100 100 100 100 100 100 100 100 100 100 100 92
100 100 100 100 100 100 100 100 78 100 100 100 100 100 81 48 58 68 94 98 98 100 100 100 100 100 100 99 1 0 4 26 17 52 35 100 100 100 100 100 100 100 100 100 100 100 100 100 100
100 100 100 100 100 99 100 42 5 99 60 82 100 99 72 72 60 54 96 100 100 100 100 100 100 100 100 100 82 10 0 100 82 70 68 76 100 100 100 100 100 100 100 100 100 100 100 100 100
56 85 89 93 54 7 4 18 61 76 64 54 67 58 65 73 78 90 100 100 100 100 100 100 100 100 100 100 100 80 51 100 100 100 89 34 100 79 96 100 100 100 100 100 100 100 100 100 100
100 93 77 80 87 89 4 4 26 68 90 74 72 99 83 99 100 100 100 100 100 100 100 100 100 100 100 100 100 100 37 100 100 100 71 100 100 100 100 100 100 100 100 100 100 100 100 100 100
60 48 11 21 29 100 98 44 100 100 100 100 100 100 100 100 100 100 100 100 100 100 100 100 100 100 100 100 100 100 100 100 100 100 99 100 100 100 100 100 100 98 100 100 100 100 100 100 100
95 12 77 99 93 100 100 100 100 100 100 100 100 100 100 100 100 100 100 100 100 100 100 100 100 100 100 100 100 100 100 100 100 100 100 100 100 100 100 100 98 100 100 100 100 100 100 100 100

GFSSGP_prec_cloud_114.txt.gz
Cloud_Cover
0 0 0 0 0 0 0 0 0 0 0 0 0 0 0 0 0 0 0 0 0 0 0 1 0 0 0 0 0 0 0 2 1 0 0 0 4 1 0 0 0 0 0 0 0 0 0 0 0
0 0 0 0 0 0 0 0 0 0 0 0 0 0 0 0 0 0 0 0 0 0 0 0 3 0 0 0 2 5 2 3 5 5 5 5 4 5 2 0 0 0 0 0 0 0 0 0 0
0 1 0 0 0 0 0 0 0 0 0 0 0 0 0 0 0 0 0 0 0 0 0 0 0 0 0 0 0 4 7 7 4 5 24 51 10 5 5 5 4 1 4 2 0 0 0 0 4
36 47 5 5 5 0 0 0 0 0 0 0 0 0 0 0 0 0 0 0 0 0 0 52 1 0 0 0 0 0 0 4 5 5 6 63 100 100 93 5 3 5 5 5 1 2 1 2 5
6 8 39 76 13 5 4 0 0 0 0 0 0 0 2 2 0 0 0 0 0 0 0 4 21 0 0 0 0 0 0 0 0 2 32 6 100 100 99 86 42 38 9 6 10 5 5 5 5
62 28 22 97 100 100 12 4 0 0 0 0 2 1 5 0 0 3 0 0 0 0 10 34 77 4 0 0 0 0 0 0 0 0 0 0 33 100 100 100 100 41 70 64 5 5 12 5 5
99 100 67 100 100 100 21 5 5 4 4 2 2 2 4 0 0 0 0 0 0 4 14 71 83 31 44 0 0 0 0 0 0 0 0 0 5 13 51 100 100 21 79 73 100 57 24 10 7
100 100 99 100 100 94 14 30 7 22 0 2 5 0 4 5 1 0 0 0 30 46 53 81 100 50 0 1 13 0 0 0 0 0 0 7 9 2 8 9 53 94 100 100 98 46 63 100 24
100 100 100 100 100 100 100 100 100 16 8 73 10 4 5 6 30 8 5 5 4 64 98 100 100 100 59 25 12 53 25 1 9 15 10 68 1 2 7 5 5 5 21 88 100 100 100 100 16
100 100 100 100 100 100 100 100 100 56 66 100 96 5 5 5 82 27 28 80 5 84 51 100 100 100 100 5 30 6 0 0 0 0 0 0 21 92 52 22 99 100 100 100 100 100 100 96 8
82 93 100 100 100 100 100 100 100 100 55 100 69 9 22 98 98 100 100 100 100 100 100 100 77 100 100 6 85 13 12 1 6 10 8 2 42 100 35 90 84 100 100 100 100 100 100 82 50
78 100 100 100 100 100 100 100 100 100 100 90 30 34 10 12 78 94 100 100 100 100 100 100 100 100 100 100 100 100 30 85 72 41 14 3 26 44 97 50 78 79 16 94 100 100 100 100 99
55 99 100 100 100 100 100 100 100 100 100 100 55 88 90 35 9 51 33 98 100 100 100 100 100 100 100 100 100 100 28 3 43 90 99 18 87 66 28 9 45 48 92 93 100 100 100 100 100
12 50 100 100 100 100 100 100 100 100 100 100 100 100 53 33 29 56 15 19 94 82 99 100 100 100 100 100 100 78 100 8 43 98 98 98 20 17 100 7 24 26 92 78 99 100 100 98 100
5 19 100 100 100 100 100 100 100 100 100 100 100 100 98 98 45 5 5 5 5 67 95 79 100 100 100 100 100 100 100 82 2 99 100 100 100 67 100 97 6 28 77 92 97 100 100 100 100
5 5 44 58 100 100 100 100 100 100 100 100 100 100 100 100 86 31 5 4 5 5 32 6 5 81 100 100 100 100 100 96 5 19 0 44 98 100 97 100 93 24 90 100 94 100 100 100 100
5 4 12 95 100 100 100 100 100 100 100 100 100 100 90 18 42 59 5 3 13 36 97 66 26 28 74 100 100 100 100 99 5 5 1 0 51 100 100 99 100 100 96 100 100 100 100 100 100
16 5 5 5 64 100 100 100 100 100 100 100 89 100 96 75 26 5 44 20 5 18 96 100 100 94 87 100 100 100 100 88 10 6 3 1 2 96 100 100 97 100 100 100 94 100 100 100 100
23 50 5 6 16 7 96 100 100 100 78 47 27 5 5 5 11 84 64 90 79 68 100 100 63 6 16 98 95 100 100 100 84 6 4 0 0 9 100 100 100 97 100 100 100 100 100 100 100
5 5 66 36 5 5 15 12 5 4 0 0 5 5 2 3 5 10 98 97 100 100 89 86 87 100 11 3 100 100 100 100 100 70 5 22 38 2 5 100 100 100 100 100 100 100 100 100 100
17 5 5 9 5 6 5 55 6 3 1 0 2 37 46 5 5 5 77 93 97 100 100 100 93 100 100 59 4 63 100 100 100 91 62 96 18 0 0 71 100 100 100 100 100 100 100 100 100
100 91 96 100 36 6 9 2 87 70 30 2 98 100 95 29 8 95 98 98 99 100 100 100 100 100 91 100 100 95 96 100 100 100 100 22 15 44 52 64 100 100 100 100 100 100 100 100 100
100 100 100 100 99 40 34 47 95 35 1 6 100 100 100 100 100 94 50 98 100 100 100 100 100 100 100 93 16 31 63 98 100 100 100 100 75 84 100 99 100 100 100 100 100 100 100 100 100
100 100 100 100 100 93 68 92 98 85 20 99 100 100 100 100 98 98 73 44 50 51 41 53 84 94 91 90 80 66 39 8 33 100 100 100 54 79 100 100 100 100 100 100 100 100 100 100 100
100 100 100 100 62 5 2 4 11 15 100 100 100 100 100 100 71 79 90 59 81 76 69 57 65 75 69 100 100 98 47 100 8 16 100 100 73 100 100 100 100 100 100 100 100 100 100 100 100
100 100 100 75 73 97 5 2 95 92 100 100 100 100 100 97 100 100 100 100 90 93 100 100 99 98 79 100 100 100 86 12 4 2 10 100 35 100 100 100 100 100 100 100 100 100 100 100 100
99 100 100 100 65 36 92 73 12 43 99 54 68 72 100 98 98 100 100 100 100 95 100 100 100 100 100 100 100 100 82 42 0 8 15 8 48 98 100 100 100 100 100 100 100 100 100 100 100
100 80 100 99 98 100 100 98 76 87 74 83 96 100 100 100 93 100 100 100 100 100 100 100 100 100 100 100 100 100 100 31 100 96 33 55 81 100 100 100 100 100 100 100 100 100 100 100 100
85 92 100 100 100 100 100 92 100 100 100 100 91 92 100 100 100 100 100 100 100 100 100 100 100 100 100 100 100 100 100 46 97 51 100 100 100 34 100 100 100 100 100 100 100 100 100 100 100
6 99 100 100 99 100 100 54 100 100 100 91 100 99 100 100 100 100 100 100 100 100 100 100 100 100 100 100 100 100 100 100 66 99 100 100 45 100 100 100 100 100 100 100 100 100 100 100 100

GFSSGP_prec_cloud_117.txt.gz
Cloud_Cover
0 0 0 0 0 0 0 0 0 0 0 0 0 0 0 0 0 0 0 0 0 0 0 1 0 0 0 0 0 0 0 0 0 0 2 3 5 5 4 4 4 5 2 0 0 0 1 0 0
5 5 5 5 3 0 0 0 0 0 0 0 0 0 0 0 0 0 0 0 0 0 0 0 0 0 0 0 0 0 0 0 0 1 2 2 4 5 0 5 0 5 15 5 10 8 11 0 1
17 6 11 38 62 5 0 0 0 0 0 0 0 0 0 0 0 0 0 0 0 0 0 0 0 0 0 0 0 0 0 0 0 0 0 0 3 4 5 26 90 5 5 5 1 3 4 1 5
86 42 6 6 5 5 5 0 0 0 0 0 0 0 0 0 0 0 0 0 0 0 0 65 0 0 0 0 0 0 0 0 0 0 0 0 0 5 7 28 100 100 100 12 5 5 5 5 4
100 100 95 61 90 57 5 3 5 1 0 0 0 0 0 0 0 0 0 0 0 0 12 0 0 0 0 0 0 0 0 0 0 0 0 0 0 0 2 11 100 100 81 63 26 7 4 26 5
6 9 98 100 98 88 47 5 9 5 5 4 2 4 0 1 0 0 0 0 0 2 21 2 25 0 0 0 0 0 0 0 0 0 0 0 0 0 0 0 0 24 48 86 95 100 4 46 46
11 56 12 100 100 100 100 100 100 93 11 5 13 1 4 1 17 5 3 0 2 3 3 35 29 4 44 0 0 0 0 0 0 0 0 0 0 0 0 0 0 0 62 65 100 100 42 19 10
5 5 45 43 99 100 100 100 100 100 100 100 63 68 100 0 38 5 5 5 3 18 41 28 59 29 0 1 7 0 0 0 0 0 0 0 6 0 8 3 16 3 1 5 93 100 79 87 35
6 7 15 73 66 100 100 100 100 100 100 100 100 100 64 41 32 25 28 12 24 24 100 100 71 92 28 3 5 53 26 1 9 10 8 68 0 1 8 1 2 5 5 5 5 5 9 36 33
89 23 13 17 60 100 100 100 100 100 100 100 100 100 100 100 100 48 5 5 32 80 15 89 100 100 78 32 39 19 3 10 0 0 0 0 0 54 23 18 3 70 5 56 100 100 95 98 100
49 19 19 70 73 93 100 100 100 100 100 100 100 100 100 100 100 97 100 100 100 100 100 99 100 100 100 98 90 98 100 55 28 6 4 0 3 21 31 42 5 11 28 96 100 100 100 100 86
95 86 38 7 20 100 100 100 100 100 100 100 100 100 100 100 100 100 100 100 100 33 66 64 100 100 100 95 100 100 100 100 100 6 6 3 5 20 44 63 98 30 26 73 100 74 100 100 100
10 58 30 8 5 30 100 100 100 100 100 100 100 100 100 51 59 100 100 100 95 60 42 95 88 100 100 100 100 100 100 100 100 100 28 5 5 5 20 23 87 75 69 48 85 99 100 100 100
5 5 8 24 23 20 51 100 100 100 100 100 99 100 100 90 99 100 100 100 100 89 64 100 33 51 100 96 100 100 100 100 72 95 79 4 5 6 5 28 96 96 100 100 97 44 100 100 100
5 5 5 5 10 63 6 75 100 100 100 100 100 100 100 100 100 100 100 100 100 100 43 31 60 5 6 73 100 100 100 100 89 78 100 100 20 33 7 21 80 83 54 66 98 73 100 100 100
5 5 4 3 5 19 9 72 99 38 100 100 100 100 100 100 100 100 100 100 40 9 77 100 51 12 25 5 5 56 100 100 100 100 100 100 88 16 21 37 41 100 54 72 97 96 70 79 100
7 5 5 5 3 5 3 5 5 27 100 100 100 100 100 100 100 100 100 100 100 90 11 14 59 36 5 5 3 58 100 100 100 100 100 100 100 100 16 29 74 98 51 59 99 100 100 69 76
84 58 28 52 11 0 5 5 5 5 25 100 100 100 100 100 100 100 100 68 82 28 5 2 5 5 13 80 99 100 69 77 62 99 100 100 100 100 93 5 40 69 97 65 100 100 100 100 100
80 93 69 0 0 0 1 0 5 5 5 5 99 100 100 100 100 100 100 96 77 18 5 5 5 0 4 5 36 100 100 100 100 100 100 100 100 100 100 72 4 5 76 48 70 92 89 100 100
5 17 1 0 0 0 0 4 0 3 10 5 6 5 96 100 98 71 53 18 5 5 2 5 94 48 35 23 61 81 69 38 12 24 89 100 100 100 100 89 46 13 30 99 100 92 100 100 100
0 0 0 0 0 0 5 0 0 5 4 7 5 5 5 5 8 5 5 5 4 5 3 4 0 29 91 46 6 16 81 67 5 33 30 100 100 100 100 100 22 0 17 90 100 100 100 100 100
5 44 3 4 2 0 13 5 0 91 100 41 0 61 6 8 5 5 5 5 5 5 8 35 47 18 86 100 100 85 4 4 5 6 100 36 100 100 100 100 54 4 27 28 99 100 100 100 100
41 95 96 100 13 46 0 100 1 100 100 100 25 6 5 5 98 100 100 89 83 65 74 74 92 88 100 100 100 81 94 95 100 85 84 100 18 100 100 100 93 57 61 31 79 100 100 100 100
61 79 91 62 99 53 72 100 6 92 98 94 27 86 100 100 100 100 100 69 100 100 100 100 100 99 81 94 97 100 84 52 19 9 100 100 95 68 100 100 100 43 76 83 57 100 88 100 100
5 50 20 80 100 48 99 88 100 100 53 80 96 34 19 88 74 90 94 99 100 100 100 100 100 100 98 89 100 100 100 90 97 100 45 100 100 100 100 100 100 100 97 100 96 92 93 100 100
95 95 100 78 100 99 99 6 100 5 22 100 100 95 100 100 98 99 78 100 100 100 100 100 100 100 100 100 100 96 100 100 77 31 72 100 100 100 100 100 100 100 98 100 100 100 100 100 100
14 6 98 54 80 84 90 100 100 34 69 82 100 89 100 100 100 100 100 100 100 100 100 100 100 100 100 100 100 100 100 100 100 30 2 22 77 100 99 71 99 100 100 100 100 97 100 100 100
5 86 64 98 100 100 100 100 100 100 100 100 98 100 100 100 100 100 100 100 93 81 100 100 100 100 100 100 100 100 100 100 100 98 0 0 0 57 31 98 55 100 100 100 100 100 100 100 100
49 100 99 100 100 100 100 100 100 100 100 92 100 94 81 100 100 100 91 91 100 100 93 100 100 100 100 100 100 100 100 100 100 100 0 0 0 0 34 67 50 100 100 100 100 100 100 100 100
100 86 99 100 100 100 98 100 100 100 100 100 100 100 100 100 100 100 100 100 100 100 100 100 100 100 100 100 100 100 100 100 100 96 91 65 11 9 99 96 57 64 100 100 100 100 100 100 100

GFSSGP_prec_cloud_120.txt.gz
Cloud_Cover
2 6 9 0 0 0 0 0 0 0 0 0 0 0 0 0 0 0 0 0 0 0 0 0 0 0 0 0 0 0 0 0 0 0 0 0 4 2 3 39 19 33 14 26 5 6 5 4 0
2 0 4 32 2 5 4 43 2 0 0 0 0 0 0 0 0 0 0 0 0 0 0 0 0 0 0 0 0 0 0 0 0 0 0 0 0 0 0 5 5 10 12 9 100 5 37 5 5
5 5 5 5 37 63 3 13 0 1 0 0 0 0 0 0 0 0 0 0 0 0 0 0 0 0 0 0 0 0 0 0 0 0 0 0 0 0 0 0 4 3 7 5 67 77 79 52 25
5 80 55 77 7 58 57 80 0 0 0 0 0 0 0 0 0 0 0 0 0 0 0 34 0 0 0 0 0 0 0 0 0 0 0 0 0 0 0 0 0 0 0 6 51 96 67 100 13
42 22 73 13 5 5 9 44 7 5 0 0 0 0 2 24 3 2 1 0 0 0 0 0 0 0 0 0 0 0 0 0 0 0 0 0 0 0 0 0 0 0 0 0 16 99 100 0 68
95 100 100 71 4 4 19 5 90 2 48 5 6 98 100 1 32 100 4 0 0 3 2 0 4 0 0 0 0 0 0 0 0 0 0 0 0 0 0 0 0 0 0 0 0 20 25 100 100
100 100 100 87 100 64 92 3 96 38 100 7 96 100 100 9 100 100 8 36 11 3 62 20 0 0 10 0 0 0 0 0 0 0 0 0 0 0 0 0 0 0 0 0 0 0 3 89 100
100 100 78 20 9 64 5 9 5 100 100 100 76 20 100 100 100 100 100 100 85 13 81 8 0 0 0 4 6 0 0 1 0 0 0 0 6 0 0 1 5 0 0 0 0 3 5 5 46
100 78 30 40 4 100 45 5 5 100 100 100 100 100 100 99 100 100 100 100 100 100 100 100 62 4 3 4 1 26 0 1 17 28 33 75 3 1 1 0 0 0 1 1 2 5 30 16 53
100 46 21 5 8 57 20 5 5 74 95 100 100 100 100 100 100 100 100 100 100 100 100 3 34 87 36 23 2 2 0 1 17 61 64 4 9 100 10 0 0 0 0 0 0 33 95 100 100
100 99 10 6 9 31 51 20 5 10 98 100 100 100 100 100 100 100 100 100 100 100 100 24 20 100 28 28 46 11 5 90 80 6 50 100 9 66 1 0 2 0 20 9 34 45 30 98 100
100 100 71 74 5 8 5 66 5 39 100 100 39 80 99 100 100 100 100 100 100 100 99 97 100 100 100 64 91 98 100 99 99 100 100 90 3 19 95 10 1 0 0 0 5 8 62 33 40
51 58 69 10 5 5 7 16 7 35 34 49 100 100 100 99 100 100 99 97 55 4 40 79 100 96 98 93 25 100 100 62 100 100 100 97 47 36 59 1 32 100 0 5 2 9 16 50 49
75 72 36 5 5 5 5 5 5 6 20 5 100 100 100 100 100 100 80 73 64 47 67 93 100 100 100 36 82 100 100 100 100 100 100 100 75 46 100 92 53 96 5 5 5 40 41 50 17
100 99 79 100 13 5 0 0 7 3 43 20 7 27 76 100 100 100 100 100 76 98 99 7 5 34 100 100 94 7 97 100 100 100 100 100 100 83 97 80 22 94 77 5 44 38 92 65 100
69 100 43 79 40 5 6 25 9 4 4 5 26 85 100 62 100 100 100 100 100 99 100 100 100 100 100 97 91 50 77 100 90 89 100 100 100 97 100 95 100 7 100 45 12 73 100 99 100
100 5 26 90 98 41 8 86 100 100 78 25 42 28 64 83 70 100 100 100 100 100 100 100 100 100 100 100 100 100 78 15 49 100 92 100 100 100 100 14 100 100 98 28 99 5 34 100 100
5 15 71 38 87 9 14 3 5 15 45 22 4 5 6 0 1 7 84 100 100 100 100 100 99 97 79 34 17 6 8 2 5 53 51 55 97 94 18 96 91 80 100 71 98 56 6 100 100
82 69 5 5 5 88 0 0 0 0 0 5 5 0 0 1 0 0 1 15 100 100 100 100 100 100 100 100 50 71 40 5 49 1 8 100 100 100 100 76 96 37 44 100 100 69 5 6 100
100 100 82 5 1 1 0 0 1 0 0 0 0 0 0 0 0 0 0 0 12 98 100 100 100 100 100 100 100 65 14 6 7 35 5 10 88 100 100 100 100 100 19 73 100 100 5 68 62
100 100 47 5 5 0 1 0 0 0 0 4 46 26 1 0 0 0 3 1 0 2 10 18 36 33 22 5 5 5 5 21 39 6 22 26 5 42 84 100 100 100 30 24 61 65 33 5 58
27 24 2 3 0 0 0 2 2 0 0 89 100 73 0 0 4 2 0 2 5 5 5 5 5 4 5 11 5 47 29 34 67 100 93 100 90 16 92 62 93 98 10 64 100 100 52 12 5
2 2 3 5 2 3 2 84 2 0 8 32 6 17 98 100 100 100 56 6 5 5 5 5 5 5 5 53 100 100 88 8 5 5 5 15 98 85 5 100 74 100 13 98 100 83 100 23 48
5 12 5 20 50 57 0 2 0 12 12 61 100 100 100 100 97 48 92 59 28 5 5 9 6 60 38 8 64 100 100 100 63 70 9 34 16 100 34 37 74 94 100 97 100 100 100 96 30
5 31 83 53 99 58 27 100 100 36 5 24 6 100 100 89 50 89 41 56 64 82 60 76 99 100 100 88 87 100 100 100 100 100 100 99 82 94 100 16 96 100 92 16 34 100 100 98 84
30 100 100 98 65 99 9 9 100 78 95 96 100 100 100 100 26 61 66 74 94 100 100 100 100 100 98 100 100 100 100 100 100 100 100 100 100 8 100 100 100 100 95 100 54 84 100 100 100
90 100 100 100 100 23 2 60 100 82 86 71 52 94 100 100 100 100 100 100 100 100 98 100 100 100 86 100 100 100 100 100 100 100 100 96 0 0 3 100 5 99 100 100 100 74 100 100 100
100 95 12 60 43 98 99 100 100 100 100 100 100 100 100 68 82 98 87 72 92 80 87 96 53 86 100 100 100 100 100 100 100 100 100 100 38 6 0 0 28 100 100 100 100 100 100 100 100
95 91 32 52 78 100 100 100 100 100 100 100 100 100 89 76 72 91 76 92 97 76 91 99 96 100 100 100 100 100 100 100 100 100 100 98 97 6 0 2 100 100 100 100 100 100 100 100 100
58 55 61 100 100 100 98 5 80 100 100 100 100 100 90 79 70 81 98 100 100 100 100 100 100 100 100 100 100 100 100 100 100 100 100 100 99 40 96 22 100 100 100 100 100 100 100 100 100

GFSSGP_prec_cloud_123.txt.gz
Cloud_Cover
0 0 0 0 0 0 0 0 0 0 0 0 0 0 0 0 0 0 0 0 0 0 0 0 0 0 0 0 0 0 0 0 0 0 0 0 0 0 0 0 0 0 0 0 5 9 6 6 89
4 0 0 1 3 4 0 0 0 0 0 0 2 0 0 0 0 0 0 0 0 0 0 0 0 0 0 0 0 0 0 0 0 0 0 0 0 0 0 0 0 0 0 0 0 5 47 33 72
0 3 5 1 0 1 1 0 0 0 0 1 4 3 0 0 0 0 0 0 0 0 0 0 0 0 0 0 0 0 0 0 0 0 0 0 0 0 0 0 0 0 0 0 1 0 2 36 100
4 0 3 3 35 26 32 0 0 0 0 0 14 2 0 0 0 0 1 0 0 1 0 0 0 0 0 0 0 0 0 0 0 0 0 0 0 0 0 0 0 0 0 0 0 0 0 2 27
5 31 85 82 100 100 85 1 0 0 0 0 70 59 5 5 5 5 5 31 5 4 14 1 0 0 0 0 0 0 0 0 0 0 0 0 0 0 0 0 0 0 0 0 0 0 0 0 5
94 84 100 100 100 100 94 5 0 1 5 69 1 37 100 68 100 92 100 100 8 60 100 8 5 3 0 0 5 0 0 0 0 0 0 0 0 0 0 0 0 0 0 0 0 0 0 0 0
54 100 100 100 100 100 100 100 5 2 5 2 99 74 23 100 74 100 100 100 100 100 100 40 24 66 7 100 95 7 0 0 0 0 0 0 0 0 0 0 1 1 0 0 0 0 0 0 0
5 94 100 100 100 100 100 13 2 35 47 15 5 5 5 31 7 93 100 100 94 89 100 100 97 100 100 100 100 18 6 1 0 0 0 1 4 31 5 1 82 28 1 0 0 0 2 2 4
6 11 18 53 23 97 16 69 5 26 5 5 51 70 5 5 1 58 100 100 100 100 98 100 100 100 100 100 100 7 7 10 3 2 2 96 24 32 5 99 100 79 3 1 0 0 0 0 4
100 78 5 18 13 55 5 5 5 6 5 5 5 5 3 3 47 24 100 100 100 100 95 98 100 100 98 100 100 89 25 83 100 66 90 64 21 14 5 58 100 29 99 7 0 0 0 6 35
61 25 23 5 25 39 12 8 5 5 17 5 5 64 88 46 73 100 100 82 39 93 100 100 72 67 99 100 100 21 15 43 60 54 89 99 73 89 78 53 5 88 100 27 25 25 42 30 6
100 100 4 7 19 99 5 5 5 12 6 4 8 4 5 5 72 25 100 100 100 79 24 95 100 100 100 91 95 52 44 99 87 100 57 95 100 91 99 99 18 28 38 61 60 70 42 12 0
100 100 100 100 100 100 75 5 5 86 14 5 4 5 2 5 8 53 6 99 100 100 97 66 100 100 100 60 64 100 100 100 100 100 100 88 100 100 100 98 20 47 34 25 53 46 21 0 0
100 100 100 100 100 59 100 16 5 100 5 5 5 29 4 0 20 5 93 77 51 100 100 100 100 100 100 95 82 100 100 100 100 100 100 100 100 100 100 100 6 100 4 24 100 45 5 2 5
100 100 100 100 100 100 73 5 5 67 43 37 42 100 99 71 5 2 5 6 54 80 98 100 100 100 100 100 23 6 17 53 100 100 100 100 100 100 80 100 30 5 5 8 100 99 39 23 0
100 100 100 100 100 100 100 95 5 88 85 6 5 11 98 89 8 5 2 5 35 75 85 100 100 100 100 100 94 95 94 58 30 93 96 100 100 100 100 100 43 21 5 0 19 97 100 72 2
100 100 100 100 100 100 72 60 97 37 5 14 5 84 34 5 1 0 0 0 5 71 75 95 100 100 100 100 100 100 52 5 30 65 17 96 100 100 100 100 54 77 65 13 0 74 99 94 100
100 100 100 100 100 100 85 8 30 100 100 75 76 89 66 56 0 0 2 1 0 1 7 5 12 100 100 100 100 100 100 100 79 27 29 78 96 100 100 100 100 100 99 5 4 0 9 26 100
100 100 100 100 98 100 96 21 100 87 100 100 100 100 5 0 0 0 0 0 0 0 0 0 0 0 25 100 100 100 100 100 100 30 30 10 8 76 100 100 96 100 100 47 4 0 0 6 87
4 4 5 5 43 93 88 93 87 83 68 97 34 29 1 0 0 0 0 0 0 0 0 0 0 0 0 1 87 100 100 100 100 100 73 50 3 14 48 92 100 100 100 100 9 5 4 5 3
5 6 25 3 4 5 5 45 39 100 19 59 2 0 0 0 0 0 0 0 0 0 0 0 0 0 5 5 12 19 100 100 100 100 100 92 94 14 5 82 100 100 100 100 30 11 24 5 43
5 5 0 1 5 5 82 22 0 0 0 4 4 4 0 0 0 55 84 6 0 0 4 5 1 0 0 5 82 35 4 45 100 100 100 90 87 54 6 9 100 100 100 100 98 8 15 63 100
0 1 4 0 0 0 85 41 11 1 2 0 0 0 0 6 20 98 61 35 100 100 100 100 87 7 5 5 5 30 18 2 31 12 58 85 11 96 43 84 12 98 100 100 100 76 100 100 100
2 4 5 5 3 0 22 85 6 5 2 2 4 12 82 16 27 40 32 5 5 47 94 65 60 74 61 5 5 5 6 7 20 61 18 5 3 16 84 99 92 10 70 100 100 100 100 100 100
5 5 3 2 5 2 5 96 100 5 5 10 81 91 95 8 5 6 34 5 5 5 6 42 61 56 54 15 5 5 33 86 74 74 95 75 10 6 45 100 99 14 5 5 66 100 100 100 100
46 71 65 76 3 5 28 71 100 20 84 98 79 86 100 67 6 23 15 6 25 36 49 78 97 100 95 41 55 49 74 100 100 100 100 96 76 67 34 58 100 100 5 7 2 89 100 100 100
5 5 97 100 20 29 10 71 19 15 33 50 26 15 87 9 7 39 44 48 64 51 97 100 100 98 97 100 100 100 100 100 100 100 100 100 90 75 46 88 100 100 45 0 2 74 82 100 100
5 5 4 84 48 51 10 39 100 92 100 100 100 100 87 85 46 45 51 60 36 52 98 100 68 99 98 98 100 100 100 100 100 100 100 100 100 100 100 98 100 100 100 5 0 47 100 100 100
72 5 47 64 54 29 14 2 99 100 70 91 100 85 99 97 38 66 47 36 60 81 99 100 96 100 88 100 100 100 100 100 100 100 100 100 100 100 63 100 97 25 98 95 2 4 100 100 100
5 10 70 100 7 99 100 37 55 100 61 97 93 100 100 98 76 70 71 80 100 100 100 100 100 100 100 100 100 100 100 100 100 100 100 100 100 100 100 100 100 76 61 23 3 3 100 100 100

GFSSGP_prec_cloud_126.txt.gz
Cloud_Cover
100 100 89 0 0 0 0 0 0 0 0 0 0 0 0 0 0 0 0 0 0 0 0 0 0 0 0 0 0 0 0 0 0 0 0 0 0 0 0 0 0 0 0 0 0 0 0 0 5
100 100 40 5 0 0 0 0 0 2 4 0 0 0 0 0 0 0 0 0 0 0 0 0 0 0 0 0 0 0 0 0 0 0 0 0 0 0 0 0 0 0 0 0 0 0 0 1 0
4 29 21 2 24 3 0 2 0 75 95 4 0 0 0 0 0 4 0 0 0 0 0 14 0 0 0 0 0 0 0 0 0 0 0 0 0 0 0 0 0 0 0 9 12 2 0 0 0
4 20 2 8 68 82 64 18 5 100 100 10 4 0 0 0 0 3 5 1 5 4 2 5 5 0 0 4 0 0 0 0 0 0 0 0 0 0 0 0 0 0 0 0 0 0 0 0 0
5 15 97 6 68 100 38 85 98 100 100 34 0 0 0 0 2 90 91 100 5 5 5 5 2 3 5 5 0 0 0 11 5 0 0 0 0 0 0 0 0 0 0 1 0 0 0 0 0
68 51 5 24 6 63 5 10 5 86 55 2 0 4 1 0 0 3 100 100 91 5 5 5 3 5 5 17 7 19 59 100 82 22 0 0 0 0 0 0 0 0 1 59 4 0 0 0 0
35 67 5 12 5 5 49 5 5 6 24 10 0 2 0 0 0 0 76 100 100 24 4 5 5 0 5 8 99 100 100 100 100 100 6 0 0 0 0 0 0 1 1 93 74 4 2 0 0
100 99 19 86 23 11 76 10 74 39 5 5 0 0 2 3 3 0 0 68 100 91 1 100 90 12 100 100 61 22 100 100 100 100 10 0 0 5 5 5 5 2 7 96 5 98 65 0 0
99 91 100 100 100 100 25 24 5 7 28 5 5 3 0 4 5 5 0 44 45 96 93 22 52 100 100 100 95 30 10 56 100 99 100 80 29 11 16 8 5 35 10 9 90 99 5 0 1
82 100 100 100 100 100 100 100 93 20 43 11 5 5 15 0 3 5 5 17 5 4 16 99 39 75 85 62 36 32 53 100 89 97 83 99 85 100 100 70 56 91 100 71 12 5 0 4 33
81 100 98 100 72 66 100 100 100 39 99 23 5 5 5 1 0 0 5 0 1 1 59 13 100 50 48 83 45 93 93 99 100 100 100 100 100 100 100 82 74 58 100 86 71 18 29 43 37
94 80 99 100 100 88 98 91 100 100 92 0 5 18 4 0 0 0 0 0 4 4 2 68 68 100 100 100 97 100 100 80 100 100 100 100 100 100 100 100 100 100 78 100 98 85 78 44 22
100 90 54 70 100 89 88 88 100 100 15 58 100 25 5 0 0 0 0 2 5 0 5 14 98 100 100 100 100 100 100 100 96 100 100 100 100 100 100 100 53 90 100 100 100 100 100 62 32
100 100 100 100 100 98 100 38 100 100 100 100 100 100 42 5 2 0 0 0 0 3 3 5 14 97 88 100 100 100 100 100 100 100 100 100 100 100 100 100 98 99 100 97 99 100 94 86 32
100 100 100 100 100 100 100 100 100 100 100 100 100 100 100 14 3 4 0 0 5 88 37 5 1 82 61 77 66 79 5 88 100 100 100 100 100 100 100 100 100 100 100 100 100 98 74 80 23
100 100 100 100 100 100 100 100 100 100 100 100 100 100 100 100 1 0 44 77 65 15 44 23 3 0 5 4 1 3 5 0 58 100 100 100 100 100 100 100 100 100 100 100 100 100 100 96 60
100 100 100 100 100 100 100 100 100 100 100 100 100 100 15 2 2 28 100 100 56 6 5 8 62 5 14 5 5 5 0 3 0 58 53 100 100 100 100 100 100 100 100 100 100 98 76 100 100
100 100 100 100 100 100 100 100 100 100 100 40 100 87 4 0 0 14 81 99 44 4 0 0 0 0 0 0 0 5 93 0 5 2 16 100 100 100 100 100 100 100 100 100 100 86 97 100 100
5 56 97 100 100 69 44 100 80 45 3 1 5 5 4 4 4 5 14 9 0 0 0 0 0 0 0 0 0 0 0 24 5 11 75 46 100 100 100 100 100 100 100 100 100 100 100 100 61
76 17 29 24 22 10 52 58 18 6 24 2 4 46 32 0 0 0 0 0 0 0 0 0 0 0 0 0 0 0 0 2 0 85 18 100 38 90 100 100 100 100 100 100 100 100 100 100 100
0 0 3 38 99 94 22 6 82 49 3 0 0 0 0 0 0 0 0 0 0 0 0 2 2 0 0 0 0 1 0 0 5 3 67 88 62 30 31 98 100 100 100 100 100 100 100 100 100
0 0 0 0 4 19 78 5 5 1 0 0 0 0 4 0 3 2 5 5 5 5 5 5 5 5 5 5 5 5 5 5 4 6 52 6 64 100 93 95 98 100 100 100 100 100 100 100 98
0 0 0 0 0 0 4 0 0 0 2 5 0 0 3 5 5 5 5 5 5 5 5 6 6 5 20 66 89 14 5 5 5 5 81 99 50 5 74 100 98 60 100 100 100 87 100 56 99
5 5 0 0 0 0 3 0 0 2 3 0 1 4 8 49 60 20 5 5 5 5 22 52 54 5 5 7 13 70 49 11 16 5 5 78 79 99 40 5 44 86 61 97 100 29 92 83 100
5 5 5 0 0 0 1 0 5 5 5 5 5 5 22 90 74 55 53 91 64 69 100 100 98 42 85 99 100 95 100 100 99 71 31 45 93 7 98 95 5 5 5 66 99 55 20 68 100
0 2 4 0 0 0 0 0 5 5 5 5 81 65 13 81 59 34 21 66 99 100 100 100 66 100 100 100 100 100 100 100 100 100 100 100 100 100 73 87 100 92 8 0 56 99 63 20 100
0 0 27 80 5 13 0 23 65 5 5 5 8 83 91 83 49 34 60 100 100 100 100 100 100 100 100 100 100 100 100 100 100 100 100 100 100 100 100 100 81 65 24 12 0 19 58 32 37
3 29 100 100 46 27 1 6 22 10 19 53 78 71 75 47 58 68 100 94 90 92 79 92 72 98 99 97 100 100 100 100 100 100 100 100 100 100 100 100 100 100 100 90 8 49 12 67 22
96 70 79 40 24 15 5 4 5 44 5 5 5 5 66 16 12 54 75 22 80 95 91 100 100 100 100 100 98 100 100 100 100 100 100 100 100 100 100 100 100 100 100 100 75 24 91 42 28
70 5 0 5 30 17 56 2 68 10 25 5 5 73 71 72 5 68 66 72 100 99 100 100 100 100 100 100 100 100 100 100 100 100 100 100 100 100 100 100 100 100 100 100 100 81 99 100 90

GFSSGP_prec_cloud_129.txt.gz
Cloud_Cover
0 0 8 36 84 5 0 0 0 0 7 10 34 0 0 0 0 0 0 0 0 0 0 0 0 0 0 0 0 0 0 0 0 0 0 0 0 0 0 0 0 0 0 0 0 0 0 0 0
0 0 0 0 0 0 0 0 12 19 98 100 100 25 1 0 0 0 0 0 0 0 0 0 0 0 0 0 0 0 0 0 0 0 0 0 0 0 0 0 0 0 0 0 0 0 0 0 0
1 4 3 0 0 0 0 0 5 6 55 100 100 100 92 4 0 0 0 0 0 0 0 0 0 0 0 0 0 0 0 0 0 0 0 0 0 0 0 0 0 0 0 0 0 6 0 0 0
5 30 39 2 0 22 0 0 5 5 10 100 100 100 71 0 0 0 0 0 5 0 0 2 6 0 0 0 0 0 5 4 0 0 5 9 3 0 0 0 0 0 0 0 0 0 0 0 0
88 27 100 50 1 2 3 5 11 6 8 64 5 3 1 0 0 0 0 0 0 0 4 5 5 5 5 4 2 4 28 9 5 3 45 100 7 2 0 0 0 0 0 0 0 3 3 0 0
60 27 99 100 39 5 5 73 5 5 5 47 5 2 6 0 0 0 0 0 0 0 0 1 5 11 5 28 6 5 12 5 5 6 59 100 67 44 4 0 0 0 0 0 0 0 0 0 4
5 39 100 100 100 100 67 0 5 5 5 27 5 5 1 3 3 0 0 0 0 0 4 0 3 44 52 98 25 22 13 92 88 100 100 100 100 98 93 0 1 5 2 2 5 2 0 2 32
56 100 100 100 96 82 5 11 100 100 83 34 5 8 10 5 9 5 0 4 0 0 0 0 0 9 66 31 31 99 100 98 100 92 98 100 100 100 100 5 5 38 5 5 5 5 5 5 5
35 16 9 13 61 81 86 63 79 100 100 18 51 100 8 5 6 43 5 4 5 5 0 5 1 0 1 46 76 100 99 100 100 100 100 94 100 100 100 48 5 48 40 5 30 52 18 30 5
90 100 100 85 88 100 100 60 96 100 100 100 100 100 8 6 5 5 5 4 0 3 5 81 28 64 23 51 24 99 100 100 97 99 99 94 100 100 100 89 16 100 58 72 39 5 21 25 72
13 26 36 8 11 77 100 100 100 100 100 100 100 100 34 54 24 0 5 4 3 0 7 98 100 100 100 74 100 93 100 100 100 100 100 100 100 100 87 47 100 61 40 66 31 34 25 91 98
33 5 57 46 5 41 97 100 100 98 100 48 70 100 98 100 6 100 99 8 0 0 3 3 5 5 24 90 95 99 100 100 100 99 73 100 100 100 100 100 100 100 100 100 100 80 98 69 98
40 6 8 98 11 53 58 97 100 100 24 49 100 99 41 100 32 98 8 5 0 0 0 0 0 0 0 12 11 3 20 98 100 98 91 100 98 99 100 100 100 100 100 100 100 100 100 100 99
12 10 5 5 5 58 9 93 100 46 43 100 100 50 28 100 47 29 8 38 62 36 2 0 0 0 0 0 0 0 0 3 58 98 100 100 100 100 100 100 100 100 100 100 100 100 100 100 100
63 5 5 5 5 5 14 100 100 96 92 100 100 96 100 99 98 69 100 100 100 15 5 5 9 8 53 14 2 0 0 0 0 15 99 100 100 100 100 100 100 100 100 100 100 100 100 100 100
54 20 96 100 90 100 96 100 100 100 100 98 8 100 100 100 100 100 100 100 34 8 5 5 6 22 6 5 4 3 0 0 0 0 70 91 70 100 100 100 100 100 100 100 100 100 100 100 100
52 8 48 100 100 100 100 100 100 100 100 100 100 100 100 100 100 100 100 46 15 29 48 54 88 11 2 2 3 36 5 0 0 0 0 4 48 30 100 100 100 100 100 100 100 100 100 100 100
89 94 71 86 89 17 81 95 74 86 97 100 100 96 100 87 55 46 100 89 100 98 100 58 41 3 7 3 0 0 0 0 0 0 0 0 26 14 99 100 100 100 100 100 100 100 100 100 100
6 5 36 29 23 49 51 5 5 3 2 4 5 5 5 1 5 10 7 5 5 1 7 88 91 93 7 2 3 0 0 0 0 0 0 0 1 26 87 100 100 100 100 100 100 100 100 100 100
60 12 14 7 4 0 4 4 4 0 0 0 0 0 5 5 5 5 5 5 3 2 4 5 5 5 5 5 5 5 5 0 0 0 0 4 0 1 81 64 81 100 100 100 100 100 100 100 100
1 2 4 2 4 8 5 2 0 0 0 0 0 0 0 0 0 4 4 1 2 5 5 5 5 5 5 5 5 5 5 5 3 0 0 0 0 0 8 84 38 98 100 100 100 100 100 100 100
0 0 0 0 0 1 0 0 0 0 0 0 0 1 5 5 5 5 5 5 5 5 14 14 17 5 5 5 5 5 5 5 5 5 5 5 3 0 0 31 48 98 100 100 100 100 100 100 100
5 5 5 4 0 0 1 4 0 0 0 3 5 5 5 5 5 5 5 5 5 7 74 98 100 26 42 77 98 100 100 94 83 66 14 6 5 0 0 3 75 14 51 100 100 100 100 100 100
5 1 3 0 0 0 0 0 0 4 2 0 5 5 5 5 5 5 5 9 44 96 100 92 93 55 100 100 100 100 100 100 100 100 100 99 83 36 28 8 12 36 63 40 100 100 100 100 100
5 5 1 0 0 0 0 0 0 5 5 3 5 5 5 5 5 9 66 100 100 100 85 57 64 100 100 100 100 100 100 100 100 100 100 100 100 100 100 100 98 12 5 5 69 84 100 100 100
6 4 1 1 0 0 0 0 0 5 5 5 5 5 5 5 5 24 72 100 100 100 26 77 86 100 64 100 100 100 100 100 100 100 100 100 100 100 100 100 100 100 77 74 100 82 26 100 100
3 4 2 48 5 4 0 3 5 5 5 5 5 5 21 5 5 35 90 55 92 94 64 91 99 69 65 93 82 99 100 100 100 100 100 100 100 100 100 100 100 100 100 100 99 37 12 19 78
5 1 6 54 81 55 0 0 0 7 5 5 5 11 21 5 5 16 69 24 79 64 39 44 45 97 98 94 86 98 100 100 100 100 100 100 100 100 100 100 100 100 100 100 100 100 95 6 5
87 90 64 95 41 82 4 3 4 5 5 5 5 5 19 5 9 22 14 6 12 26 34 85 100 100 100 100 100 100 100 100 100 100 100 100 100 100 100 100 100 100 100 100 100 100 100 96 92
8 5 5 100 11 6 21 0 5 31 5 5 21 47 5 5 6 11 5 5 6 43 95 100 100 96 82 100 100 100 100 100 100 100 100 100 100 100 100 100 100 100 100 100 100 100 100 100 77